[[{"header":{"parameterUnit":"m.s-1","parameterCategory":1,"la1":30.6,"la2":28.766,"lo1":-90.7593,"lo2":-88.6598,"dy":0.0162,"dx":0.0183,"nx":116,"ny":114,"refTime":"2023-10-18T18:00:00:Z","depth":0,"parameterNumber":2,"parameterNumberName":"U-component_of_WINDS"},"data":[0.0,0.0,0.0,0.0,0.0,0.0,0.0,0.0,0.0,0.0,0.0,0.0,0.0,0.0,0.0,0.0,0.0,0.0,0.0,0.0,0.0,0.0,0.0,0.0,0.0,0.0,0.0,0.0,0.0,0.0,0.0,0.0,0.0,0.0,0.0,0.0,0.0,0.0,0.0,0.0,0.0,0.0,0.0,0.0,0.0,0.0,0.0,0.0,0.0,0.0,0.0,0.0,0.0,0.0,0.0,0.0,0.0,0.0,0.0,0.0,0.0,0.0,0.0,0.0,0.0,0.0,0.0,0.0,0.0,0.0,0.0,0.0,0.0,0.0,0.0,0.0,0.0,0.0,0.0,0.0,0.0,0.0,0.0,0.0,0.0,0.0,0.0,0.0,0.0,0.0,0.0,0.0,0.0,0.0,0.0,0.0,0.0,0.0,0.0,0.0,0.0,0.0,0.0,0.0,0.0,0.0,0.0,0.0,0.0,0.0,0.0,0.0,0.0,0.0,0.0,0.0,0.0,0.0,0.0,0.0,0.0,0.0,0.0,0.0,0.0,0.0,0.0,0.0,0.0,0.0,0.0,0.0,0.0,0.0,0.0,0.0,0.0,0.0,0.0,0.0,0.0,0.0,0.0,0.0,0.0,0.0,0.0,0.0,0.0,0.0,0.0,0.0,0.0,0.0,0.0,0.0,0.0,0.0,0.0,0.0,0.0,0.0,0.0,0.0,0.0,0.0,0.0,0.0,0.0,0.0,0.0,0.0,0.0,0.0,0.0,0.0,0.0,0.0,0.0,0.0,0.0,0.0,0.0,0.0,0.0,0.0,0.0,0.0,0.0,0.0,0.0,0.0,0.0,0.0,0.0,0.0,0.0,0.0,0.0,0.0,0.0,0.0,0.0,0.0,0.0,0.0,0.0,0.0,0.0,0.0,0.0,0.0,0.0,0.0,0.0,0.0,0.0,0.0,0.0,0.0,0.0,0.0,0.0,0.0,0.0,0.0,0.0,0.0,0.0,0.0,0.0,0.0,0.0,0.0,0.0,0.0,0.0,0.0,0.0,0.0,0.0,0.0,0.0,0.0,0.0,0.0,0.0,0.0,0.0,0.0,0.0,0.0,0.0,0.0,0.0,0.0,0.0,0.0,0.0,0.0,0.0,0.0,0.0,0.0,0.0,0.0,0.0,0.0,0.0,0.0,0.0,0.0,0.0,0.0,0.0,0.0,0.0,0.0,0.0,0.0,0.0,0.0,0.0,0.0,0.0,0.0,0.0,0.0,0.0,0.0,0.0,0.0,0.0,0.0,0.0,0.0,0.0,0.0,0.0,0.0,0.0,0.0,0.0,0.0,0.0,0.0,0.0,0.0,0.0,0.0,0.0,0.0,0.0,0.0,0.0,0.0,0.0,0.0,0.0,0.0,0.0,0.0,0.0,0.0,0.0,0.0,0.0,0.0,0.0,0.0,0.0,0.0,0.0,0.0,0.0,0.0,0.0,0.0,0.0,0.0,0.0,0.0,0.0,0.0,0.0,0.0,0.0,0.0,0.0,0.0,0.0,0.0,0.0,0.0,0.0,0.0,0.0,0.0,0.0,0.0,0.0,0.0,0.0,0.0,0.0,0.0,0.0,0.0,0.0,0.0,0.0,0.0,0.0,0.0,0.0,0.0,0.0,0.0,0.0,0.0,0.0,0.0,0.0,0.0,0.0,0.0,0.0,0.0,0.0,0.0,0.0,0.0,0.0,0.0,0.0,0.0,0.0,0.0,0.0,0.0,0.0,0.0,0.0,0.0,0.0,0.0,0.0,0.0,0.0,0.0,0.0,0.0,0.0,0.0,0.0,0.0,0.0,0.0,0.0,0.0,0.0,0.0,0.0,0.0,0.0,0.0,0.0,0.0,0.0,0.0,0.0,0.0,0.0,0.0,0.0,0.0,0.0,0.0,0.0,0.0,0.0,0.0,0.0,0.0,0.0,0.0,0.0,0.0,0.0,0.0,0.0,0.0,0.0,0.0,0.0,0.0,0.0,0.0,0.0,0.0,0.0,0.0,0.0,0.0,0.0,0.0,0.0,0.0,0.0,0.0,0.0,0.0,0.0,0.0,0.0,0.0,0.0,0.0,0.0,0.0,0.0,0.0,0.0,0.0,0.0,0.0,0.0,0.0,0.0,0.0,0.0,0.0,0.0,0.0,0.0,0.0,0.0,0.0,0.0,0.0,0.0,0.0,0.0,0.0,0.0,0.0,0.0,0.0,0.0,0.0,0.0,0.0,0.0,0.0,0.0,0.0,0.0,0.0,0.0,0.0,0.0,0.0,0.0,0.0,0.0,0.0,0.0,0.0,0.0,0.0,0.0,0.0,0.0,0.0,0.0,0.0,0.0,0.0,0.0,0.0,0.0,0.0,0.0,0.0,0.0,0.0,0.0,0.0,0.0,0.0,0.0,0.0,0.0,0.0,0.0,0.0,0.0,0.0,0.0,0.0,0.0,0.0,0.0,0.0,0.0,0.0,0.0,0.0,0.0,0.0,0.0,0.0,0.0,0.0,0.0,0.0,0.0,0.0,0.0,0.0,0.0,0.0,0.0,0.0,0.0,0.0,0.0,0.0,0.0,0.0,0.0,0.0,0.0,0.0,0.0,0.0,0.0,0.0,0.0,0.0,0.0,0.0,0.0,0.0,0.0,0.0,0.0,0.0,0.0,0.0,0.0,0.0,0.0,0.0,0.0,0.0,0.0,0.0,0.0,0.0,0.0,0.0,0.0,0.0,0.0,0.0,0.0,0.0,0.0,0.0,0.0,0.0,0.0,0.0,0.0,0.0,0.0,0.0,0.0,0.0,0.0,0.0,0.0,0.0,0.0,0.0,0.0,0.0,0.0,0.0,0.0,0.0,0.0,0.0,0.0,0.0,0.0,0.0,0.0,0.0,0.0,0.0,0.0,0.0,0.0,0.0,0.0,0.0,0.0,0.0,0.0,0.0,0.0,0.0,0.0,0.0,0.0,0.0,0.0,0.0,0.0,0.0,0.0,0.0,0.0,0.0,0.0,0.0,0.0,0.0,0.0,0.0,0.0,0.0,0.0,0.0,0.0,0.0,0.0,0.0,0.0,0.0,0.0,0.0,0.0,0.0,0.0,0.0,0.0,0.0,0.0,0.0,0.0,0.0,0.0,0.0,0.0,0.0,0.0,0.0,0.0,0.0,0.0,0.0,0.0,0.0,0.0,0.0,0.0,0.0,0.0,0.0,0.0,0.0,0.0,0.0,0.0,0.0,0.0,0.0,0.0,0.0,0.0,0.0,0.0,0.0,0.0,0.0,0.0,0.0,0.0,0.0,0.0,0.0,0.0,0.0,0.0,0.0,0.0,0.0,0.0,0.0,0.0,0.0,0.0,0.0,0.0,0.0,0.0,0.0,0.0,0.0,0.0,0.0,0.0,0.0,0.0,0.0,0.0,0.0,0.0,0.0,0.0,0.0,0.0,0.0,0.0,0.0,0.0,0.0,0.0,0.0,0.0,0.0,0.0,0.0,0.0,0.0,0.0,0.0,0.0,0.0,0.0,0.0,0.0,0.0,0.0,0.0,0.0,0.0,0.0,0.0,0.0,0.0,0.0,0.0,0.0,0.0,0.0,0.0,0.0,0.0,0.0,0.0,0.0,0.0,0.0,0.0,0.0,0.0,0.0,0.0,0.0,0.0,0.0,0.0,0.0,0.0,0.0,0.0,0.0,0.0,0.0,0.0,0.0,0.0,0.0,0.0,0.0,0.0,0.0,0.0,0.0,0.0,0.0,0.0,0.0,0.0,0.0,0.0,0.0,0.0,0.0,0.0,0.0,0.0,0.0,0.0,0.0,0.0,0.0,0.0,0.0,0.0,0.0,0.0,0.0,0.0,0.0,0.0,0.0,0.0,0.0,0.0,0.0,0.0,0.0,0.0,0.0,0.0,0.0,0.0,0.0,0.0,0.0,0.0,0.0,0.0,0.0,0.0,0.0,0.0,0.0,0.0,0.0,0.0,0.0,0.0,0.0,0.0,0.0,0.0,0.0,0.0,0.0,0.0,0.0,0.0,0.0,0.0,0.0,0.0,0.0,0.0,0.0,0.0,0.0,0.0,0.0,0.0,0.0,0.0,0.0,0.0,0.0,0.0,0.0,0.0,0.0,0.0,0.0,0.0,0.0,0.0,0.0,0.0,0.0,0.0,0.0,0.0,0.0,0.0,0.0,0.0,0.0,0.0,0.0,0.0,0.0,0.0,0.0,0.0,0.0,0.0,0.0,0.0,0.0,0.0,0.0,0.0,0.0,0.0,0.0,0.0,0.0,0.0,0.0,0.0,0.0,0.0,0.0,0.0,0.0,0.0,0.0,0.0,0.0,0.0,0.0,0.0,0.0,0.0,0.0,0.0,0.0,0.0,0.0,0.0,0.0,0.0,0.0,0.0,0.0,0.0,0.0,0.0,0.0,0.0,0.0,0.0,0.0,0.0,0.0,0.0,0.0,0.0,0.0,0.0,0.0,0.0,0.0,0.0,0.0,0.0,0.0,0.0,0.0,0.0,0.0,0.0,0.0,0.0,0.0,0.0,0.0,0.0,0.0,0.0,0.0,0.0,0.0,0.0,0.0,0.0,0.0,0.0,0.0,0.0,0.0,0.0,0.0,0.0,0.0,0.0,0.0,0.0,0.0,0.0,0.0,0.0,0.0,0.0,0.0,0.0,0.0,0.0,0.0,0.0,0.0,0.0,0.0,0.0,0.0,0.0,0.0,0.0,0.0,0.0,0.0,0.0,0.0,0.0,0.0,0.0,0.0,0.0,0.0,0.0,0.0,0.0,0.0,0.0,0.0,0.0,0.0,0.0,0.0,0.0,0.0,0.0,0.0,0.0,0.0,0.0,0.0,0.0,0.0,0.0,0.0,0.0,0.0,0.0,0.0,0.0,0.0,0.0,0.0,0.0,0.0,0.0,0.0,0.0,0.0,0.0,0.0,0.0,0.0,0.0,0.0,0.0,0.0,0.0,0.0,0.0,0.0,0.0,0.0,0.0,0.0,0.0,0.0,0.0,0.0,0.0,0.0,0.0,0.0,0.0,0.0,0.0,0.0,0.0,0.0,0.0,0.0,0.0,0.0,0.0,0.0,0.0,0.0,0.0,0.0,0.0,0.0,0.0,0.0,0.0,0.0,0.0,0.0,0.0,0.0,0.0,0.0,0.0,0.0,0.0,0.0,0.0,0.0,0.0,0.0,0.0,0.0,0.0,0.0,0.0,0.0,0.0,0.0,0.0,0.0,0.0,0.0,0.0,0.0,0.0,0.0,0.0,0.0,0.0,0.0,0.0,0.0,0.0,0.0,0.0,0.0,0.0,0.0,0.0,0.0,0.0,0.0,0.0,0.0,0.0,0.0,0.0,0.0,0.0,0.0,0.0,0.0,0.0,0.0,0.0,0.0,0.0,0.0,0.0,0.0,0.0,0.0,0.0,0.0,0.0,0.0,0.0,0.0,0.0,0.0,0.0,0.0,0.0,0.0,0.0,0.0,0.0,0.0,0.0,0.0,0.0,0.0,0.0,0.0,0.0,0.0,0.0,0.0,0.0,0.0,0.0,0.0,0.0,0.0,0.0,0.0,0.0,0.0,0.0,0.0,0.0,0.0,0.0,0.0,0.0,0.0,0.0,0.0,0.0,0.0,0.0,0.0,0.0,0.0,0.0,0.0,0.0,0.0,0.0,0.0,0.0,0.0,0.0,0.0,0.0,0.0,0.0,0.0,0.0,0.0,0.0,0.0,0.0,0.0,0.0,0.0,0.0,0.0,0.0,0.0,0.0,0.0,0.0,0.0,0.0,0.0,0.0,0.0,0.0,0.0,0.0,0.0,0.0,0.0,0.0,0.0,0.0,0.0,0.0,0.0,0.0,0.0,0.0,0.0,0.0,0.0,0.0,0.0,0.0,0.0,0.0,0.0,0.0,0.0,0.0,0.0,0.0,0.0,0.0,0.0,0.0,0.0,0.0,0.0,0.0,0.0,0.0,0.0,0.0,0.0,0.0,0.0,0.0,0.0,0.0,0.0,0.0,0.0,0.0,0.0,0.0,0.0,0.0,0.0,0.0,0.0,0.0,0.6351,0.0,0.0,0.0,0.0,0.0,0.0,0.0,0.0,0.0,0.0,0.0,0.0,0.0,0.0,0.0,0.0,0.0,0.0,0.0,0.0,0.0,0.0,0.0,0.0,0.0,0.0,0.0,0.0,0.0,0.0,0.0,0.0,0.0,0.0,0.0,0.0,0.0,0.0,0.0,0.0,0.0,0.0,0.0,0.0,0.0,0.0,0.0,0.0,0.0,0.0,0.0,0.0,0.0,0.0,0.0,0.0,0.0,0.0,0.0,0.0,0.0,0.0,0.0,0.0,0.0,0.0,0.0,0.0,0.0,0.0,0.0,0.0,0.0,0.0,0.0,0.0,0.0,0.0,0.0,0.0,0.0,0.0,0.0,0.0,0.0,0.0,0.0,0.0,0.0,0.0,0.0,0.0,0.0,0.0,0.0,0.0,0.0,0.0,0.0,0.0,0.0,0.0,0.0,0.0,0.0,0.0,0.0,0.0,0.0,0.0,0.0,0.0,0.0,0.0,0.0,0.0,0.5583,0.0,0.0,0.0,0.0,0.0,0.0,0.0,0.0,0.0,0.0,0.0,0.0,0.0,0.0,0.0,0.0,0.0,0.0,0.0,0.0,0.0,0.0,0.0,0.0,0.0,0.0,0.0,0.0,0.0,0.0,0.0,0.0,0.0,0.0,0.0,0.0,0.0,0.0,0.0,0.0,0.0,0.0,0.0,0.0,0.0,0.0,0.0,0.0,0.0,0.0,0.0,0.0,0.0,0.0,0.0,0.0,0.0,0.0,0.0,0.0,0.0,0.0,0.0,0.0,0.0,0.0,0.0,0.0,0.0,0.0,0.0,0.0,0.0,0.0,0.0,0.0,0.0,0.0,0.0,0.0,0.0,0.0,0.0,0.0,0.0,0.0,0.0,0.0,0.0,0.0,0.0,0.0,0.0,0.0,0.0,0.0,0.0,0.0,0.0,0.0,0.0,0.0,0.0,0.0,0.0,0.0,0.0,0.0,0.7413,0.7177,0.7129,0.6542,0.6401,0.6774,0.6263,0.6134,0.6029,0.0,0.0,0.0,0.0,0.0,0.0,0.0,0.0,0.0,0.0,0.0,0.0,0.0,0.0,0.0,0.0,0.0,0.0,0.0,0.0,0.0,0.0,0.0,0.0,0.0,0.0,0.0,0.0,0.0,0.0,0.0,0.0,0.0,0.0,0.0,0.0,0.0,0.0,0.0,0.8603,0.844,0.793,0.7144,0.7895,0.0,0.0,0.0,0.0,0.0,0.0,0.0,0.0,0.0,0.0,0.0,0.0,0.0,0.0,0.0,0.0,0.0,0.0,0.0,0.0,0.0,0.0,0.0,0.0,0.0,0.0,0.0,0.0,0.0,0.0,0.0,0.0,0.0,0.0,0.0,0.0,0.0,0.0,0.0,0.0,0.0,0.0,0.0,0.4325,0.4107,0.0,0.0,0.0,0.0,0.0,0.0,0.0,0.0,0.0,0.0,0.0,0.0,0.0,0.0,0.6998,0.768,0.7873,0.7449,0.8242,0.848,0.8284,0.8142,0.8055,0.8181,0.8014,0.0,0.6005,0.5558,0.0,0.0,0.0,0.0,0.0,0.0,0.0,0.0,0.0,0.0,0.0,0.0,0.0,0.0,0.0,0.0,0.0,0.0,0.0,0.0,0.0,0.0,0.0,0.0,0.0,0.0,0.0,0.0,0.0,0.0,0.0,0.0,0.0,0.0,0.0,0.0,0.7007,0.7319,0.7609,0.7672,0.7485,0.7143,0.7468,0.721,0.6418,0.5803,0.0,0.0,0.0,0.0,0.0,0.0,0.0,0.0,0.0,0.0,0.0,0.0,0.0,0.0,0.0,0.0,0.0,0.0,0.0,0.0,0.0,0.0,0.0,0.0,0.0,0.0,0.0,0.0,0.0,0.0,0.0,0.0,0.0,0.0,0.0,0.0,0.0,0.0,0.0,0.4663,0.4545,0.432,0.4532,0.4671,0.0,0.0,0.0,0.0,0.0,0.0,0.0,0.0,0.0,0.4937,0.6676,0.7862,0.8359,0.8377,0.8441,0.8206,0.8614,0.7933,0.6409,0.6006,0.5874,0.5878,0.587,0.551,0.4856,0.6044,0.5367,0.3497,0.0,0.0,0.0,0.0,0.2365,0.3126,0.0,0.0,0.0,0.0,0.0,0.0,0.0,0.0,0.0,0.0,0.0,0.0,0.0,0.0,0.0,0.9897,0.0,0.0,0.0,0.0,0.0,0.0,0.0,0.0,0.0,0.0,0.0,0.0,0.627,0.6623,0.6988,0.7256,0.722,0.6981,0.6882,0.6338,0.5252,0.4979,0.4737,0.0,0.0,0.0,0.0,0.0,0.0,0.0,0.0,0.0,0.0,0.0,0.0,0.0,0.0,0.0,0.0,0.0,0.0,0.0,0.0,0.0,0.0,0.0,0.0,0.0,0.0,0.0,0.0,0.0,0.0,0.0,0.0,0.0,0.0,0.0,0.0,0.0,0.0,0.4489,0.4414,0.4227,0.413,0.4144,0.0,0.0,0.0,0.0,0.0,0.0,0.2958,0.4493,0.5259,0.4991,0.6372,0.748,0.8215,0.8059,0.7792,0.768,0.8333,0.7715,0.5778,0.3828,0.3286,0.3965,0.3865,0.3949,0.4049,0.6308,0.5976,0.4037,0.1817,0.0987,0.0983,0.0983,0.1379,0.2086,0.0,0.0,0.0,0.0,0.0,0.0,0.0,0.0,0.0,0.0,0.0,0.0,0.0,0.0,1.0857,1.0606,1.0336,0.942,0.0,0.0,0.0,0.0,0.0,0.0,0.0,0.0,0.0,0.5866,0.6628,0.725,0.7608,0.7871,0.7489,0.6624,0.6619,0.6527,0.6257,0.5354,0.4871,0.455,0.0,0.0,0.0,0.0,0.0,0.0,0.0,0.0,0.0,0.0,0.0,0.0,0.0,0.0,0.0,0.0,0.0,0.0,0.0,0.0,0.0,0.0,0.0,0.0,0.0,0.0,0.0,0.0,0.0,0.0,0.0,0.0,0.0,0.0,0.0,0.0,0.0,0.0,0.0,0.2959,0.2788,0.0,0.0,0.0,0.0,0.3112,0.3025,0.2824,0.2494,0.4159,0.546,0.6143,0.5223,0.4803,0.5082,0.5358,0.5224,0.4559,0.7328,0.8586,0.8246,0.2726,0.1497,0.39,0.3843,0.395,0.4057,0.6319,0.7111,0.6521,0.1874,0.0108,0.0106,0.0106,0.0107,0.0434,0.0,0.0,0.0,0.0,0.0,0.0,0.0,0.0,0.0,0.0,0.0,0.0,0.0,0.9943,1.0426,1.0076,1.0001,0.9096,0.7101,0.0,0.0,0.0,0.0,0.0,0.0,0.0,0.4936,0.5087,0.5485,0.5774,0.595,0.5959,0.577,0.5588,0.511,0.472,0.4321,0.4346,0.401,0.3422,0.3065,0.2927,0.0,0.0,0.0,0.0,0.0,0.0,0.0,0.0,0.0,0.0,0.0,0.0,0.0,0.0,0.0,0.0,0.0,0.0,0.0,0.0,0.0,0.0,0.0,0.0,0.0,0.0,0.0,0.0,0.0,0.0,0.0,0.0,0.0,0.0,0.0,0.0,0.0,0.3076,0.2695,0.0,0.0,0.2709,0.2651,0.2733,0.2395,0.2161,0.2159,0.2247,0.2714,0.3466,0.6698,0.6387,0.1819,0.1835,0.1835,0.1538,0.2523,0.3072,0.3042,0.0955,0.0544,0.1363,0.1345,0.1336,0.1467,0.221,0.2522,0.2438,0.0709,-0.0,-0.0,-0.0,-0.0,0.0115,0.0,0.0,0.0,0.0,0.0,0.0,0.0,0.0,0.0,0.0,0.0,0.8182,0.8964,0.9622,0.9955,0.9592,0.9506,0.8549,0.6465,0.0,0.0,0.0,0.0,0.0,0.0,0.4472,0.4581,0.4618,0.4855,0.4973,0.4973,0.4973,0.4973,0.4969,0.453,0.398,0.3229,0.3483,0.3172,0.2374,0.2292,0.2307,0.2483,0.0,0.0,0.0,0.0,0.0,0.0,0.0,0.0,0.0,0.0,0.0,0.0,0.0,0.0,0.0,0.0,0.0,0.0,0.0,0.0,0.0,0.0,0.0,0.0,0.0,0.0,0.0,0.0,0.0,0.0,0.0,0.0,0.0,0.0,0.0,0.2708,0.3084,0.2654,0.2395,0.2724,0.2412,0.2234,0.2297,0.2015,0.1847,0.1932,0.159,0.1359,0.1392,0.5063,0.4826,-0.0,-0.0,-0.0,-0.0,-0.0,-0.0,-0.0,-0.0,-0.0,-0.0,-0.0,-0.0,-0.0,-0.0,-0.0,-0.0,-0.0,-0.0,-0.0,-0.0,-0.0,-0.0,0.0,0.0,0.0,0.0,0.0,0.0,0.0,0.0,0.0,0.0,0.6678,0.7193,0.9063,0.9482,0.9353,0.8953,0.8693,0.7664,0.5479,0.5377,0.0,0.0,0.0,0.0,0.4835,0.4293,0.4138,0.4712,0.4883,0.4969,0.4977,0.5153,0.5141,0.4981,0.5067,0.4386,0.3237,0.3234,0.2573,0.1527,0.1495,0.1483,0.1472,0.0,0.0,0.0,0.0,0.0,0.0,0.0,0.0,0.0,0.0,0.0,0.0,0.0,0.0,0.0,0.0,0.0,0.0,0.0,0.0,0.0,0.0,0.0,0.0,0.0,0.0,0.0,0.0,0.0,0.0,0.0,0.0,0.0,0.297,0.2826,0.2672,0.2995,0.2455,0.2201,0.249,0.219,0.1993,0.2022,0.1949,0.1994,0.1887,0.2076,0.1413,-0.0,-0.0,-0.0,-0.0,-0.0,-0.0,-0.0,-0.0,-0.0,-0.0,-0.0,-0.0,-0.0,-0.0,-0.0,-0.0,-0.0,-0.0,-0.0,-0.0,-0.0,-0.0,-0.0,-0.0,-0.0,0.0,0.0,0.0,0.0,0.0,0.0,0.0,0.0,0.0,0.0,0.6656,0.7573,0.8207,0.8527,0.8519,0.7981,0.6952,0.5769,0.4495,0.0,0.0,0.0,0.0,0.0,0.4208,0.4415,0.4614,0.4802,0.4847,0.4908,0.4973,0.5022,0.5055,0.5067,0.4609,0.4292,0.3985,0.3107,0.256,0.2225,0.1764,0.1534,0.1601,0.0,0.0,0.0,0.0,0.0,0.0,0.0,0.0,0.0,0.0,0.0,0.0,0.0,0.0,0.0,0.0,0.0,0.0,0.0,0.0,0.0,0.0,0.0,0.0,0.0,0.0,0.0,0.0,0.0,0.0,0.0,0.0,0.2277,0.2511,0.226,0.2064,0.2281,0.212,0.2178,0.2337,0.2226,0.2119,0.2014,0.1639,0.1111,0.0563,0.0567,0.043,-0.0,-0.0,-0.0,-0.0,-0.0,-0.0,-0.0,-0.0,-0.0,-0.0,-0.0,-0.0,-0.0,-0.0,-0.0,-0.0,-0.0,-0.0,-0.0,-0.0,-0.0,-0.0,-0.0,-0.0,-0.0,0.0,0.0,0.0,0.0,0.0,0.0,0.0,0.0,0.0,0.0,0.607,0.6721,0.7675,0.7621,0.7341,0.6883,0.5731,0.4709,0.3755,0.0,0.0,0.0,0.0,0.4116,0.4238,0.4618,0.4785,0.4834,0.4834,0.4883,0.4973,0.449,0.432,0.4362,0.3501,0.2971,0.2766,0.1896,0.1474,0.1269,0.1131,0.1314,0.1594,0.1438,0.103,0.0551,0.0785,0.0938,0.0844,0.0324,0.0,0.0,0.0,0.0,0.0,0.0,0.0,0.0,0.0,0.0,0.0,0.0,0.0,0.0,0.0,0.0,0.0,0.0,0.0,0.0,0.0,0.0,0.0,0.0,0.231,0.203,0.2096,0.1948,0.1918,0.2024,0.2076,0.2121,0.2169,0.2185,0.22,0.2079,0.1545,0.071,-0.0,-0.0,-0.0,-0.0,-0.0,-0.0,-0.0,-0.0,-0.0,-0.0,-0.0,-0.0,-0.0,-0.0,-0.0,0.0,-0.0,-0.0,-0.0,-0.0,-0.0,0.0,0.0,0.0,0.0,0.0,-0.0,-0.0,0.0,0.0,0.0,0.0,0.0,0.0,0.0,0.0,0.0,0.0,0.0,0.5432,0.7073,0.662,0.6091,0.5705,0.5031,0.4321,0.0,0.0,0.0,0.0,0.3952,0.3971,0.4524,0.4506,0.444,0.4433,0.444,0.4482,0.4556,0.3578,0.3082,0.3097,0.2164,0.1406,0.0857,0.0534,0.0108,-0.0328,0.0215,0.0856,0.1495,0.1236,0.1129,0.1035,0.0587,0.047,0.0455,0.0361,0.0,0.0,0.0,0.0,0.0,0.0,0.0,0.0,0.0,0.0,0.0,0.0,0.0,0.0,0.0,0.0,0.0,0.0,0.0,0.0,0.0,0.0,0.0,0.0,0.2077,0.1842,0.1933,0.1949,0.1981,0.206,0.2123,0.2172,0.2202,0.2233,0.2252,0.2255,0.1567,0.0717,-0.0,0.0,0.0,0.0,0.0,-0.0,-0.0,-0.0,-0.0,-0.0,-0.0,-0.0,-0.0,-0.0,-0.0,-0.0,-0.0,-0.0,-0.0,-0.0,-0.0,-0.0,-0.0,-0.0,-0.0,-0.0,-0.0,-0.0,0.0,0.0,0.0,0.0,0.0,0.0,0.0,0.0,0.0,0.4507,0.4678,0.5002,0.5796,0.5935,0.5871,0.5578,0.5013,0.4247,0.0,0.0,0.0,0.0,0.0,0.3277,0.3504,0.2651,0.2249,0.2217,0.2249,0.2268,0.2379,0.2077,0.2007,0.2062,0.1825,0.1626,0.1551,0.0984,0.0654,0.0546,0.0218,0.0329,0.0664,0.1282,0.1585,0.1582,0.142,0.1406,0.1403,0.0941,0.0831,0.0735,0.0349,0.0,0.0,0.0,0.0,0.0,0.0,0.0,0.0,0.0,0.0,0.0,0.0,0.0,0.0,0.0,0.0,0.0,0.0,0.0,0.0,0.2363,0.2058,0.1936,0.2026,0.206,0.2082,0.2098,0.2154,0.2203,0.2233,0.2264,0.2292,0.2315,0.1596,0.0872,-0.0,-0.0,0.0,-0.0,-0.0,-0.0,-0.0,-0.0,-0.0,-0.0,0.0,0.0,-0.0,-0.0,-0.0,-0.0,-0.0,-0.0,-0.0,-0.0,-0.0,-0.0,-0.0,-0.0,-0.0,-0.0,-0.0,-0.0,0.0,0.0,0.0,0.0,0.0,0.0,0.0,0.0,0.0,0.0,0.3832,0.4148,0.4758,0.4959,0.4918,0.4699,0.3808,0.0,0.0,0.0,0.0,0.0,0.0,0.0,0.2447,0.1854,0.1553,0.1553,0.1553,0.1671,0.17,0.1054,0.0856,0.0885,0.0219,-0.0,-0.0,-0.0556,-0.0664,-0.0663,-0.0652,-0.0545,-0.0332,0.1195,0.1727,0.1832,0.2352,0.2451,0.2118,0.182,0.1583,0.1264,0.119,0.1133,0.0836,0.0,0.0,0.0,0.0,0.0,0.0,0.0,0.0,0.0,0.0,0.0,0.0,0.0,0.0,0.2611,0.0,0.0,0.2283,0.2192,0.2047,0.2001,0.2076,0.2113,0.2132,0.2132,0.2185,0.2229,0.2244,0.2286,0.2318,0.2331,0.1896,0.1167,-0.0,-0.0,0.1469,0.4527,0.47,0.3951,0.2309,0.2308,0.2285,0.21,0.2086,0.1376,-0.0,-0.0,-0.0,-0.0,-0.0,-0.0,-0.0,-0.0,-0.0,-0.0,-0.0,-0.0,-0.0,-0.0,-0.0,-0.0,0.0,0.0,0.0,0.0,0.0,0.0,0.0,0.0,0.0,0.0,0.0,0.3203,0.3876,0.3905,0.3884,0.0,0.0,0.0,0.0,0.0,0.0,0.0,0.0,0.0,0.0,0.1044,0.0946,0.085,0.0946,0.0953,0.0977,-0.0,-0.0433,-0.0446,-0.134,-0.179,-0.1795,-0.202,-0.2132,-0.2125,-0.1627,-0.14,-0.1196,0.0758,0.1627,0.1853,0.2872,0.296,0.2687,0.2638,0.2258,0.1884,0.2269,0.2015,0.1598,0.1515,0.0985,0.0,0.0,0.0,0.0,0.0,0.0,0.0,0.0,0.0,0.2499,0.266,0.2494,0.2312,0.2247,0.2317,0.2297,0.2094,0.2018,0.2054,0.211,0.2139,0.2155,0.2155,0.2208,0.2245,0.2245,0.2298,0.2333,0.2333,0.2338,0.1901,0.1167,0.1173,0.3372,0.8188,0.8946,0.816,0.5594,0.5637,0.5421,0.5237,0.514,0.3856,0.1614,0.0538,-0.0,-0.0,-0.0,-0.0,-0.0,-0.0,-0.0,-0.0,-0.0,-0.0,-0.0,-0.0,-0.0,-0.0,0.0,0.0,0.0,0.0,0.0,0.0,0.0,0.0,0.0,0.0,0.0,0.0,0.0,0.0,0.0,0.0,0.0,0.0,0.0,0.0,0.0,0.0,0.0,0.0,0.0,-0.0862,-0.1403,-0.1384,-0.1403,-0.1405,-0.1281,-0.1492,-0.1507,-0.1645,-0.1755,-0.177,-0.1795,-0.1795,-0.1795,-0.1793,-0.1759,-0.173,-0.1492,-0.021,0.0843,0.171,0.1712,0.2307,0.2946,0.2992,0.2833,0.2778,0.2856,0.2592,0.2151,0.2314,0.0,0.1219,0.1294,0.1331,0.1399,0.1544,0.1351,0.1269,0.0,0.0,0.1762,0.1862,0.1829,0.1887,0.1817,0.2012,0.2097,0.2044,0.2079,0.211,0.2144,0.2153,0.2155,0.2155,0.2208,0.2245,0.2245,0.2298,0.2333,0.2333,0.2358,0.3099,0.4662,0.506,0.5218,0.5238,0.781,0.915,0.876,0.8817,0.8713,0.8723,0.8352,0.7966,0.7439,0.2289,-0.0,-0.0,-0.0,-0.0,-0.0,-0.0,-0.0,-0.0,-0.0,-0.0,-0.0,-0.0,-0.0,-0.0,0.0,0.0,0.0,0.0,0.0,0.0,0.0,0.0,0.0,0.0,0.0,0.0,0.0,0.0,0.0,0.0,0.0,0.0,0.0,0.0,0.0,0.0,0.0,0.0,0.0,0.0,-0.1752,-0.1757,-0.1752,-0.1752,-0.1756,-0.1738,-0.1746,-0.1776,-0.1776,-0.1783,-0.1795,-0.1795,-0.1795,-0.1793,-0.1761,-0.1731,-0.1594,-0.0522,0.0613,0.16,0.2226,0.2716,0.0,0.0,0.3208,0.2525,0.3141,0.291,0.2593,0.2649,0.2268,0.0,0.1784,0.1957,0.0,0.0,0.2098,0.2077,0.2316,0.2463,0.2296,0.1851,0.182,0.1884,0.1914,0.1964,0.202,0.0,0.2116,0.214,0.2153,0.2155,0.2142,0.2106,0.2155,0.2207,0.2241,0.2283,0.2315,0.2331,0.3222,0.4248,0.5389,0.662,0.7659,0.8019,0.9389,0.9849,0.9367,0.7553,0.659,0.6597,0.6422,0.7168,0.8526,0.6072,0.3218,-0.0,-0.0,-0.0,-0.0,-0.0,-0.0,-0.0,-0.0,-0.0,-0.0,-0.0,-0.0,-0.0,0.0,0.0,0.0,0.0,0.0,0.0,0.0,0.0,0.0,0.0,0.0,0.0,0.0,0.0,0.0,0.0,0.0,0.0,0.0,0.0,0.0,0.0,0.0,0.0,0.0,0.0,-0.1772,-0.1795,-0.1774,-0.1774,-0.1794,-0.1772,-0.1774,-0.1795,-0.1804,-0.1804,-0.1795,-0.1813,-0.1805,-0.1782,-0.1768,-0.1626,-0.1159,-0.0512,0.0494,0.1619,0.25,0.2962,0.0,0.0,0.3147,0.2323,0.3096,0.2996,0.2637,0.2611,0.2283,0.2042,0.211,0.0,0.0,0.2795,0.2938,0.3086,0.3132,0.3206,0.2969,0.2275,0.2112,0.2173,0.1979,0.2011,0.0,0.2112,0.2147,0.2168,0.2168,0.2153,0.2125,0.2082,0.2101,0.2142,0.2202,0.2671,0.2864,0.291,0.4075,0.4947,0.5822,0.6865,0.8043,0.9345,0.934,0.905,0.8469,0.5974,0.431,0.3355,0.3359,0.442,0.6207,0.6207,0.3885,-0.0,-0.0,-0.0,-0.0,-0.0,-0.0,-0.0,-0.0,-0.0,-0.0,-0.0,-0.0,-0.0,0.0,0.0,0.0,0.0,0.0,0.0,0.0,0.0,0.0,0.0,0.0,0.0,0.0,0.0,0.0,0.0,0.0,0.0,0.0,0.0,0.0,0.0,0.0,0.0,0.0,0.0,-0.1794,-0.1795,-0.1794,-0.1794,-0.1795,-0.1794,-0.1794,-0.1797,-0.1825,-0.1823,-0.1798,-0.1858,-0.1832,-0.1753,-0.1782,-0.1087,-0.0103,-0.0195,0.0764,0.2185,0.205,0.0,0.0,0.0,0.2745,0.2621,0.2765,0.2529,0.0,0.2159,0.1825,0.0,0.0,0.0,0.2484,0.3229,0.3561,0.3662,0.3737,0.3668,0.3472,0.2988,0.2856,0.2629,0.2126,0.2042,0.2082,0.2143,0.2178,0.2199,0.2199,0.2148,0.211,0.2108,0.2057,0.2046,0.0,0.3422,0.4387,0.4649,0.4511,0.5235,0.6825,0.5593,0.5305,0.6543,0.654,0.6398,0.6257,0.5244,0.3162,0.014,0.014,0.0138,0.0269,0.0269,0.0135,-0.0,-0.0,-0.0,-0.0,-0.0,-0.0,-0.0,-0.0,-0.0,-0.0,-0.0,-0.0,-0.0,0.0,0.0,0.0,0.0,0.0,0.0,0.0,0.0,0.0,0.0,0.0,0.0,0.0,0.0,0.0,0.0,0.0,0.0,0.0,0.0,0.0,0.0,0.0,0.0,0.0,0.0,0.0,-0.1213,-0.1213,-0.122,-0.1234,-0.157,-0.1795,-0.1795,-0.1806,-0.1805,-0.1909,-0.1817,-0.1808,-0.1778,-0.1746,-0.1073,-0.0,0.0098,0.0945,0.2134,0.0,0.0,0.0,0.0,0.0,0.0,0.2532,0.0,0.0,0.1757,0.1882,0.2192,0.2833,0.0,0.3882,0.4636,0.4797,0.4804,0.4538,0.4474,0.4272,0.368,0.3281,0.3027,0.2721,0.2406,0.2211,0.2277,0.2261,0.2193,0.2173,0.2187,0.2162,0.2061,0.2067,0.0,0.0,0.0,0.0,0.2975,0.3973,0.4858,0.5377,0.5984,0.6133,0.5677,0.7131,0.7425,0.6704,0.7874,0.5915,0.0849,0.0279,-0.0,-0.0,-0.0,-0.0,-0.0,-0.0,-0.0,-0.0,-0.0,-0.0,-0.0,-0.0,-0.0,-0.0,-0.0,-0.0,-0.0,0.0,0.0,0.0,0.0,0.0,0.0,0.0,0.0,0.0,0.0,0.0,0.0,0.0,0.0,0.0,0.0,0.0,0.0,0.0,0.0,0.0,0.0,0.0,0.0,0.0,0.0204,-0.0413,-0.0834,-0.063,-0.0741,-0.1072,-0.1194,-0.131,-0.1531,-0.1447,-0.1453,-0.1558,-0.169,-0.1897,-0.1961,-0.1811,-0.0939,0.0102,0.0382,0.1116,0.0,0.0,0.0,0.0,0.0,0.0,0.0,0.0,0.2006,0.1802,0.1792,0.213,0.2678,0.3525,0.41,0.4706,0.5358,0.561,0.5574,0.5219,0.5119,0.4868,0.4183,0.3768,0.338,0.3026,0.2737,0.2569,0.2637,0.2783,0.2766,0.265,0.2538,0.2389,0.2059,0.2076,0.0,0.0,0.0,0.0,0.2914,0.3909,0.4518,0.4619,0.5078,0.4944,0.4369,0.5535,0.6395,0.6657,0.8005,0.621,0.1558,0.0553,-0.0,-0.0,-0.0,-0.0,-0.0,-0.0,-0.0,-0.0,-0.0,-0.0,-0.0,-0.0,-0.0,-0.0,-0.0,-0.0,-0.0,0.0,0.0,0.0,0.0,0.0,0.0,0.0,0.0,0.0,0.0,0.0,0.0,0.0,0.0,0.0,0.0,0.0,0.0,0.0,0.0,0.0,0.0,0.0,0.0,-0.0473,-0.0569,-0.0665,-0.0666,-0.0291,-0.0587,-0.1472,-0.0509,-0.031,-0.0829,-0.0871,-0.0883,-0.0872,-0.1463,-0.1871,-0.2175,-0.176,-0.0801,0.0379,0.0455,0.0,0.0,0.0,0.0,0.0,0.0,0.0,0.0,0.0,0.0,0.1586,0.23,0.2585,0.3007,0.4193,0.4657,0.4889,0.5598,0.5782,0.5778,0.5769,0.5696,0.5346,0.4609,0.4186,0.3676,0.0,0.0,0.3145,0.3319,0.3667,0.3687,0.3342,0.3164,0.2908,0.0,0.0,0.0,0.0,0.0,0.0,0.4242,0.0,0.4361,0.4424,0.304,0.2333,0.2333,0.2477,0.376,0.6282,0.5794,0.4464,0.2387,0.0819,0.0135,-0.0,-0.0,-0.0,-0.0,-0.0,-0.0,-0.0,-0.0,-0.0,-0.0,-0.0,-0.0,-0.0,-0.0,-0.0,-0.0,0.0,0.0,0.0,0.0,0.0,0.0,0.0,0.0,0.0,0.0,0.0,0.0,0.0,0.0,0.0,0.0,0.0,0.0,0.0,0.0,0.0,0.0,0.0,0.0,0.0,-0.053,-0.1086,-0.1119,0.0,-0.0947,-0.0865,-0.0582,-0.039,0.0,-0.0198,-0.02,-0.0202,-0.0408,-0.1022,-0.1725,0.0,-0.0487,0.0097,0.0,0.0,0.0,0.0,0.0,0.0,0.0,0.0,0.0,0.0,0.0,0.2823,0.3078,0.0,0.4079,0.4596,0.5096,0.5578,0.5765,0.5782,0.5745,0.561,0.5512,0.5286,0.4777,0.4268,0.3814,0.0,0.0,0.0,0.2802,0.3045,0.0,0.2559,0.2484,0.0,0.0,0.0,0.2184,0.2147,0.2163,0.0,0.0,0.2757,0.2803,0.2895,0.2474,0.2333,0.2333,0.4469,0.6037,0.6793,0.6614,0.5859,0.4537,0.2491,0.1368,0.082,0.0268,-0.0,-0.0,-0.0,-0.0,-0.0,-0.0,-0.0,-0.0,-0.0,-0.0,-0.0,-0.0,-0.0,-0.0,0.0,0.0,0.0,0.0,0.0,0.0,0.0,0.0,0.0,0.0,0.0,0.0,0.0,0.0,0.0,0.0,0.0,0.0,0.0,0.0,0.0,0.0,0.0,0.0,0.0,-0.081,-0.1246,0.0,0.0,0.0,0.0,-0.0909,-0.0825,-0.0551,-0.0187,-0.0,-0.0,0.0,0.0,0.0,0.0,0.0,0.0,0.0,0.0,0.0,0.0,0.0,0.0,0.0,0.0,0.2645,0.3133,0.3312,0.3401,0.3909,0.0,0.4679,0.5107,0.5467,0.579,0.5831,0.581,0.5725,0.5386,0.527,0.5017,0.4523,0.4062,0.0,0.0,0.0,0.0,0.0,0.0,0.0,0.3682,0.3394,0.3044,0.0,0.2387,0.0,0.2218,0.223,0.224,0.0,0.224,0.2262,0.2312,0.2326,0.2327,0.2315,0.3873,0.4858,0.486,0.603,0.5709,0.3925,0.275,0.1901,0.1484,0.1062,0.0524,-0.0,0.0,-0.0,-0.0,-0.0,-0.0,-0.0,-0.0,-0.0,-0.0,-0.0,-0.0,-0.0,0.0,0.0,0.0,0.0,0.0,0.0,0.0,0.0,0.0,0.0,0.0,0.0,0.0,0.0,0.0,0.0,0.0,0.0,0.0,0.0,0.0,0.0,0.0,0.0,0.0,0.0,0.0,0.0,0.0,0.0,0.0,0.0,0.0,0.0,0.0,0.0,0.0,0.0,0.0,0.0,0.0,0.0,0.0,0.0,0.0,0.0,0.0,0.0,0.0,0.0,0.3161,0.3277,0.362,0.3715,0.3915,0.4682,0.4863,0.5028,0.5614,0.5798,0.5814,0.5867,0.5823,0.5684,0.5054,0.4916,0.4631,0.3953,0.0,0.0,0.3595,0.0,0.4237,0.4766,0.0,0.5578,0.5297,0.4646,0.4121,0.3643,0.2991,0.2583,0.2441,0.2436,0.2433,0.229,0.2288,0.2285,0.2285,0.2308,0.2308,0.2564,0.2567,0.2694,0.2798,0.504,0.4873,0.2474,0.23,0.2135,0.2109,0.2101,0.1423,0.0253,0.0,0.0,-0.0,-0.0,-0.0,-0.0,-0.0,-0.0,-0.0,-0.0,-0.0,-0.0,0.0,0.0,0.0,0.0,0.0,0.0,0.0,0.0,0.0,0.0,0.0,0.0,0.0,0.0,0.0,0.0,0.0,0.0,0.0,0.0,0.0,0.0,0.0,0.0,0.0,0.0,0.0,0.0,0.0,0.0,0.0,0.0,0.0,0.0,0.0,0.0,0.0,0.0,0.0,0.0,0.0,0.0,0.0,0.0,0.0,0.0,0.0,0.0,0.0,0.0,0.3555,0.3949,0.4646,0.5017,0.5139,0.5514,0.559,0.5618,0.5859,0.5892,0.5859,0.5725,0.568,0.5442,0.482,0.4614,0.0,0.0,0.0,0.326,0.3496,0.0,0.0,0.4256,0.0,0.0,0.0,0.0,0.4471,0.0,0.0,0.0,0.0,0.0,0.0,0.0,0.0,0.0,0.2253,0.2258,0.2806,0.3873,0.405,0.4742,0.5909,0.5198,0.4646,0.4111,0.2811,0.2114,0.2108,0.2057,0.1903,0.1642,0.0499,0.0,-0.0,-0.0,-0.0,-0.0,-0.0,-0.0,-0.0,-0.0,-0.0,-0.0,0.0,0.0,0.0,0.0,0.0,0.0,0.0,0.0,0.0,0.0,0.0,0.0,0.0,0.0,0.0,0.0,0.0,0.0,0.0,0.0,0.0,0.0,0.0,0.0,0.0,0.0,0.0,0.0,0.0,0.0,0.0,0.0,0.0,0.0,0.0,0.0,0.0,0.0,0.0,0.0,0.0,0.0,0.0,0.0,0.0,0.0,0.0,0.0,0.0,0.0,0.36,0.4426,0.5114,0.541,0.5492,0.5716,0.5782,0.581,0.5949,0.599,0.5965,0.588,0.5749,0.5422,0.4714,0.0,0.0,0.0,0.0,0.3081,0.3479,0.0,0.0,0.0,0.0,0.0,0.0,0.0,0.0,0.0,0.0,0.0,0.0,0.0,0.0,0.0,0.0,0.0,0.2245,0.223,0.2491,0.316,0.3976,0.4371,0.4341,0.4341,0.407,0.3259,0.2548,0.2116,0.2086,0.2072,0.2041,0.1999,0.0999,0.0,-0.0,-0.0,-0.0,-0.0,-0.0,-0.0,-0.0,-0.0,-0.0,-0.0,0.0,0.0,0.0,0.0,0.0,0.0,0.0,0.0,0.0,0.0,0.0,0.0,0.0,0.0,0.0,0.0,0.0,0.0,0.0,0.0,0.0,0.0,0.0,0.0,0.0,0.0,0.0,0.0,0.0,0.0,0.0,0.0,0.0,0.0,0.0,0.0,0.0,0.0,0.0,0.0,0.0,0.0,0.0,0.0,0.0,0.0,0.0,0.0,0.0,0.0,0.3715,0.4566,0.5198,0.539,0.5342,0.5522,0.5614,0.5694,0.5982,0.6051,0.6072,0.6035,0.5847,0.5454,0.4529,0.4173,0.0,0.0,0.0,0.3016,0.357,0.0,0.0,0.0,0.0,0.0,0.0,0.0,0.0,0.0,0.0,0.0,0.0,0.0,0.0,0.0,0.0,0.0,0.2225,0.2203,0.2191,0.2191,0.3246,0.3362,0.2155,0.3362,0.3228,0.2155,0.2148,0.212,0.2074,0.2084,0.2052,0.1988,0.1253,0.0,0.0,-0.0,-0.0,-0.0,-0.0,-0.0,-0.0,-0.0,-0.0,-0.0,0.0,0.0,0.0,0.0,0.0,0.0,0.0,0.0,0.0,0.0,0.0,0.0,0.0,0.0,0.0,0.0,0.0,0.0,0.0,0.0,0.0,0.0,0.0,0.0,0.0,0.0,0.0,0.0,0.0,0.0,0.0,0.0,0.0,0.0,0.0,0.0,0.0,0.0,0.0,0.0,0.0,0.0,0.0,0.0,0.0,0.0,0.0,0.0,0.0,0.0,0.0,0.4032,0.4626,0.4802,0.4747,0.4801,0.0,0.0,0.5778,0.6047,0.6129,0.597,0.5847,0.5514,0.4578,0.0,0.0,0.0,0.2788,0.3048,0.3992,0.4162,0.0,0.0,0.0,0.0,0.0,0.0,0.0,0.0,0.0,0.0,0.0,0.0,0.0,0.0,0.0,0.0,0.0,0.2161,0.2159,0.2159,0.229,0.2289,0.2155,0.2289,0.2289,0.2154,0.2127,0.211,0.2104,0.205,0.2023,0.2016,0.1369,0.0,0.0,-0.0,-0.0,-0.0,-0.0,-0.0,-0.0,-0.0,-0.0,-0.0,0.0,0.0,0.0,0.0,0.0,0.0,0.0,0.0,0.0,0.0,0.0,0.0,0.0,0.0,0.0,0.0,0.0,0.0,0.0,0.0,0.0,0.0,0.0,0.0,0.0,0.0,0.0,0.0,0.0,0.0,0.0,0.0,0.0,0.0,0.0,0.0,0.0,0.0,0.0,0.0,0.0,0.0,0.0,0.0,0.0,0.0,0.0,0.0,0.0,0.0,0.0,0.0,0.3558,0.3833,0.0,0.0,0.5221,0.5554,0.5929,0.6129,0.6231,0.6108,0.5766,0.5242,0.4514,0.0,0.0,0.2914,0.2812,0.3102,0.389,0.4094,0.4489,0.0,0.0,0.0,0.0,0.0,0.0,0.0,0.0,0.0,0.0,0.0,0.0,0.0,0.0,0.0,0.0,0.2155,0.2155,0.2155,0.2155,0.2155,0.2155,0.2155,0.2155,0.2154,0.2124,0.2099,0.208,0.2057,0.2027,0.1994,0.1376,0.0,0.0,-0.0,-0.0,-0.0,-0.0,-0.0,-0.0,-0.0,-0.0,-0.0,0.0,0.0,0.0,0.0,0.0,0.0,0.0,0.0,0.0,0.0,0.0,0.0,0.0,0.0,0.0,0.0,0.0,0.0,0.0,0.0,0.0,0.0,0.0,0.0,0.0,0.0,0.0,0.0393,0.1806,0.0,0.0,0.0,0.0,0.0,0.0,0.0,0.0,0.0,0.0,0.0,0.0,0.0,0.0,0.0,0.0,0.0,0.0,0.0,0.0,0.0,0.0,0.0,0.0,0.0,0.0,0.0,0.5009,0.5382,0.5806,0.6063,0.6219,0.6125,0.5632,0.5088,0.0,0.0,0.0,0.3138,0.3138,0.3448,0.4282,0.4353,0.468,0.5777,0.0,0.5151,0.0,0.0,0.0,0.0,0.0,0.0,0.0,0.0,0.0,0.0,0.0,0.0,0.0,0.2138,0.2136,0.2154,0.2146,0.2142,0.2142,0.2142,0.2142,0.2142,0.212,0.2102,0.209,0.2072,0.2046,0.2016,0.0,0.0,0.0,-0.0,-0.0,-0.0,-0.0,-0.0,-0.0,-0.0,-0.0,-0.0,0.0,0.0,0.0,0.0,0.0,0.0,0.0,0.0,0.0,0.0,0.0,0.0,0.0,0.0,0.0,0.0,0.0,0.0,0.0,0.0,0.0,0.0,0.0,0.0,0.0,0.0,0.0,-0.0,0.1648,0.251,0.251,0.0,0.0,0.0,0.0,0.0,0.0,0.0,0.0,0.0,0.0,0.0,0.0,0.0,0.0,0.0,0.0,0.0,0.0,0.0,0.0,0.0,0.0,0.0,0.0,0.0,0.4082,0.4954,0.535,0.5778,0.6035,0.5941,0.5542,0.5073,0.0,0.0,0.0,0.3731,0.3793,0.4092,0.5214,0.5241,0.5388,0.5973,0.5232,0.4696,0.0,0.0,0.0,0.0,0.0,0.0,0.0,0.0,0.0,0.0,0.0,0.0,0.0,0.2098,0.2093,0.2153,0.2125,0.2109,0.2109,0.2109,0.2109,0.2109,0.2109,0.2125,0.2151,0.2091,0.208,0.0,0.0,0.0,0.0,-0.0,-0.0,-0.0,-0.0,-0.0,-0.0,-0.0,-0.0,-0.0,0.0,0.0,0.0,0.0,0.0,0.0,0.0,0.0,0.0,0.0,0.0,0.0,0.0,0.0,0.0,0.0,0.0,0.0,0.0,0.0,0.0,0.0,0.0,0.0,0.0,0.0,0.0,0.1726,0.2275,0.2531,0.2572,0.2529,0.2613,0.0,0.0,0.0,0.0,0.0,0.0,0.0,0.0,0.0,0.0,0.0,0.0,0.0,0.0,0.0,0.0,0.0,0.0,0.0,0.0,0.0,0.0,0.337,0.3751,0.0,0.4843,0.5069,0.5002,0.4976,0.4665,0.4296,0.3924,0.0,0.0,0.3814,0.407,0.4576,0.5408,0.5388,0.5368,0.5792,0.5429,0.4963,0.0,0.0,0.0,0.0,0.0,0.0,0.0,0.0,0.0,0.0,0.0,0.0,0.0,0.2048,0.2041,0.2121,0.2114,0.2099,0.2079,0.2098,0.2098,0.2078,0.2078,0.2072,0.2061,0.2041,0.0,0.0,0.0,0.0,0.0,-0.0,-0.0,-0.0,-0.0,-0.0,-0.0,-0.0,-0.0,-0.0,0.0,0.0,0.0,0.0,0.0,0.0,0.0,0.0,0.0,0.0,0.0,0.0,0.0,0.0,0.0,0.0,0.0,0.0,0.0,0.0,0.0,0.0,0.0,0.0,0.0,0.0,0.0,0.2307,0.2327,0.2273,0.2306,0.2373,0.2445,0.2518,0.2801,0.0,0.0,0.0,0.0,0.0,0.0,0.0,0.2869,0.0,0.0,0.0,0.0,0.0,0.0,0.0,0.0,0.0,0.0,0.0,0.0,0.0,0.3408,0.3748,0.0,0.445,0.4463,0.4463,0.4193,0.0,0.0,0.0,0.0,0.0,0.4555,0.5096,0.5746,0.5761,0.5646,0.5584,0.5344,0.4959,0.0,0.0,0.0,0.0,0.0,0.0,0.0,0.0,0.0,0.0,0.0,0.0,0.0,0.0,0.2007,0.2074,0.2075,0.2065,0.2046,0.2065,0.2065,0.2046,0.2046,0.2044,0.2035,0.2023,0.0,0.0,0.0,0.0,0.0,0.0253,-0.0,-0.0,-0.0,-0.0,-0.0,-0.0,-0.0,-0.0,0.0,0.0,0.0,0.0,0.0,0.0,0.0,0.0,0.0,0.0,0.0,0.0,0.0,0.0,0.0,0.0,0.0,0.0,0.0,0.0,0.0,0.0,0.0,0.0,0.0,0.0,0.0,0.1954,0.1993,0.1932,0.1855,0.2234,0.229,0.2036,0.244,0.0,0.0,0.0,0.0,0.0,0.0,0.0,0.0,0.0,0.0,0.0,0.0,0.0,0.0,0.0,0.0,0.0,0.0,0.0,0.0,0.0,0.0,0.0,0.0,0.0,0.0,0.0,0.0,0.0,0.0,0.0,0.0,0.0,0.0,0.0,0.616,0.6274,0.6042,0.547,0.4958,0.4528,0.0,0.0,0.0,0.0,0.0,0.0,0.0,0.0,0.0,0.0,0.0,0.0,0.0,0.0,0.1989,0.2015,0.2015,0.2015,0.2015,0.2018,0.2018,0.2016,0.2018,0.2033,0.2057,0.203,0.0,0.0,0.0,0.0,0.0,0.0509,-0.0,-0.0,-0.0,-0.0,-0.0,-0.0,-0.0,-0.0,0.0,0.0,0.0,0.0,0.0,0.0,0.0,0.0,0.0,0.0,0.0,0.0,0.0,0.0,0.0,0.0,0.0,0.0,0.0,0.0,0.0,0.0,0.0,0.0,0.0,0.0,0.0,0.1788,0.2042,0.2251,0.2241,0.2472,0.2698,0.2754,0.2788,0.0,0.0,0.0,0.0,0.0,0.0,0.0,0.0,0.0,0.0,0.0,0.2244,0.2424,0.0,0.0,0.0,0.0,0.0,0.0,0.0,0.0,0.2964,0.2973,0.3106,0.0,0.3328,0.3328,0.0,0.0,0.0,0.0,0.0,0.0,0.0,0.0,0.0,0.0,0.5433,0.4855,0.4384,0.403,0.0,0.0,0.0,0.0,0.0,0.0,0.0,0.0,0.0,0.0,0.0,0.0,0.0,0.1996,0.1979,0.1986,0.1986,0.1986,0.1986,0.2008,0.2008,0.1986,0.2008,0.2011,0.1997,0.2012,0.0,0.0,0.0,0.0,0.0508,0.0128,-0.0,-0.0,-0.0,-0.0,-0.0,-0.0,-0.0,-0.0,0.0,0.0,0.0,0.0,0.0,0.0,0.0,0.0,0.0,0.0,0.0,0.0,0.0,0.0,0.0,0.0,0.0,0.0,0.0,0.0,0.0,0.0,0.0,0.0,0.0,0.0,0.0,0.0,0.1918,0.2219,0.2294,0.2554,0.2598,0.2519,0.2681,0.0,0.0,0.0,0.0,0.0,0.2581,0.0,0.0,0.0,0.0,0.0,0.2334,0.2513,0.0,0.2693,0.2785,0.2875,0.0,0.0,0.0,0.0,0.2875,0.2875,0.2875,0.2916,0.2959,0.2959,0.2984,0.3187,0.0,0.0,0.0,0.0,0.0,0.0,0.0,0.0,0.0,0.0,0.4406,0.0,0.0,0.0,0.0,0.0,0.0,0.0,0.0,0.0,0.0,0.0,0.0,0.0,0.0,0.1985,0.1977,0.1977,0.1977,0.1977,0.1977,0.1992,0.1992,0.1977,0.1992,0.1992,0.1977,0.1743,0.175,0.0,0.0,0.0,-0.0,-0.0,-0.0,-0.0,-0.0,-0.0,-0.0,-0.0,-0.0,-0.0,0.0,0.0,0.0,0.0,0.0,0.0,0.0,0.0,0.0,0.0,0.0,0.0,0.0,0.0,0.0,0.0,0.0,0.0,0.0,0.0,0.0,0.0,0.0,0.0,0.0,0.0,0.0,0.0,0.0,0.2187,0.2234,0.2556,0.241,0.2098,0.2334,0.0,0.0,0.0,0.0,0.0,0.2301,0.0,0.0,0.0,0.0,0.0,0.0,0.0,0.0,0.2875,0.2964,0.2962,0.2962,0.0,0.0,0.0,0.0,0.0,0.2875,0.3012,0.306,0.3043,0.2951,0.3233,0.0,0.0,0.0,0.0,0.0,0.0,0.0,0.0,0.0,0.0,0.0,0.0,0.0,0.0,0.0,0.0,0.0,0.0,0.0,0.0,0.0,0.0,0.0,0.0,0.0,0.1967,0.1964,0.197,0.1964,0.1963,0.1963,0.1973,0.1977,0.1977,0.1977,0.1977,0.1977,0.1358,0.1358,0.0,0.0,0.0,-0.0,-0.0,-0.0,-0.0,-0.0,-0.0,-0.0,-0.0,-0.0,-0.0,0.0,0.0,0.0,0.0,0.0,0.0,0.0,0.0,0.0,0.0,0.0,0.0,0.0,0.0,0.0,0.0,0.0,0.0,0.0,0.0,0.0,0.0,0.0,0.0,0.0,0.0,0.0,0.0,0.0,0.0,0.2359,0.268,0.2642,0.2351,0.2373,0.2124,0.1748,0.0,0.0,0.0,0.0,0.0,0.0,0.0,0.0,0.0,0.0,0.0,0.0,0.2875,0.3051,0.3138,0.3138,0.0,0.0,0.0,0.0,0.0,0.3051,0.3322,0.3578,0.3004,0.2924,0.3129,0.0,0.0,0.0,0.0,0.0,0.0,0.0,0.0,0.0,0.0,0.0,0.0,0.0,0.0,0.0,0.0,0.0,0.0,0.0,0.0,0.0,0.0,0.0,0.0,0.0,0.0,0.1911,0.1937,0.1913,0.19,0.19,0.1951,0.1977,0.1977,0.1977,0.1977,0.1977,0.1853,0.1235,0.0,0.0,-0.0,-0.0,-0.0,-0.0,-0.0,-0.0,-0.0,-0.0,-0.0,-0.0,-0.0,0.0,0.0,0.0,0.0,0.0,0.0,0.0,0.0,0.0,0.0,0.0,0.0,0.0,0.0,0.0,0.0,0.0,0.0,0.0,0.0,0.0,0.0,0.0,0.0,0.0,0.0,0.0,0.0,0.0,0.2598,0.2654,0.2793,0.2728,0.2476,0.245,0.2289,0.2068,0.2457,0.0,0.0,0.0,0.0,0.0,0.0,0.0,0.0,0.0,0.0,0.0,0.0,0.3138,0.3227,0.3492,0.0,0.0,0.0,0.0,0.0,0.3141,0.3209,0.3362,0.3209,0.3335,0.0,0.0,0.0,0.0,0.0,0.0,0.0,0.0,0.0,0.0,0.0,0.0,0.0,0.0,0.0,0.0,0.0,0.0,0.0,0.0,0.0,0.0,0.0,0.0,0.0,0.0,0.0,0.1892,0.1906,0.1894,0.1885,0.1885,0.1913,0.1928,0.1928,0.196,0.1959,0.205,0.1962,0.123,-0.0,0.0,-0.0,-0.0,-0.0,-0.0,-0.0,-0.0,-0.0,-0.0,-0.0,-0.0,-0.0,0.0,0.0,0.0,0.0,0.0,0.0,0.0,0.0,0.0,0.0,0.0,0.0,0.0,0.0,0.0,0.0,0.0,0.0,0.0,0.0,0.0,0.0,0.0,0.0,0.0,0.0,0.2423,0.2608,0.2695,0.2815,0.2872,0.2863,0.27,0.2561,0.2726,0.2561,0.2318,0.2658,0.2703,0.2544,0.0,0.0,0.0,0.0,0.0,0.0,0.0,0.0,0.0,0.0,0.0,0.0,0.0,0.0,0.0,0.3849,0.3671,0.3317,0.3138,0.3185,0.3233,0.3402,0.0,0.0,0.0,0.0,0.0,0.0,0.0,0.0,0.0,0.0,0.0,0.0,0.0,0.0,0.0,0.0,0.0,0.0,0.0,0.0,0.0,0.0,0.0,0.0,0.0,0.0,0.0,0.0,0.1868,0.1874,0.1751,0.1631,0.1631,0.1748,0.1872,0.1651,0.1933,0.2051,0.2006,0.1692,0.0973,-0.0,-0.0,-0.0,-0.0,-0.0,-0.0,-0.0,-0.0,-0.0,-0.0,-0.0,-0.0,-0.0,0.0,0.0,0.0,0.0,0.0,0.0,0.0,0.0,0.0,0.0,0.0,0.0,0.0,0.0,0.0,0.0,0.0,0.0,0.0,0.0,0.0,0.0,0.0,0.0,0.0,0.2687,0.2717,0.2782,0.2782,0.2815,0.2875,0.304,0.2914,0.2509,0.2938,0.2766,0.2164,0.2606,0.2727,0.2509,0.2782,0.0,0.0,0.0,0.0,0.0,0.0,0.0,0.0,0.0,0.0,0.0,0.0,0.0,0.4572,0.4028,0.3853,0.3678,0.3054,0.3279,0.3684,0.3612,0.0,0.0,0.0,0.0,0.0,0.0,0.0,0.0,0.0,0.0,0.0,0.0,0.0,0.0,0.0,0.0,0.0,0.0,0.0,0.0,0.0,0.0,0.0,0.0,0.0,0.0,0.0,0.0,0.0,0.1843,0.1249,0.1013,0.1013,0.1576,0.1601,0.1061,0.1653,0.2008,0.2003,0.0709,0.0119,-0.0,-0.0,-0.0,-0.0,-0.0,-0.0,-0.0,-0.0,-0.0,-0.0,-0.0,-0.0,-0.0,0.0,0.0,0.0,0.0,0.0,0.0,0.0,0.0,0.0,0.0,0.0,0.0,0.0,0.0,0.0,0.0,0.0,0.0,0.0,0.0,0.0,0.0,0.0,0.2613,0.2635,0.2709,0.2779,0.2839,0.2839,0.2919,0.299,0.3075,0.0,0.0,0.328,0.3126,0.2695,0.2996,0.2939,0.2785,0.2875,0.2875,0.0,0.0,0.0,0.0,0.0,0.0,0.0,0.0,0.3853,0.43,0.4478,0.4478,0.4478,0.4389,0.3942,0.3406,0.3138,0.3246,0.3361,0.3471,0.0,0.0,0.0,0.0,0.0,0.0,0.0,0.0,0.0,0.0,0.0,0.0,0.0,0.0,0.0,0.0,0.0,0.0,0.0,0.0,0.0,0.0,0.0,0.0,0.0,0.0,0.0,0.0,0.0,0.1786,0.1567,0.1228,0.0884,0.1547,0.1669,0.1466,0.1035,0.0808,0.0686,0.0234,-0.0,-0.0,-0.0,-0.0,-0.0,-0.0,-0.0,-0.0,-0.0,-0.0,-0.0,-0.0,-0.0,-0.0,0.0,0.0,0.0,0.0,0.0,0.0,0.0,0.0,0.0,0.0,0.0,0.0,0.0,0.0,0.0,0.0,0.0,0.0,0.0,0.0,0.0,0.0,0.0,0.2602,0.2602,0.2804,0.2889,0.2933,0.3042,0.3206,0.3244,0.0,0.0,0.0,0.3573,0.3423,0.316,0.3206,0.3051,0.2875,0.2875,0.2875,0.0,0.0,0.0,0.0,0.0,0.0,0.0,0.0,0.4032,0.4567,0.4567,0.4478,0.4389,0.4393,0.3835,0.3282,0.3194,0.3194,0.3206,0.0,0.0,0.0,0.0,0.0,0.0,0.0,0.0,0.0,0.0,0.0,0.0,0.0,0.0,0.0,0.0,0.0,0.0,0.0,0.0,0.0,0.0,0.0,0.0,0.0,0.0,0.0,0.0,0.0,0.0,0.0,0.1208,0.0989,0.0652,0.0972,0.1189,0.1195,0.0442,-0.0,-0.0,-0.0,-0.0,-0.0,-0.0,-0.0,-0.0,-0.0,-0.0,-0.0,-0.0,-0.0,-0.0,-0.0,-0.0,-0.0,0.0,0.0,0.0,0.0,0.0,0.0,0.0,0.0,0.0,0.0,0.0,0.0,0.0,0.0,0.0,0.0,0.0,0.0,0.0,0.0,0.0,0.0,0.0,0.26,0.26,0.2971,0.3123,0.3126,0.3462,0.3588,0.3588,0.3767,0.0,0.0,0.3767,0.3678,0.3227,0.3227,0.3051,0.2875,0.2875,0.2875,0.2875,0.0,0.0,0.0,0.0,0.0,0.0,0.0,0.4389,0.4919,0.4478,0.4478,0.4572,0.3857,0.3534,0.3473,0.3126,0.3126,0.0,0.0,0.0,0.0,0.0,0.0,0.0,0.0,0.0,0.0,0.0,0.0,0.0,0.0,0.0,0.0,0.0,0.0,0.0,0.0,0.0,0.0,0.0,0.0,0.0,0.0,0.0,0.0,0.0,0.0,0.0,0.0,-0.0,-0.0,-0.0,-0.0,-0.0,-0.0,-0.0,-0.0,-0.0,-0.0,-0.0,-0.0,-0.0,-0.0,-0.0,-0.0,-0.0,-0.0,-0.0,-0.0,-0.0,-0.0,-0.0,-0.0,0.0,0.0,0.0,0.0,0.0,0.0,0.0,0.0,0.0,0.0,0.0,0.0,0.0,0.0,0.0,0.0,0.0,0.0,0.0,0.0,0.0,0.0,0.0,0.0,0.0,0.0,0.3475,0.3462,0.3575,0.3678,0.0,0.0,0.0,0.3857,0.3857,0.3678,0.3227,0.3227,0.3051,0.2875,0.2875,0.2875,0.2875,0.0,0.0,0.0,0.0,0.0,0.0,0.0,0.0,0.0,0.3853,0.3946,0.3946,0.3496,0.3037,0.2667,0.2487,0.0,0.0,0.0,0.0,0.0,0.0,0.0,0.0,0.0,0.0,0.0,0.0,0.0,0.0,0.0,0.0,0.0,0.0,0.0,0.0,0.0,0.0,0.0,0.0,0.0,0.0,0.0,0.0,0.0,0.0,0.0,0.0,0.0,-0.0,-0.0,-0.0,-0.0,-0.0,-0.0,-0.0,-0.0,-0.0,-0.0,-0.0,-0.0,-0.0,-0.0,-0.0,-0.0,-0.0,-0.0,-0.0,-0.0,-0.0,-0.0,-0.0,-0.0,0.0,0.0,0.0,0.0,0.0,0.0,0.0,0.0,0.0,0.0,0.055,0.0471,0.0,0.0,0.0,0.0,0.0,0.0,0.0,0.0,0.0,0.0,0.0,0.0,0.0,0.3498,0.3695,0.0,0.0,0.0,0.0,0.0,0.3946,0.4036,0.0,0.3588,0.3317,0.3227,0.3051,0.2875,0.2962,0.2962,0.2875,0.0,0.0,0.0,0.0,0.0,0.0,0.0,0.0,0.0,0.332,0.0,0.3492,0.2662,0.2392,0.2301,0.2281,0.0,0.0,0.0,0.0,0.0,0.0,0.0,0.0,0.0,0.0,0.0,0.0,0.0,0.0,0.0,0.0,0.0,0.0,0.0,0.0,0.0,0.0,0.0,0.0,0.0,0.0,0.0,0.0,0.0,0.0,0.0,0.0,0.0,-0.0,-0.0,-0.0,-0.0,-0.0,-0.0,-0.0,-0.0,-0.0,-0.0,-0.0,-0.0,-0.0,-0.0,-0.0,-0.0,-0.0,-0.0,-0.0,-0.0,-0.0,-0.0,-0.0,-0.0,0.0,0.0,0.0,0.0,0.0,0.0,0.0,0.0,0.0,0.0,-0.0,0.0314,0.0,0.0,0.0,0.0,0.0,0.0,0.0,0.0,0.0,0.0,0.0,0.0,0.0,0.0,0.0,0.0,0.0,0.0,0.0,0.0,0.4028,0.421,0.0,0.3588,0.3588,0.3317,0.3051,0.2875,0.3138,0.3051,0.2785,0.2603,0.0,0.0,0.0,0.0,0.0,0.0,0.0,0.0,0.2872,0.3051,0.3037,0.1752,0.1741,0.2164,0.0,0.0,0.0,0.0,0.0,0.0,0.0,0.0,0.0,0.0,0.0,0.0,0.0,0.0,0.0,0.0,0.0,0.0,0.0,0.0,0.0,0.0,0.0,0.0,0.0,0.0,0.0,0.0,0.0,0.0,0.0,0.0,0.0,0.0,-0.0,-0.0,-0.0,-0.0,-0.0,0.0,-0.0,-0.0,-0.0,-0.0,-0.0,-0.0,-0.0,-0.0,-0.0,-0.0,-0.0,-0.0,-0.0,-0.0,-0.0,-0.0,-0.0,-0.0,0.0,0.0,0.0,0.0,0.0,0.0,0.0,0.0,0.0,0.0,0.0,0.0,0.0,0.0,0.0,0.0,0.0,0.0,0.0,0.0,0.0,0.0,0.0,0.0,0.0,0.0,0.0,0.0,0.0,0.0,0.0,0.0,0.0,0.3946,0.0,0.3406,0.3588,0.3317,0.3048,0.2959,0.3138,0.2869,0.2424,0.2693,0.2693,0.0,0.0,0.0,0.0,0.0,0.0,0.0,0.2334,0.2603,0.278,0.1695,0.141,0.1483,0.0,0.0,0.0,0.0,0.0,0.0,0.0,0.0,0.0,0.0,0.0,0.0,0.0,0.0,0.0,0.0,0.0,0.0,0.0,0.0,0.0,0.0,0.0,0.0,0.0,0.0,0.0,0.0,0.0,0.0,0.0,0.0,0.0,-0.0,-0.0,-0.0,-0.0,-0.0,-0.0,0.0,-0.0,-0.0,-0.0,-0.0,-0.0,-0.0,-0.0,-0.0,-0.0,-0.0,-0.0,-0.0,-0.0,-0.0,-0.0,-0.0,-0.0,-0.0,0.0,0.0,0.0,0.0,0.0,0.0,0.0,0.0,0.0,0.0,0.0,0.0,0.0,0.0,0.0,0.0,0.0,0.0,0.0,0.0,0.0,0.0,0.0,0.0,0.0,0.0,0.0,0.0,0.0,0.0,0.0,0.0,0.0,0.3406,0.0,0.2962,0.3051,0.2962,0.278,0.2601,0.278,0.2693,0.2334,0.2424,0.2244,0.1884,0.1615,0.0,0.0,0.0,0.0,0.0,0.0,0.0,0.197,0.0976,0.0973,0.1236,0.0,0.0,0.0,0.0,0.0,0.0,0.0,0.0,0.0,0.0,0.0,0.0,0.0,0.0,0.0,0.0,0.0,0.0,0.0,0.0,0.0,0.0,0.0,0.0,0.0,0.0,0.0,0.0,0.0,0.0,0.0,-0.0,-0.0,-0.0,-0.0,-0.0,-0.0,-0.0,-0.0,-0.0,-0.0,-0.0,-0.0,-0.0,-0.0,-0.0,-0.0,-0.0,-0.0,-0.0,-0.0,-0.0,-0.0,-0.0,-0.0,-0.0,-0.0,-0.0,0.0,0.0,0.0,0.0,0.0,0.0,0.0,0.0,0.0,0.0,0.0,0.0,0.0,0.0,0.0,0.0,0.0,0.0,0.0,0.0,0.0,0.0,0.0,0.0,0.0,0.0,0.2831,0.0,0.0,0.0,0.0,0.0,0.0,0.2956,0.0,0.2513,0.2603,0.2513,0.2424,0.2244,0.2424,0.2424,0.2155,0.1705,0.1525,0.1346,0.0808,0.0808,0.1077,0.0718,0.0,0.0,0.0,0.0,0.0984,0.0264,0.0531,0.1065,0.0,0.0,0.0,0.0,0.0,0.0,0.0,0.0,0.0,0.0,0.0,0.0,0.0,0.0,0.0,0.0,0.0,0.0,0.0,0.0,0.0,0.0,0.0,0.0,0.0,0.0,0.0,0.0,0.0,0.0,-0.0,-0.0,-0.0,-0.0,-0.0,-0.0,-0.0,-0.0,-0.0,-0.0,-0.0,-0.0,-0.0,-0.0,-0.0,-0.0,-0.0,-0.0,-0.0,-0.0,-0.0,-0.0,-0.0,-0.0,-0.0,-0.0,-0.0,-0.0,0.0,0.0,0.0,0.0,0.0,0.0,0.0,0.0,0.0,0.0,-0.1335,-0.1257,0.0,0.0,0.0,0.0,0.0,0.0,0.0,0.0,0.0,0.0,0.0,0.0,0.0,0.0,0.0,0.0,0.0,0.0,0.0,0.0,0.0,0.3138,0.0,0.0,0.3048,0.2693,0.2424,0.2244,0.2334,0.2063,0.1436,0.0538,0.0717,0.1256,0.0449,0.009,0.018,0.009,0.009,0.0,0.0,0.0,0.018,-0.0,0.0089,0.0,0.0,0.0,0.0,0.0,0.0,0.0,0.0,0.0,0.0,0.0,0.0,0.0,0.0,0.0,0.0,0.0,0.0,0.0,0.0,0.0,0.0,0.0,0.0,0.0,0.0,0.0,0.0,0.0,0.0,0.0,-0.0,-0.0,-0.0,-0.0,-0.0,-0.0,-0.0,-0.0,-0.0,-0.0,-0.0,-0.0,-0.0,-0.0,-0.0,-0.0,-0.0,-0.0,-0.0,-0.0,-0.0,-0.0,-0.0,-0.0,-0.0,-0.0,-0.0,-0.0,0.0,0.0,0.0,0.0,0.0,0.0,0.0,0.0,0.0,0.0,0.0,-0.1335,0.0,0.0,0.0,0.0,0.0,0.0,0.0,0.0,0.0,0.0,0.0,0.0,0.0,0.0,0.0,0.0,0.0,0.0,0.0,0.2134,0.2238,0.0,0.0,0.0,0.0,0.0,0.1794,0.1794,0.1794,0.1705,0.1346,0.0896,0.0717,0.0538,0.018,-0.0,-0.0,-0.0,-0.0,-0.009,-0.0629,0.0,0.0,0.0,-0.0178,0.0,0.0,0.0,0.0,0.0,0.0,0.0,0.0,0.0,0.0,0.0,0.0,0.0,0.0,0.0,0.0,0.0,0.0,0.0,0.0,0.0,0.0,0.0,0.0,0.0,0.0,0.0,0.0,0.0,0.0,-0.0,-0.0,-0.0,-0.0,-0.0,-0.0,-0.0,-0.0,-0.0,-0.0,-0.0,-0.0,-0.0,-0.0,-0.0,-0.0,-0.0,-0.0,-0.0,-0.0,-0.0,-0.0,-0.0,-0.0,-0.0,-0.0,-0.0,-0.0,-0.0,0.0,0.0,0.0,0.0,0.0,0.0,0.0,0.0,0.0,0.0,0.0,0.0,0.0,0.0,0.0,0.0,0.0,0.0,0.0,0.0,0.0,0.0,0.0,0.0,0.0,0.0,0.0,0.0,0.0,0.0,0.199,0.1799,0.1633,0.0,0.1449,0.0,0.0,0.0,0.0,0.1436,0.1436,0.1436,0.1436,0.1436,0.0896,0.0179,-0.0,-0.0,-0.0,-0.0269,-0.0539,-0.0808,-0.1256,-0.1525,0.0,0.0,0.0,0.0,0.0,0.0,0.0,0.0,0.0,0.0,0.0,0.0,0.0,0.0,0.0,0.0,0.0,0.0,0.0,0.0,0.0,0.0,0.0,0.0,0.0,0.0,0.0,0.0,0.0,0.0,0.0,0.0,0.0,-0.0,-0.0,-0.0,-0.0,-0.0,-0.0,-0.0,-0.0,-0.0,-0.0,-0.0,-0.0,-0.0,-0.0,-0.0,-0.0,-0.0,-0.0,-0.0,-0.0,-0.0,-0.0,-0.0,-0.0,-0.0,-0.0,-0.0,-0.0,-0.0,0.0,0.0,0.0,0.0,0.0,0.0,0.0,0.0,0.0,0.0,0.0,0.0,0.0,0.0,-0.126,-0.1261,-0.1346,-0.1431,-0.1432,-0.0084,0.0679,0.0,0.0,0.0,0.1787,0.0,0.0,0.0,0.0,0.0,0.157,0.1449,0.1452,0.1479,0.1449,0.1525,0.1794,0.0,0.0,0.0,0.0,0.0,0.0,0.0,0.0,0.0628,0.0179,-0.0,-0.0179,-0.0987,-0.1975,-0.2603,-0.1705,-0.1705,-0.2155,0.0,0.0,0.0,0.0,0.0,0.0,0.0,0.0,0.0,0.0,0.0,0.0,0.0,0.0,0.0,0.0,0.0,0.0,0.0,0.0,0.0,0.0,0.0,0.0,0.0,0.0,0.0,0.0,0.0,0.0,0.0,0.0,-0.0,-0.0,-0.0,-0.0,-0.0,-0.0,-0.0,-0.0,-0.0,-0.0,-0.0,-0.0,-0.0,-0.0,-0.0,-0.0,-0.0,-0.0,-0.0,-0.0,-0.0,-0.0,-0.0,-0.0,-0.0,-0.0,-0.0,-0.0,-0.0,0.0,0.0,0.0,0.0,0.0,0.0,0.0,0.0,0.0,0.0,0.0,0.0,0.0,-0.1264,-0.1355,-0.1373,-0.1393,-0.1404,-0.1404,-0.0877,-0.0352,0.0177,0.0,0.1156,0.1525,0.0,0.0,0.0,0.0,0.1621,0.1724,0.1531,0.1531,0.1724,0.153,0.1436,0.1525,0.1436,0.0,0.0,0.0,0.0,0.0,0.0,0.0,0.0,0.0,0.0,0.0,0.0,-0.1884,-0.2424,-0.2155,-0.2155,-0.2244,-0.2063,0.0,0.0,0.0,0.0,0.0,0.0,0.0,0.0,0.0,0.0,0.0,0.0,0.0,0.0,0.0,0.0,0.0,0.0,0.0,0.0,0.0,0.0,0.0,0.0,0.0,0.0,0.0,0.0,0.0,0.0,0.0,0.0,-0.0,-0.0,-0.0,-0.0,-0.0,-0.0,-0.0,-0.0,-0.0,-0.0,-0.0,-0.0,-0.0,-0.0,-0.0,-0.0,-0.0,-0.0,-0.0,-0.0,-0.0,-0.0,-0.0,-0.0,-0.0,-0.0,-0.0,-0.0,0.0,0.0,0.0,0.0,0.0,0.0,0.0,0.0,0.0,0.0,0.0,0.0,0.0,0.0,-0.1299,-0.114,-0.1156,-0.1077,-0.0896,-0.0807,-0.0448,0.0179,0.0628,0.0986,0.1436,0.1436,0.0,0.0,0.0,0.0,0.0,0.0,0.1525,0.1615,0.1436,0.1436,0.0,0.0,0.0,0.1436,0.0,0.0,0.1347,0.0,0.0,0.0,0.0,0.0,0.0,0.0,0.0,0.0,-0.2424,-0.2513,-0.2513,-0.2334,0.0,0.0,0.0,0.0,0.0,0.0,0.0,0.0,0.0,0.0,0.0,0.0,0.0,0.0,0.0,0.0,0.0,0.0,0.0,0.0,0.0,0.0,0.0,0.0,0.0,0.0,0.0,0.0,0.0,0.0,0.0,0.0,-0.0,-0.0,-0.0,-0.0,-0.0,-0.0,-0.0,-0.0,-0.0,-0.0,-0.0,-0.0,-0.0,-0.0,-0.0,-0.0,-0.0,-0.0,-0.0,-0.0,-0.0,-0.0,-0.0,-0.0,-0.0,-0.0,-0.0,-0.0,0.0,0.0,0.0,0.0,0.0,0.0,0.0,0.0,0.0,0.0,0.0,0.0,0.0,0.0,0.0,-0.0808,-0.0718,-0.0538,-0.009,0.0359,0.0628,0.0628,0.1077,0.1346,0.1436,0.1346,0.0,0.0,0.0,0.0,0.0,0.0,0.1346,0.0,0.1346,0.1346,0.1346,0.0,0.1346,0.1346,0.0,0.1165,0.1257,0.0,0.0,0.0,0.0831,0.1294,0.0,-0.1898,0.0,0.0,0.0,0.0,0.0,-0.2877,0.0,0.0,0.0,0.0,0.0,0.0,0.0,0.0,0.0,0.0,0.0,0.0,0.0,0.0,0.0,0.0,0.0,0.0,0.0,0.0,0.0,0.0,0.0,0.0,0.0,0.0,0.0,0.0,0.0,0.0,0.0,-0.0,-0.0,-0.0,-0.0,-0.0,-0.0,-0.0,-0.0,-0.0,-0.0,-0.0,-0.0,-0.0,-0.0,-0.0,-0.0,-0.0,-0.0,-0.0,-0.0,-0.0,-0.0,-0.0,-0.0,-0.0,-0.0,-0.0,-0.0,-0.0,0.0,0.0,0.0,0.0,0.0,0.0,0.0,0.0,0.0,0.0,0.0,0.0,0.0,0.0,-0.1376,-0.1285,-0.1285,-0.1185,-0.0988,-0.0896,-0.0628,-0.0179,0.0179,0.0717,0.1346,0.0717,0.0,0.0,0.0,0.0,0.0,0.0,0.0,0.0,0.0717,0.0628,0.0359,0.0359,0.0,0.0,0.0265,0.0351,0.0,0.0,0.0,0.0,0.0,-0.1083,-0.0092,0.0,-0.1556,-0.3,0.0,0.0,-0.2992,0.0,0.0,0.0,-0.2433,0.0,0.0,0.0,0.0,0.0,0.0,0.0,0.0,0.0,0.0,0.0,0.0,0.0,0.0,0.0,0.0,0.0,0.0,0.0,0.0,0.0,0.0,0.0,0.0,0.0,0.0,0.0,-0.0,-0.0,-0.0,-0.0,-0.0,-0.0,-0.0,-0.0,-0.0,-0.0,-0.0,-0.0,-0.0,-0.0,-0.0,-0.0,-0.0,-0.0,-0.0,-0.0,-0.0,-0.0,-0.0,-0.0,-0.0,-0.0,-0.0,-0.0,-0.0,-0.0,0.0,0.0,0.0,0.0,0.0,0.0,0.0,0.0,0.0,0.0,0.0,0.0,0.0,0.0,-0.1393,-0.1217,-0.12,-0.1094,-0.0818,-0.0992,-0.0896,-0.0359,-0.0269,0.009,0.0807,0.0269,0.0,0.0,0.0,0.0,0.0,0.0,0.0,0.0,0.0,0.0,0.0,0.0,0.0,0.0,-0.0176,0.0,0.0,0.0782,-0.0088,0.0,0.0,0.0,-0.159,-0.1109,-0.1975,0.0,0.0,0.0,0.0,0.0,0.0,0.0,0.0,0.0,0.0,0.0,0.0,0.0,-0.3001,-0.2136,0.0,0.0,0.0,0.0,0.0,0.0,0.0,0.0,0.0,0.0,0.0,0.0,0.0,0.0,0.0,0.0,0.0,0.0,0.0,0.0,-0.0,-0.0,-0.0,-0.0,-0.0,-0.0,-0.0,-0.0,-0.0,-0.0,-0.0,-0.0,-0.0,-0.0,-0.0,-0.0,-0.0,-0.0,-0.0,-0.0,-0.0,-0.0,-0.0,-0.0,-0.0,-0.0,-0.0,-0.0,-0.0,-0.0,0.0,0.0,0.0,0.0,0.0,0.0,0.0,0.0,0.0,0.0,0.0,0.0,0.0,0.0,0.0,-0.1051,-0.1018,-0.0821,-0.037,-0.0729,-0.0721,-0.036,-0.072,-0.072,-0.018,-0.0269,0.0,0.0,0.0,0.0,0.0,0.0,0.0,0.0,0.0,0.0,0.0,0.0,0.0,-0.1343,-0.0528,-0.0177,0.0,0.0,-0.0818,0.0,-0.2836,-0.2864,-0.2874,-0.2978,-0.3009,0.0,0.0,0.0,0.0,0.0,-0.2902,0.0,0.0,0.0,-0.2394,0.0,-0.2738,0.0,-0.3065,-0.3008,-0.2491,0.0,0.0,0.0,0.0,0.0,0.0,0.0,0.0,0.0,0.0,0.0,0.0,0.0,0.0,0.0,0.0,0.0,-0.0,-0.0,-0.0,-0.0,-0.0,-0.0,-0.0,-0.0,-0.0,-0.0,-0.0,-0.0,-0.0,-0.0,-0.0,-0.0,-0.0,-0.0,-0.0,-0.0,-0.0,-0.0,-0.0,-0.0,-0.0,-0.0,-0.0,-0.0,-0.0,-0.0,-0.0,-0.0,-0.1794,0.0,0.0,0.0,0.0,0.0,0.0,0.0,0.0,0.0,0.0,0.0,0.0,0.0,0.0,0.0,-0.2518,-0.2668,-0.2407,-0.2338,0.0,-0.2759,-0.2573,-0.2022,-0.1103,-0.1629,0.0,0.0,0.0,0.0,0.0,0.0,0.0,0.0,0.0,0.0,0.0,0.0,0.0,-0.1436,-0.1519,0.0,-0.0538,-0.0,-0.0182,-0.0648,-0.065,-0.0665,-0.0783,-0.1588,-0.1387,-0.0983,0.0,0.0,0.0,-0.3142,0.0,0.0,0.0,0.0,0.0,0.0,0.0,0.0,-0.3052,-0.263,-0.2136,0.0,0.0,0.0,0.0,0.0,0.0,0.0,0.0,0.0,0.0,0.0,0.0,0.0,0.0,0.0,0.0,0.0,-0.0,-0.0,-0.0,-0.0,-0.0,-0.0,-0.0,-0.0,-0.0,-0.0,-0.0,-0.0,-0.0,-0.0,-0.0,-0.0,-0.0,-0.0,-0.0,-0.0,-0.0,-0.0,-0.0,-0.0,-0.0,-0.0,-0.0,-0.0,-0.0,-0.0,-0.0,-0.0,-0.2063,0.0,0.0,0.0,0.0,0.0,0.0,0.0,0.0,0.0,0.0,0.0,0.0,0.0,0.0,0.0,-0.3031,-0.3178,-0.3147,-0.3236,0.0,0.0,-0.3377,-0.3003,-0.2253,0.0,0.0,0.0,0.0,0.0,0.0,0.0,0.0,0.0,0.0,0.0,0.0,0.0,-0.1494,-0.1479,-0.1647,0.0,-0.1002,-0.0273,-0.0,-0.0,-0.0,-0.0,-0.01,-0.0604,-0.0813,0.0,0.0,-0.247,-0.3343,0.0,-0.2904,-0.3218,0.0,0.0,0.0,-0.2943,0.0,0.0,0.0,-0.2786,-0.2573,0.0,0.0,0.0,0.0,0.0,0.0,0.0,0.0,0.0,0.0,0.0,0.0,0.0,0.0,0.0,0.0,0.0,-0.0,-0.0,-0.0,-0.0,-0.0,-0.0,-0.0,-0.0,-0.0,-0.0,-0.0,-0.0,-0.0,-0.0,-0.0,-0.0,-0.0,-0.0,-0.0,-0.0,-0.0,-0.0,-0.0,-0.0,-0.0,-0.0,-0.0,-0.0,-0.0,-0.0,-0.0,-0.0,-0.2424,0.0,0.0,0.0,0.0,0.0,0.0,0.0,0.0,0.0,0.0,0.0,0.0,0.0,0.0,0.0,0.0,-0.3409,0.0,0.0,0.0,0.0,0.0,-0.3728,-0.3242,-0.3003,0.0,0.0,0.0,0.0,0.0,0.0,0.0,0.0,0.0,0.0,0.0,0.0,0.0,-0.1525,0.0,-0.141,-0.1312,-0.0567,-0.0191,-0.0,-0.0,-0.0,-0.0102,-0.051,-0.1353,-0.2014,-0.103,-0.1682,0.0,0.0,0.0,0.0,0.0,0.0,0.0,0.0,0.0,-0.2944,0.0,0.0,0.0,0.0,0.0,0.0,0.0,0.0,0.0,0.0,0.0,0.0,0.0,0.0,0.0,0.0,0.0,0.0,0.0,0.0,-0.0202,-0.0,-0.0,-0.0,-0.0,-0.0,-0.0,-0.0,-0.0,-0.0,-0.0,-0.0,-0.0,-0.0,-0.0,-0.0,-0.0,-0.0,-0.0,-0.0,-0.0,-0.0,-0.0,-0.0,-0.0,-0.0,-0.0,-0.0,-0.0,-0.0,-0.0,-0.0,-0.315,-0.3095,0.0,0.0,0.0,0.0,0.0,0.0,0.0,0.0,0.0,0.0,0.0,0.0,0.0,0.0,0.0,0.0,-0.3791,0.0,0.0,0.0,0.0,0.0,-0.3728,-0.2761,-0.2092,0.0,0.0,0.0,0.0,0.0,0.0,0.0,-0.1479,0.0,0.0,0.0,-0.1525,0.0,-0.1581,-0.1585,0.0,-0.1416,-0.0813,-0.0,-0.0,-0.0,-0.0311,0.0,-0.3295,-0.3409,0.0,-0.1914,-0.0747,-0.2653,0.0,0.0,0.0,0.0,0.0,0.0,-0.3287,0.0,0.0,0.0,-0.3283,-0.3224,0.0,0.0,0.0,0.0,0.0,0.0,0.0,0.0,0.0,0.0,0.0,0.0,0.0,0.0,0.0,0.0,0.0,-0.0101,-0.0,-0.0,-0.0,-0.0,-0.0,-0.0,-0.0,-0.0,-0.0,-0.0,-0.0,-0.0,-0.0,-0.0,-0.0,-0.0,-0.0,-0.0,-0.0,-0.0,-0.0,-0.0,-0.0,-0.0,-0.0,-0.0,-0.0,-0.0,-0.0,-0.0,-0.3585,-0.3341,0.0,0.0,0.0,0.0,0.0,0.0,0.0,0.0,0.0,0.0,0.0,0.0,0.0,0.0,0.0,-0.3966,0.0,0.0,0.0,0.0,0.0,0.0,0.0,-0.3412,-0.3101,0.0,-0.2187,0.0,0.0,0.0,0.0,0.0,-0.1525,0.0,-0.1554,0.0,0.0,0.0,0.0,0.0,0.0,-0.2459,-0.1433,-0.0,-0.0,-0.0,-0.0106,0.0,-0.2469,0.0,0.0,0.0,0.0,0.0,0.0,0.0,0.0,0.0,0.0,0.0,0.0,0.0,-0.3382,0.0,-0.3368,0.0,0.0,0.0,0.0,0.0,0.0,0.0,0.0,0.0,0.0,0.0,0.0,0.0,0.0,0.0,0.0,0.0,0.0,0.0,0.0,-0.0,-0.0,-0.0,-0.0,-0.0,-0.0,-0.0,-0.0,-0.0,-0.0,-0.0,-0.0,-0.0,-0.0,-0.0,-0.0,-0.0,-0.0,-0.0,-0.0,-0.0,-0.0,-0.0,-0.0,-0.0,-0.0,-0.0,-0.0,-0.0,-0.4065,-0.3708,0.0,0.0,0.0,0.0,0.0,0.0,0.0,0.0,0.0,0.0,-0.3892,-0.3255,0.0,0.0,0.0,-0.2607,0.0,0.0,-0.3824,0.0,0.0,0.0,0.0,0.0,-0.3654,0.0,0.0,0.0,0.0,0.0,0.0,0.0,0.0,-0.1773,-0.1784,0.0,0.0,-0.2079,-0.127,-0.1812,-0.3085,-0.3112,-0.1862,-0.0,-0.0,-0.0,-0.0,-0.0,-0.12,0.0,-0.3371,0.0,0.0,0.0,0.0,0.0,-0.3463,0.0,0.0,0.0,0.0,0.0,0.0,0.0,0.0,0.0,0.0,0.0,0.0,0.0,0.0,0.0,0.0,0.0,0.0,0.0,0.0,0.0,0.0,0.0,0.0,0.0,0.0,0.0,-0.0709,-0.0303,-0.0,-0.0,-0.0,-0.0,-0.0,-0.0,-0.0,-0.0,-0.0,-0.0,-0.0,-0.0,-0.0,-0.0,-0.0,-0.0,-0.0,-0.0,-0.0,-0.0,-0.0,-0.0,-0.0,-0.0,-0.0,-0.0,-0.0,-0.0,-0.47,-0.4704,0.0,0.0,0.0,0.0,0.0,0.0,0.0,0.0,0.0,0.0,0.0,0.0,0.0,0.0,0.0,-0.0116,-0.012,0.0,-0.3877,0.0,0.0,-0.4303,0.0,0.0,0.0,0.0,0.0,0.0,0.0,0.0,0.0,-0.1963,0.0,-0.2183,-0.2223,-0.2326,-0.2043,-0.1665,-0.159,-0.2348,-0.3526,0.0,-0.1917,-0.0,-0.0,0.0,0.0,-0.0,-0.0,0.0,0.0,0.0,0.0,0.0,0.0,0.0,0.0,0.0,0.0,-0.3583,0.0,0.0,0.0,0.0,-0.3477,0.0,0.0,0.0,0.0,-0.3412,-0.3431,-0.3485,-0.3493,0.0,0.0,0.0,0.0,0.0,0.0,0.0,0.0,0.0,0.0,-0.0104,-0.1021,-0.1112,-0.0101,-0.0,-0.0,-0.0,-0.0,-0.0,-0.0,-0.0,-0.0,-0.0,-0.0,-0.0,-0.0,-0.0,-0.0,-0.0,-0.0,-0.0,-0.0,-0.0,-0.0,-0.0,-0.0,-0.0,-0.0,-0.0,-0.0,-0.0,-0.4871,0.0,0.0,0.0,0.0,0.0,0.0,-0.4805,0.0,0.0,0.0,0.0,0.0,0.0,-0.1825,0.0,0.0,-0.0841,-0.0,-0.1374,0.0,0.0,0.0,-0.3754,0.0,0.0,0.0,0.0,0.0,0.0,0.0,0.0,0.0,-0.2384,0.0,-0.2778,0.0,0.0,0.0,0.0,0.0,-0.3314,-0.4529,0.0,0.0,-0.0109,-0.0885,-0.1224,0.0,-0.0784,-0.1009,-0.157,-0.1795,-0.2468,-0.3143,-0.2919,-0.2582,0.0,0.0,0.0,-0.3594,-0.3591,0.0,0.0,0.0,0.0,0.0,0.0,0.0,0.0,-0.3529,-0.3529,-0.3534,-0.3553,-0.3556,-0.3542,0.0,0.0,0.0,0.0,0.0,0.0,0.0,0.0,0.0,-0.0102,-0.0304,-0.0404,0.0,-0.0,-0.0,-0.0,-0.0,-0.0,-0.0,-0.0,-0.0,-0.0,-0.0,-0.0,-0.0,-0.0,-0.0,-0.0,-0.0,-0.0,-0.0,-0.0,-0.0,-0.0,-0.0,-0.0,-0.0,-0.0,-0.0,-0.0,-0.501,0.0,0.0,0.0,0.0,0.0,0.0,0.0,0.0,0.0,-0.4291,0.0,-0.4351,0.0,-0.2768,0.0,-0.1391,-0.0997,-0.0721,-0.0593,0.0,-0.3687,-0.3285,0.0,0.0,0.0,0.0,0.0,0.0,-0.2318,0.0,0.0,0.0,0.0,0.0,0.0,0.0,0.0,-0.0866,0.0,0.0,-0.2919,0.0,0.0,-0.0884,-0.0442,0.0,-0.157,-0.1795,-0.1346,-0.1683,-0.202,-0.1458,-0.1795,-0.2468,-0.202,-0.1795,-0.1908,-0.2694,-0.3031,0.0,-0.3031,-0.3258,0.0,-0.3616,0.0,-0.3627,0.0,0.0,0.0,-0.3621,-0.3602,-0.3589,-0.3589,-0.3589,-0.3572,0.0,-0.3499,-0.327,0.0,0.0,0.0,0.0,0.0,-0.1457,-0.0715,-0.0203,-0.0,0.0,0.0,-0.0,-0.0,-0.0,-0.0,-0.0,-0.0,-0.0,-0.0,-0.0,-0.0,-0.0,-0.0,-0.0,-0.0,-0.0,-0.0,-0.0,-0.0,-0.0,-0.0,-0.0,-0.0,-0.0,-0.0,-0.0,-0.0,0.0,0.0,0.0,0.0,-0.4986,0.0,0.0,0.0,-0.4634,0.0,-0.4613,-0.3733,-0.2655,-0.4106,-0.4296,-0.2109,-0.0792,0.0,-0.1616,-0.0742,0.0,0.0,-0.2159,-0.2138,-0.1688,0.0,0.0,0.0,0.0,0.0,0.0,0.0,0.0,0.0,-0.3734,0.0,-0.3532,-0.2283,-0.1423,-0.0986,-0.0892,-0.1346,-0.202,-0.3143,-0.2468,-0.1009,-0.1009,-0.1346,-0.1795,-0.1797,-0.1797,-0.1797,-0.18,-0.18,-0.1687,-0.1124,-0.1349,-0.1909,-0.2472,-0.2584,-0.2472,-0.1909,-0.2584,0.0,0.0,0.0,-0.3695,0.0,0.0,0.0,0.0,-0.3522,-0.3591,-0.3594,-0.3591,-0.3586,-0.3586,-0.3586,-0.3474,-0.3026,-0.2762,0.0,0.0,-0.1937,-0.1692,-0.1766,-0.0714,-0.0101,0.0,0.0,-0.0,-0.0,-0.0,-0.0,-0.0,-0.0,-0.0,-0.0,-0.0,-0.0,-0.0,-0.0,-0.0,-0.0,-0.0,-0.0,-0.0,-0.0,-0.0,-0.0,-0.0,-0.0,-0.0,-0.0,-0.0,-0.0,-0.5198,-0.521,-0.5202,0.0,-0.5173,-0.4974,0.0,0.0,0.0,0.0,-0.316,-0.1954,-0.0794,-0.1063,-0.12,-0.0536,-0.0134,0.0,0.0,0.0,0.0,-0.0494,-0.0972,-0.1078,-0.0473,-0.1525,0.0,-0.327,0.0,0.0,-0.1771,0.0,0.0,0.0,0.0,0.0,-0.4768,-0.3337,-0.2227,-0.1562,-0.1567,-0.2244,0.0,0.0,-0.2356,-0.2356,-0.1795,-0.1683,-0.1798,-0.1821,-0.1828,-0.1832,-0.1855,-0.1862,-0.1862,-0.1746,-0.1731,-0.1828,-0.1944,-0.1371,-0.0686,-0.0457,-0.0686,-0.1148,0.0,0.0,0.0,0.0,0.0,0.0,0.0,0.0,-0.2956,-0.3485,-0.3362,-0.3138,-0.2917,-0.2917,0.0,-0.2242,0.0,0.0,0.0,-0.1604,-0.1264,-0.1633,-0.1317,-0.0808,0.0,0.0,0.0,-0.0,-0.0,-0.0,-0.0,-0.0,-0.0,-0.0,-0.0,-0.0,-0.0,-0.0,-0.0,-0.0,-0.0,-0.0,-0.0,-0.0,-0.0,-0.0,-0.0,-0.0,-0.0,-0.0,-0.0,-0.0,-0.5296,0.0,0.0,-0.4977,0.0,0.0,-0.48,0.0,0.0,-0.3725,-0.2433,0.0,-0.0132,-0.0,-0.0,-0.0,-0.0,0.0,0.0,0.0,0.0,-0.0773,-0.0635,-0.0375,-0.0,-0.0482,0.0,-0.2528,0.0,0.0,-0.1794,0.0,0.0,0.0,0.0,-0.4797,0.0,-0.3627,-0.2832,-0.2379,-0.1912,0.0,0.0,-0.1696,-0.1701,-0.2044,-0.1829,-0.1825,-0.182,-0.185,-0.1861,-0.1864,-0.188,-0.1885,-0.1885,-0.1885,-0.1873,-0.1861,-0.1859,-0.1279,-0.0697,-0.0116,-0.0,-0.0234,-0.083,-0.1656,-0.2483,0.0,-0.2765,-0.226,0.0,0.0,0.0,-0.3524,-0.3493,-0.325,0.0,0.0,0.0,0.0,-0.2225,0.0,0.0,-0.1382,-0.1255,-0.1229,-0.1534,0.0,0.0,0.0,0.0,-0.0,-0.0,-0.0,-0.0,-0.0,-0.0,-0.0,-0.0,-0.0,-0.0,-0.0,-0.0,-0.0,-0.0,-0.0,-0.0,-0.0,-0.0,-0.0,-0.0,-0.0,-0.0,-0.0,-0.0,-0.0,0.0,0.0,0.0,0.0,0.0,0.0,0.0,-0.399,0.0,-0.3295,0.0,-0.0915,-0.0131,-0.0,-0.0,-0.0,0.0,-0.0,-0.0,-0.0,-0.0409,-0.1459,-0.0524,-0.0,-0.0,-0.0,-0.0589,0.0,0.0,0.0,0.0,0.0,0.0,0.0,0.0,0.0,0.0,-0.3446,-0.2987,0.0,-0.215,-0.1466,-0.1018,-0.0918,-0.0923,-0.0925,-0.1528,-0.1755,-0.1851,-0.1881,-0.1892,-0.1774,-0.1896,-0.1898,-0.1779,-0.1783,-0.1782,-0.178,-0.1783,-0.1784,-0.1546,-0.0357,-0.0,-0.0,-0.0,-0.0,-0.0612,-0.2896,-0.2479,-0.2076,0.0,0.0,0.0,0.0,0.0,0.0,0.0,0.0,0.0,0.0,0.0,0.0,0.0,0.0,0.0,0.0,0.0,0.0,0.0,0.0,0.0,-0.0,-0.0,0.0,-0.0,0.0,-0.0,-0.0,-0.0,-0.0,-0.0,-0.0,-0.0,-0.0,-0.0,-0.0,-0.0,-0.0,-0.0,-0.0,-0.0,-0.0,-0.0,-0.0,0.0131,0.0265,0.0,0.0,0.0,0.0,0.0,-0.3432,-0.3171,-0.4199,-0.4283,-0.2399,-0.1925,-0.1261,-0.0138,-0.0,-0.0,-0.0,-0.0,0.0,0.0,0.0,0.0,-0.0273,-0.0136,-0.0,-0.0,-0.0,-0.0369,0.0,0.0,-0.1857,-0.1832,-0.2403,0.0,0.0,0.0,0.0,-0.3217,-0.2413,0.0,-0.1379,-0.1719,-0.1732,-0.1637,-0.1055,-0.0939,-0.0941,-0.1553,-0.1784,-0.1883,-0.1913,-0.1562,-0.1204,-0.183,-0.1593,-0.1105,-0.112,-0.1114,-0.1229,-0.1866,-0.1874,-0.1498,-0.025,-0.0,-0.0,-0.0,-0.0,-0.0126,-0.0641,-0.0512,-0.0763,-0.2015,0.0,0.0,0.0,0.0,0.0,0.0,0.0,0.0,0.0,0.0,-0.1322,0.0,0.0,0.0,0.0,0.0,0.0,0.0,0.0,0.0,0.0,-0.0,0.0,0.0,0.0,-0.0,-0.0,-0.0,-0.0,-0.0,-0.0,-0.0,-0.0,-0.0,-0.0,-0.0,-0.0,-0.0,-0.0,-0.0,-0.0,-0.0,-0.0,0.0795,0.161,0.0,0.0,0.0,0.0,0.0,0.0,0.0,-0.2764,0.0,-0.1093,-0.1376,-0.1522,-0.0962,-0.0417,-0.0,-0.0,-0.0,-0.0,-0.0,-0.0,-0.0,-0.0,-0.0,0.0,-0.0,-0.0,-0.0374,-0.0965,0.0,-0.1879,-0.1864,-0.2096,-0.2435,0.0,0.0,-0.3957,0.0,0.0,0.0,-0.3379,-0.1631,-0.0819,-0.0826,-0.0594,-0.0477,-0.0478,-0.0729,-0.1094,-0.1451,-0.1828,-0.1465,-0.098,-0.0995,-0.1243,-0.1363,-0.0629,-0.0503,-0.0501,-0.0883,-0.0889,-0.0767,-0.0128,-0.0,-0.0,-0.0,-0.0,-0.0,-0.0,-0.0,-0.0258,-0.0894,-0.2242,0.0,0.0,0.0,0.0,0.0,0.0,0.104,0.0,0.0,0.0,0.0,0.0,0.0,0.0,0.0,0.0,0.0,0.0,0.0,0.0,0.0,0.0,0.0,0.0,0.0,-0.0,-0.0,-0.0,-0.0,-0.0,-0.0,-0.0,-0.0,-0.0,-0.0,-0.0,-0.0,-0.0,-0.0,-0.0,0.0131,0.092,0.1596,0.2154,0.0,-0.3579,0.0,0.0,-0.3103,0.0,-0.1918,-0.1138,-0.0577,-0.0,-0.0828,-0.137,-0.137,-0.0559,-0.0,-0.0,-0.0,-0.0,-0.0,-0.0,-0.0,-0.0,-0.0,-0.0,-0.0,-0.0,-0.0249,0.0,0.0,-0.201,-0.1885,-0.1892,-0.2127,0.0,0.0,0.0,0.0,0.0,-0.4861,-0.4384,-0.1302,-0.0,-0.0,-0.0,-0.0,-0.0,-0.0,-0.0247,-0.0741,-0.1358,-0.1235,-0.0742,-0.0125,-0.0748,-0.1363,-0.0252,-0.0,-0.0,-0.0,-0.0,-0.0,-0.0,-0.0,-0.0,-0.0,-0.0,-0.0,-0.0,-0.0,-0.0,-0.0,-0.1271,0.0,0.0,0.0,0.0,0.0,0.0,0.0,0.0,0.0,0.0,-0.1002,0.0,0.0,0.0,0.0,0.0,0.0,0.0,0.0,0.0,0.0,-0.0,-0.0,0.0,-0.0,-0.0,-0.0,-0.0,-0.0,-0.0,-0.0,-0.0,-0.0,-0.0,-0.0,-0.0,-0.0,-0.0,-0.0,0.0129,0.0659,0.1719,0.24,0.2827,0.0,0.0,0.0,0.0,0.0,0.0,0.0,-0.0854,-0.0,-0.0,-0.0145,-0.0145,-0.0145,-0.0,-0.0,-0.0,-0.0,-0.0,-0.0,-0.0,-0.0,-0.0,-0.0,-0.0,-0.0,-0.0,-0.0,0.0,0.0,-0.2032,-0.2005,-0.1914,-0.1911,0.0,0.0,0.0,0.0,-0.2274,-0.1686,-0.0481,-0.012,-0.0,-0.0,-0.0,-0.0,-0.0,-0.0,-0.0,-0.0123,-0.0123,-0.0123,-0.0123,-0.0,-0.0124,-0.0124,-0.0,-0.0,-0.0,-0.0,-0.0,-0.0,-0.0,-0.0,-0.0,-0.0,-0.0,-0.0,-0.0,-0.0,-0.0,-0.0,-0.0131,-0.1044,0.0,0.0,0.0,0.0,0.0,0.1792,0.626,0.0,0.0,0.1531,0.2184,0.0,0.0,0.0,0.0,0.0,0.0,0.0,-0.0107,0.0,-0.0,-0.0,-0.0,-0.0,-0.0,-0.0,-0.0,-0.0,-0.0,-0.0,-0.0,-0.0,-0.0,-0.0,-0.0,-0.0,-0.0,-0.0,0.0789,0.1981,0.214,0.3226,0.4708,0.0,0.0,0.0,0.0,0.0,0.0,0.0,-0.0723,-0.0,-0.0,-0.0,-0.0,-0.0,-0.0,-0.0,-0.0,-0.0,-0.0,-0.0,-0.0,-0.0,-0.0,-0.0,-0.0,-0.0,-0.0,-0.025,0.0,0.0,0.0,-0.1941,-0.1952,0.0,0.0,0.0,-0.1925,-0.1914,-0.1083,-0.0483,-0.0,-0.0,-0.0,-0.0,-0.0,-0.0,-0.0,-0.0,-0.0,-0.0,-0.0,-0.0,-0.0,-0.0,-0.0,-0.0,-0.0,-0.0,-0.0,-0.0,-0.0,-0.0,-0.0,-0.0,-0.0,-0.0,-0.0,-0.0,-0.0,-0.0,-0.0,-0.0,-0.0,-0.0391,-0.1437,0.0,0.0,0.0,0.0,0.0,0.707,0.0,0.6599,0.0,0.5214,0.4981,0.0,0.0,0.0,0.0,0.0,0.0,0.4226,0.0,-0.0,-0.0,-0.0,-0.0,-0.0,-0.0,-0.0,-0.0,-0.0,-0.0,-0.0,-0.0,-0.0,-0.0,-0.0,0.0519,0.1308,0.1315,0.2516,0.4139,0.3892,0.5111,0.6719,-0.1223,0.0,-0.1087,0.0,-0.1403,-0.1266,-0.1308,-0.058,-0.0,-0.0,-0.0,-0.0,-0.0,-0.0,-0.0,-0.0,-0.0,-0.0,-0.0,-0.0,-0.0,-0.0,-0.0,0.0,-0.0,-0.0,-0.025,-0.0736,-0.1109,0.0,0.0,0.0,0.0,0.0,-0.1949,-0.1819,-0.1328,-0.0364,-0.0,-0.0,-0.0,-0.0,-0.0,-0.0,-0.0,-0.0,-0.0,-0.0,-0.0,-0.0,-0.0,-0.0,-0.0,-0.0,-0.0,-0.0,-0.0,-0.0,-0.0,-0.0,-0.0,-0.0,-0.0,-0.0,-0.0,-0.0,-0.0,-0.0,-0.0,-0.0,-0.0,-0.0,-0.0,-0.0,0.0,0.0,0.0,0.5333,0.0,0.7225,0.7397,0.7263,0.7187,0.707,0.0,0.0,0.0,0.0,0.0,0.0,0.0,0.0,0.0,0.0,0.0,-0.0,-0.0,-0.0,-0.0,-0.0,-0.0,-0.0,-0.0,-0.0,-0.0,0.0257,0.065,0.0653,0.1578,0.3183,0.3316,0.4533,0.6053,0.5915,0.6853,0.8189,0.014,-0.0561,-0.0848,-0.0145,-0.0,-0.0,-0.0,-0.0,-0.0,-0.0,-0.0,-0.0,-0.0,-0.0,-0.0,-0.0,-0.0,-0.0,-0.0,-0.0,-0.0,0.0,0.0,-0.0,-0.0,-0.0,-0.0,-0.0,0.0,0.0,-0.1932,0.0,-0.1348,-0.2054,-0.1963,-0.1225,-0.0,-0.0,-0.0,-0.0,-0.0,-0.0,-0.0,-0.0,-0.0,-0.0,-0.0,-0.0,-0.0,-0.0,-0.0,-0.0,-0.0,-0.0,-0.0,-0.0,-0.0,-0.0,-0.0,-0.0,-0.0,-0.0,-0.0,-0.0,-0.0,-0.0,-0.0,-0.0,-0.0,-0.0,-0.0,-0.0,-0.0,-0.0,0.0,0.0,0.0,0.4576,0.0,0.7209,0.7417,0.7459,0.7203,0.0,0.0,0.0,0.0,0.0,0.0,0.0,0.0,0.3916,0.6032,0.0,-0.0,-0.0,-0.0,-0.0,-0.0,-0.0,-0.0,-0.0,-0.0,-0.0,-0.0,0.079,0.2112,0.2142,0.3497,0.5379,0.6057,0.6996,0.7932,0.7799,0.8189,0.8573,0.1556,0.0996,0.0429,-0.0,-0.0,-0.0,-0.0,-0.0,-0.0,-0.0,-0.0,-0.0,-0.0,-0.0,-0.0,0.0,-0.0,-0.0,0.0,-0.0,-0.0,-0.0,-0.0,-0.0,-0.0,-0.0,-0.0,-0.0,0.0,0.0,0.0,-0.1725,-0.1355,-0.0613,-0.0616,-0.0369,-0.0,-0.0,-0.0,-0.0,-0.0,-0.0,-0.0,-0.0,-0.0,-0.0,-0.0,-0.0,-0.0,-0.0,-0.0,-0.0,-0.0,-0.0,-0.0,-0.0,-0.0,-0.0,-0.0,-0.0,-0.0,-0.0,-0.0,-0.0,-0.0,-0.0,-0.0,-0.0,-0.0,-0.0,-0.0,-0.0,-0.0,-0.0,-0.0,0.0,-0.0,0.0,0.3891,0.7461,0.6607,0.5806,0.0,0.6645,0.0,0.0,0.0,0.0,0.0,0.0,0.0,0.0,0.7189,0.0,0.2524,0.0852,-0.0,-0.0,-0.0,-0.0,-0.0,-0.0,0.0519,0.1441,0.1447,0.265,0.4411,0.4836,0.5919,0.7125,0.7397,0.7794,0.8318,0.8318,0.9117,1.006,0.2283,0.1868,0.1443,0.0869,0.0573,0.0285,-0.0,-0.0,-0.0,-0.0,-0.0,-0.0,-0.0,-0.0,0.0,-0.0,-0.0,-0.0,-0.0,-0.0,-0.0,-0.0,-0.0,-0.0,-0.0,-0.0,0.0,-0.0,-0.0,-0.037,-0.1235,-0.1235,-0.0741,-0.0,-0.0,-0.0,-0.0,-0.0,-0.0,-0.0,-0.0,-0.0,-0.0,-0.0,-0.0,-0.0,-0.0,-0.0,-0.0,-0.0,-0.0,-0.0,-0.0,-0.0,-0.0,-0.0,-0.0,-0.0,-0.0,-0.0,-0.0,-0.0,-0.0,-0.0,-0.0,-0.0,-0.0,-0.0,-0.0,-0.0,-0.0,-0.0,-0.0,-0.0,-0.0,-0.0,-0.0,0.0,0.202,0.0,0.0,0.0,0.0,0.6813,0.7137,0.0,0.0,0.0,0.0,0.0,0.0,0.7481,0.7806,0.0,0.5218,0.2695,0.0989,-0.0,0.2161,0.2064,-0.0,0.1438,0.3292,0.5321,0.4248,0.4799,0.6321,0.6728,0.7397,0.8189,0.8189,0.8717,0.9377,0.9377,0.9915,1.0744,0.2285,0.2305,0.0,0.0,0.1696,0.0,0.0281,-0.0,-0.0,-0.0,-0.0,-0.0,-0.0,-0.0,-0.0,-0.0,0.0,0.0,0.0,-0.0,-0.0,-0.0,-0.0,-0.0,-0.0,-0.0,-0.0,-0.0,-0.0,-0.0,-0.0,-0.0,-0.0,-0.0,-0.0,-0.0,-0.0,-0.0,-0.0,-0.0,-0.0,-0.0,-0.0,-0.0,-0.0,-0.0,-0.0,-0.0,-0.0,-0.0,-0.0,-0.0,-0.0,-0.0,-0.0,-0.0,-0.0,-0.0,-0.0,-0.0,-0.0,-0.0,-0.0,-0.0,-0.0,-0.0,-0.0,-0.0,-0.0,-0.0,-0.0,-0.0,-0.0,-0.0,-0.0,-0.0,-0.0,0.0255,0.2409,0.0,0.0,0.0,0.0,0.76,0.7546,0.0,0.0,0.0,0.0,0.0,0.6626,0.7703,0.7834,0.791,0.791,0.5432,0.2861,0.0379,0.5862,0.5679,0.0792,0.4001,0.7263,1.0424,0.767,0.7116,0.7932,0.7932,0.8323,0.8706,0.8706,0.951,1.0724,1.0731,1.0738,1.0758,0.0,0.0,0.2237,0.2253,0.2091,0.1941,0.1681,0.0685,-0.0,-0.0,-0.0,-0.0,-0.0,-0.0,-0.0,-0.0,-0.0,-0.0,-0.0,-0.0,-0.0,-0.0,-0.0,-0.0,-0.0,-0.0,-0.0,-0.0,-0.0,-0.0,-0.0,-0.0,-0.0,-0.0,-0.0,-0.0,-0.0,-0.0,-0.0,-0.0,-0.0,-0.0,-0.0,-0.0,-0.0,-0.0,-0.0,-0.0,-0.0,-0.0,-0.0,-0.0,-0.0,-0.0,-0.0,-0.0,-0.0,-0.0,-0.0,-0.0,-0.0,-0.0,-0.0,-0.0,-0.0,-0.0,-0.0,-0.0,-0.0,-0.0,-0.0,-0.0,-0.0,-0.0,-0.0,-0.0,-0.0,0.3449,0.6536,0.0,0.7854,0.7894,0.7872,0.7763,0.7365,0.0,0.0,0.0,0.0,0.6476,0.6822,0.7703,0.7905,0.8019,0.803,0.7481,0.6157,0.4164,0.5508,0.6621,0.7365,0.603,0.6581,0.8488,0.7799,0.7922,0.8446,0.8446,0.9111,1.018,1.018,1.0452,1.0731,1.0853,1.0894,1.0928,0.2196,0.2211,0.2222,0.2223,0.2211,0.2202,0.2203,0.1496,0.0945,0.0544,0.027,-0.0,-0.0,-0.0,-0.0,-0.0,-0.0,-0.0,-0.0,-0.0,-0.0,-0.0,-0.0,-0.0,-0.0,-0.0,-0.0,-0.0,-0.0,-0.0,-0.0,-0.0,-0.0,-0.0,-0.0,-0.0,-0.0,-0.0,-0.0,-0.0,-0.0,-0.0,-0.0,-0.0,-0.0,-0.0,-0.0,-0.0,-0.0,-0.0,-0.0,-0.0,-0.0,-0.0,-0.0,-0.0,-0.0,-0.0,-0.0,-0.0,-0.0,-0.0,-0.0,-0.0,-0.0,-0.0,-0.0,-0.0,-0.0,-0.0,-0.0,-0.0,-0.0,-0.0,-0.0628,0.0127,0.3186,0.5013,0.6554,0.7728,0.7958,0.79,0.7899,0.7823,0.7564,0.7133,0.6958,0.0,0.7261,0.7434,0.7531,0.7785,0.7959,0.8057,0.8062,0.837,0.8096,0.7098,0.7412,0.8413,1.0117,0.8328,0.8184,0.914,0.9134,0.9424,0.96,0.954,1.0085,1.0819,1.0751,1.0765,1.0833,1.0921,1.0989,1.1077,0.2193,0.2214,0.2223,0.2198,0.2193,0.2184,0.2158,0.2155,0.2019,0.1346,0.0673,0.0269,0.0135,0.0135,0.0135,0.0135,0.0135,0.0135,-0.0,-0.0,-0.0,-0.0,-0.0,-0.0,-0.0,-0.0,-0.0,-0.0,-0.0,-0.0,-0.0,-0.0,-0.0,-0.0,-0.0,-0.0,-0.0,-0.0,-0.0,-0.0,-0.0,-0.0,-0.0,-0.0,-0.0,-0.0,-0.0,-0.0,-0.0,-0.0,-0.0,-0.0,-0.0,-0.0,-0.0,-0.0,-0.0,-0.0,-0.0,-0.0,-0.0,-0.0,-0.0,-0.0,-0.0,-0.0,-0.0,-0.0,-0.0,-0.0,-0.0,-0.0,0.0126,0.0253,-0.0253,0.114,0.643,0.0,0.5369,0.7687,0.7937,0.7905,0.791,0.8038,0.8049,0.8049,0.8049,0.8295,0.8547,0.8647,0.8528,0.8172,0.8296,0.8369,0.8391,0.8869,0.924,0.9228,0.9751,1.0232,1.0658,1.0345,1.0465,1.0744,1.0731,1.0806,1.0934,1.0785,1.0812,1.0934,1.0778,1.0812,1.0948,1.0975,1.107,1.1219,0.2162,0.2165,0.2168,0.2162,0.2162,0.2161,0.2155,0.2155,0.2154,0.2019,0.1885,0.1616,0.0943,0.0943,0.0943,0.0943,0.0943,0.0673,-0.0,-0.0,-0.0,-0.0,-0.0,-0.0,-0.0,-0.0,-0.0,-0.0,-0.0,-0.0,-0.0,-0.0,-0.0,-0.0,-0.0,-0.0,-0.0,-0.0,-0.0,-0.0,-0.0,-0.0,-0.0,-0.0,-0.0,-0.0,-0.0,-0.0,-0.0,-0.0,-0.0,-0.0,-0.0,-0.0,-0.0,-0.0,-0.0,-0.0,-0.0,-0.0,-0.0,-0.0,-0.0,-0.0,-0.0,-0.0,-0.0,-0.0,-0.0,-0.0,-0.0,-0.0,0.0379,0.1643,0.4422,0.569,0.392,0.0,0.7431,0.7819,0.8002,0.8051,0.803,0.8369,0.8684,0.8684,0.8937,0.9064,0.9191,0.9209,0.9209,0.9064,0.919,0.9317,0.9438,0.9612,0.9763,1.0028,1.0187,1.0332,1.0731,1.0591,1.0591,1.0724,1.0724,1.0806,1.0934,1.0785,1.0812,1.0934,1.0778,1.0812,1.0962,1.1084,1.1226,1.1375,0.2155,0.2155,0.2155,0.2155,0.2155,0.2155,0.2155,0.2155,0.2155,0.2155,0.2155,0.2019,0.175,0.175,0.175,0.175,0.175,0.1481,0.1212,0.0401,-0.0,-0.0,-0.0,-0.0,-0.0,-0.0,-0.0,-0.0,-0.0,-0.0,-0.0,-0.0,-0.0,-0.0,-0.0,-0.0,-0.0,-0.0,-0.0,-0.0,-0.0,-0.0,-0.0,-0.0,-0.0,-0.0,-0.0,-0.0,-0.0,-0.0,-0.0,-0.0,-0.0,-0.0,-0.0,-0.0,-0.0,-0.0,-0.0,-0.0,-0.0,-0.0,-0.0,-0.0,-0.0,-0.0,-0.0,-0.0,-0.0,-0.0,-0.0,0.2284,0.456,0.5496,0.5843,0.0,0.5732,0.637,0.7219,0.8116,0.858,0.8781,0.8781,0.8961,0.9124,0.9124,0.9252,0.9379,0.9506,0.9575,0.9748,0.9999,0.9682,0.9652,0.9927,0.9927,1.0193,1.0459,1.0459,1.0585,1.0717,1.0717,1.0717,1.0717,1.0717,1.0853,1.105,1.09,1.0982,1.1172,1.1016,1.105,1.1192,1.126,1.1382,1.1525,0.2155,0.2155,0.2155,0.2155,0.2155,0.2289,0.2692,0.2423,0.2289,0.2692,0.2423,0.2155,0.2155,0.2155,0.2155,0.2155,0.2155,0.2155,0.2155,0.1196,0.0393,0.0258,0.0254,0.025,0.0247,0.0247,0.0123,-0.0,-0.0,-0.0,-0.0,-0.0,-0.0,-0.0,-0.0,-0.0,-0.0,-0.0,-0.0,-0.0,-0.0,-0.0,-0.0,-0.0,-0.0,-0.0,-0.0,-0.0,-0.0,-0.0,-0.0,-0.0,-0.0,-0.0,-0.0,-0.0,-0.0,-0.0,-0.0,-0.0,-0.0,-0.0,-0.0,-0.0,-0.0,-0.0,-0.0,-0.0,0.1059,0.1971,0.205,0.4721,0.7302,0.814,0.0,0.61,0.0,0.7326,0.7287,0.8603,0.9088,0.93,0.93,0.9453,0.9472,0.9472,0.9601,0.9729,0.9986,1.0097,1.0287,1.0541,1.0025,0.9946,1.0319,1.0326,1.0459,1.0717,1.0717,1.0738,1.0772,1.0738,1.0738,1.0772,1.0738,1.0887,1.1151,1.1009,1.1124,1.1375,1.1219,1.1253,1.1389,1.1389,1.1491,1.1619,0.2155,0.2155,0.2155,0.2155,0.2155,0.2692,0.3897,0.3094,0.2692,0.4031,0.2959,0.2155,0.2155,0.2155,0.2155,0.2155,0.2155,0.2155,0.2155,0.2125,0.1703,0.0903,0.0879,0.0866,0.0988,0.0988,0.0617,-0.0,-0.0,-0.0,-0.0,-0.0,-0.0,-0.0,-0.0,-0.0,-0.0,-0.0,-0.0,-0.0,-0.0,-0.0,-0.0,-0.0,-0.0,-0.0,-0.0,-0.0,-0.0,-0.0,-0.0,-0.0,-0.0,-0.0,-0.0,-0.0,-0.0,-0.0,-0.0,-0.0,-0.0,-0.0,-0.0,-0.0,-0.0,-0.0,-0.0,-0.0,0.4303,0.7927,0.7939,0.6043,0.5089,0.6717,0.0,0.0,0.7714,0.8481,0.9118,0.9239,0.9355,0.9441,0.9441,0.982,1.0161,1.0161,1.0426,1.0551,1.069,1.0697,1.0704,1.0704,1.0704,1.0578,1.0717,1.0717,1.0717,1.0717,1.0717,1.0792,1.0928,1.0785,1.0799,1.0921,1.0778,1.0887,1.1151,1.1009,1.1124,1.1375,1.1219,1.1253,1.1389,1.1389,1.1491,1.1619,0.483,0.483,0.483,0.483,0.483,0.4964,0.5499,0.5098,0.4964,0.5499,0.4434,0.3486,0.3455,0.2678,0.2147,0.2128,0.2144,0.2155,0.2155,0.2127,0.1957,0.1657,0.1624,0.1606,0.1606,0.1606,0.1482,0.1235,0.0864,0.0617,0.0617,0.0617,0.0617,0.0617,0.0617,0.0617,0.0617,0.0617,0.0617,0.0617,0.0617,0.0617,0.0617,0.0617,0.037,-0.0,0.0494,0.037,-0.0,-0.0,-0.0,-0.0,-0.0,-0.0,0.076,0.4263,0.5314,0.5062,0.3708,0.1708,0.0913,0.442,0.2682,0.0534,0.2281,0.4037,0.4849,0.309,0.4836,0.7102,0.9013,0.8437,0.8008,0.8756,0.0,0.916,0.8851,0.9374,0.9761,0.9761,1.0019,1.0241,1.0241,1.0426,1.0459,1.0459,1.0585,1.0717,1.0717,1.0717,1.0717,1.0717,1.0717,1.0717,1.0717,1.0717,1.0717,1.0724,1.0819,1.0894,1.0948,1.0887,1.0894,1.0941,1.0785,1.0887,1.1158,1.1104,1.126,1.1525,1.147,1.1484,1.1531,1.1531,1.1572,1.1619,0.6431,0.6431,0.6431,0.6431,0.6431,0.6564,0.6965,0.6698,0.6564,0.6965,0.5745,0.4926,0.4898,0.4126,0.3466,0.3446,0.3475,0.3495,0.3495,0.3053,0.2602,0.2023,0.1992,0.1977,0.1977,0.1977,0.1977,0.1977,0.1482,0.1358,0.1358,0.1358,0.1358,0.1358,0.1358,0.1358,0.1358,0.1358,0.1358,0.1358,0.1358,0.1358,0.1358,0.1358,0.0988,0.0617,0.0864,0.0867,0.0746,0.1491,0.1744,0.1504,0.0633,0.1019,0.2443,0.646,0.8191,0.8563,0.7089,0.5069,0.3985,0.6857,0.5248,0.336,0.4428,0.6866,0.8365,0.6451,0.6443,0.7498,0.945,0.9814,0.9783,1.0006,0.9812,0.9657,0.9837,1.0012,1.0176,1.0176,1.0524,1.0717,1.0717,1.0717,1.0717,1.0717,1.0717,1.0717,1.0717,1.0717,1.0717,1.0717,1.0717,1.0717,1.0717,1.0717,1.0717,1.0724,1.0873,1.0968,1.1016,1.1016,1.1016,1.1009,1.086,1.0934,1.1165,1.1165,1.1341,1.1619,1.1619,1.1619,1.1619,1.1619,1.1619,1.1619,0.6431,0.6431,0.6431,0.6431,0.6431,0.6965,0.844,0.7369,0.6969,0.844,0.7153,0.6205,0.6419,0.6225,0.6209,0.6423,0.6431,0.6431,0.6431,0.5033,0.3637,0.2147,0.1992,0.1977,0.1977,0.1977,0.1977,0.1977,0.1977,0.1977,0.1977,0.1977,0.1977,0.1977,0.1977,0.1977,0.1977,0.1977,0.1977,0.1977,0.1977,0.1977,0.1977,0.1977,0.1977,0.1977,0.1236,0.1497,0.2527,0.4665,0.5474,0.4894,0.2057,0.312,0.5412,0.5478,0.7526,0.971,0.971,1.0257,0.9844,0.6309,0.7526,0.9024,0.6038,0.766,0.971,0.971,0.9831,0.9952,0.9952,0.9806,0.9751,1.0,1.0096,1.0274,1.0514,1.0622,1.0717,1.0717,1.0717,1.0717,1.0717,1.0717,1.0717,1.0717,1.0717,1.0717,1.0717,1.0717,1.0717,1.0717,1.0717,1.0717,1.0717,1.0724,1.0724,1.0724,1.088,1.1029,1.1165,1.1165,1.1165,1.1158,1.1009,1.1029,1.1165,1.1165,1.1341,1.1619,1.1619,1.1619,1.1619,1.1619,1.1619,1.1619,0.9359,0.9377,0.9377,0.9377,0.9377,0.951,1.0047,0.9643,0.948,0.9907,0.8755,0.7812,0.7692,0.6863,0.6382,0.6349,0.6345,0.6317,0.6251,0.5835,0.539,0.491,0.3011,0.2866,0.4677,0.3817,0.3817,0.4797,0.4797,0.4797,0.4797,0.4797,0.4797,0.4797,0.4797,0.4797,0.4797,0.4797,0.4797,0.4797,0.4797,0.4797,0.4797,0.4797,0.4456,0.4122,0.4499,0.4797,0.5114,0.5107,0.6928,0.8665,0.5728,0.6736,0.9117,0.8728,0.9273,0.9958,1.0079,1.0212,1.0079,0.8867,0.9558,1.0111,0.8728,0.914,0.9825,0.9679,0.994,1.0199,1.0199,1.0326,1.0439,1.0531,1.0558,1.0571,1.0656,1.069,1.0717,1.0717,1.0717,1.0717,1.0717,1.0717,1.0717,1.0717,1.0717,1.0717,1.0717,1.0717,1.0717,1.0717,1.0717,1.0717,1.0717,1.0826,1.088,1.088,1.1138,1.128,1.1321,1.1212,1.1165,1.1158,1.1009,1.1029,1.1172,1.128,1.1443,1.1619,1.1619,1.1619,1.1619,1.1619,1.1619,1.1619,1.0704,1.0717,1.0717,1.0717,1.0717,1.0717,1.0717,1.0717,1.0683,1.0595,0.977,0.9205,0.9281,0.8405,0.8049,0.8075,0.8075,0.8044,0.7977,0.7447,0.7398,0.7801,0.5217,0.4398,0.59,0.5161,0.5039,0.5896,0.5896,0.5896,0.5896,0.5896,0.5896,0.5896,0.5896,0.5896,0.5896,0.5896,0.5896,0.5896,0.5896,0.5921,0.5949,0.5949,0.5757,0.5575,0.5958,0.6273,0.6352,0.6344,0.7941,0.972,0.8459,0.8938,0.9958,1.0212,1.0339,1.0339,1.0326,1.0459,1.0326,1.0339,1.0492,1.0632,1.0199,1.0199,1.0219,1.0136,1.0277,1.0558,1.0617,1.0759,1.0894,1.0894,1.0846,1.0812,1.0812,1.0758,1.0717,1.0717,1.0717,1.0717,1.0717,1.0717,1.0744,1.0806,1.0812,1.0812,1.0812,1.0812,1.0785,1.0724,1.0778,1.0812,1.0812,1.0962,1.1002,1.0955,1.1246,1.1389,1.1389,1.1355,1.1307,1.1246,1.1158,1.1172,1.126,1.1355,1.1484,1.1619,1.1619,1.1619,1.1619,1.1619,1.1619,1.1619,1.0717,1.0717,1.0717,1.0717,1.0717,1.0717,1.0704,1.0697,1.0697,1.0683,1.046,1.0399,1.067,1.0473,1.0426,1.0697,1.0711,1.0697,1.0697,0.9492,0.9306,1.05,0.8033,0.648,0.6293,0.6149,0.6141,0.6263,0.6263,0.6263,0.6263,0.6263,0.6263,0.6263,0.6272,0.6276,0.6276,0.6285,0.6289,0.6289,0.6289,0.6341,0.6424,0.6424,0.6611,0.6695,0.6695,0.6761,0.6972,0.828,0.875,0.8978,1.0319,0.9782,0.8978,1.0319,1.0717,1.0717,1.0717,1.0717,1.0717,1.0717,1.0731,1.0744,1.0744,1.0744,1.0785,1.0934,1.0968,1.1009,1.1138,1.1165,1.1165,1.1165,1.1056,1.0962,1.0948,1.0826,1.0738,1.0724,1.0717,1.0724,1.0738,1.0751,1.0819,1.0955,1.0968,1.0962,1.0948,1.0962,1.09,1.0744,1.0873,1.0955,1.0968,1.1084,1.109,1.0989,1.1274,1.1409,1.1416,1.1545,1.1525,1.1389,1.1389,1.1389,1.1396,1.1402,1.1491,1.1619,1.1619,1.1619,1.1619,1.1619,1.1619,1.1619,1.0697,1.0717,1.0717,1.0717,1.0717,1.0677,1.0561,1.0541,1.05,1.0392,1.0419,1.0473,1.0534,1.0595,1.0649,1.0717,1.0609,1.0541,1.0541,1.028,1.026,1.0493,0.9935,0.9453,0.9292,0.8082,0.7978,0.8964,0.8964,0.8964,0.8964,0.8964,0.8964,0.8964,0.9075,0.9125,0.9131,0.9243,0.9286,0.9286,0.9286,0.9311,0.9336,0.9336,0.9416,0.9534,0.9534,0.9621,0.9871,1.0135,1.0293,1.0319,1.0585,1.0452,1.0319,1.0585,1.0717,1.0717,1.0717,1.0717,1.0717,1.0717,1.0812,1.09,1.09,1.09,1.0941,1.1084,1.1118,1.1124,1.1158,1.1165,1.1165,1.1165,1.1138,1.1077,1.0962,1.0921,1.0853,1.0731,1.0717,1.0765,1.0887,1.1002,1.1084,1.1118,1.1118,1.1063,1.0955,1.1056,1.105,1.09,1.0928,1.1002,1.1118,1.1036,1.1097,1.1294,1.1484,1.1572,1.1565,1.1484,1.1423,1.1389,1.1389,1.1389,1.1402,1.1518,1.1592,1.1619,1.1619,1.1619,1.1619,1.1619,1.1619,1.1619,1.0704,1.0717,1.0717,1.0717,1.0717,1.0697,1.0616,1.0541,1.0493,1.0487,1.0432,1.0419,1.0487,1.0561,1.0643,1.0711,1.0649,1.0602,1.0602,1.0602,1.0602,1.0602,1.0466,1.0385,1.0378,0.9456,0.9218,1.0039,1.0039,1.0039,1.0039,0.9964,0.9971,1.0039,0.9971,1.0019,1.0161,1.0168,1.0215,1.0283,1.0283,1.0324,1.0378,1.0378,1.0473,1.0602,1.0602,1.0649,1.0717,1.0717,1.0717,1.0717,1.0717,1.0717,1.0717,1.0717,1.0717,1.0717,1.0717,1.0717,1.0717,1.0717,1.0833,1.0948,1.0948,1.1002,1.109,1.124,1.1274,1.1294,1.1369,1.1382,1.1382,1.1382,1.1321,1.1246,1.1172,1.1036,1.0921,1.0839,1.0826,1.0887,1.1036,1.1185,1.1274,1.1274,1.1274,1.124,1.1165,1.1233,1.1206,1.1056,1.105,1.1118,1.1267,1.1124,1.1199,1.1497,1.1504,1.1552,1.1613,1.1538,1.1497,1.1497,1.1497,1.1497,1.1504,1.1586,1.1619,1.1619,1.1619,1.1619,1.1619,1.1619,1.166,1.1708,1.0683,1.0683,1.067,1.0649,1.0663,1.067,1.0649,1.0561,1.0534,1.0663,1.0466,1.0371,1.0514,1.0527,1.0568,1.067,1.0704,1.0717,1.0717,1.0717,1.0717,1.0717,1.0487,1.0412,1.0527,1.029,1.0202,1.0283,1.0283,1.0283,1.0276,1.0148,1.0154,1.027,1.0039,1.008,1.031,1.0209,1.0236,1.0358,1.0358,1.0426,1.0527,1.0527,1.0609,1.0717,1.0717,1.0717,1.0717,1.0717,1.0717,1.0717,1.0717,1.0717,1.0717,1.0717,1.0717,1.0724,1.0751,1.0758,1.0765,1.0792,1.0907,1.1023,1.1023,1.1118,1.1246,1.1396,1.143,1.147,1.1599,1.1619,1.1619,1.1619,1.1511,1.1423,1.1396,1.1179,1.1016,1.0989,1.1009,1.107,1.1192,1.1341,1.143,1.143,1.143,1.1416,1.1396,1.1416,1.1362,1.1206,1.1199,1.1274,1.143,1.1253,1.1314,1.1619,1.1463,1.147,1.1619,1.1619,1.1619,1.1619,1.1619,1.1619,1.1619,1.1619,1.1619,1.1619,1.1619,1.1619,1.1619,1.1647,1.1748,1.1857,1.0521,1.0521,1.0487,1.0365,1.0439,1.048,1.0358,1.0426,1.05,1.0521,1.0487,1.0521,1.067,1.069,1.0643,1.0534,1.0643,1.0717,1.0717,1.0717,1.0717,1.0717,1.0683,1.067,1.069,1.0649,1.0514,1.0283,1.0283,1.0283,1.0283,1.0256,1.0263,1.0283,1.0365,1.0426,1.0473,1.0582,1.0643,1.0663,1.0663,1.067,1.069,1.069,1.0704,1.0717,1.0717,1.0717,1.0717,1.0717,1.0717,1.0717,1.0717,1.0717,1.0717,1.0717,1.0717,1.0751,1.088,1.0914,1.0948,1.107,1.1219,1.1328,1.1328,1.1348,1.1402,1.1558,1.1586,1.1592,1.1613,1.1619,1.1619,1.1619,1.1599,1.1545,1.1409,1.1355,1.128,1.1151,1.1253,1.1335,1.1355,1.1497,1.1586,1.1586,1.1586,1.1531,1.1396,1.1518,1.1518,1.1362,1.1362,1.1436,1.1586,1.1307,1.1314,1.1619,1.1463,1.147,1.1619,1.1619,1.1619,1.1619,1.1619,1.1619,1.1619,1.1619,1.1619,1.1619,1.1619,1.1619,1.1633,1.1755,1.1898,1.2026,1.0371,1.0371,1.0351,1.029,1.0331,1.0378,1.0399,1.0385,1.0432,1.0595,1.0473,1.0399,1.0466,1.0473,1.048,1.0487,1.0629,1.0717,1.0717,1.0717,1.0717,1.0717,1.0636,1.0629,1.0717,1.0636,1.0568,1.0527,1.0527,1.0527,1.0527,1.0439,1.0446,1.0521,1.0419,1.0466,1.0616,1.0602,1.0643,1.0717,1.0717,1.0717,1.0717,1.0717,1.0717,1.0717,1.0717,1.0717,1.0717,1.0717,1.0717,1.0717,1.0717,1.0717,1.0717,1.0717,1.0778,1.086,1.0928,1.1009,1.1084,1.1145,1.128,1.1389,1.1389,1.1457,1.1538,1.1606,1.1619,1.1619,1.1619,1.1619,1.1619,1.1619,1.1619,1.1599,1.1531,1.1443,1.1369,1.1301,1.1348,1.1423,1.1511,1.1579,1.1619,1.1619,1.1619,1.1592,1.1525,1.1586,1.1586,1.1518,1.1436,1.1463,1.1619,1.1402,1.1402,1.1619,1.1552,1.1552,1.1619,1.1619,1.1619,1.1619,1.1619,1.1619,1.1619,1.1619,1.1619,1.1619,1.1619,1.1619,1.164,1.1775,1.1932,1.206]},{"header":{"parameterUnit":"m.s-1","parameterCategory":1,"la1":30.6,"la2":28.766,"lo1":-90.7593,"lo2":-88.6598,"dy":0.0162,"dx":0.0183,"nx":116,"ny":114,"refTime":"2023-10-18T18:00:00:Z","depth":0,"parameterNumber":3,"parameterNumberName":"V-component_of_WINDS"},"data":[0.0,0.0,0.0,0.0,0.0,0.0,0.0,0.0,0.0,0.0,0.0,0.0,0.0,0.0,0.0,0.0,0.0,0.0,0.0,0.0,0.0,0.0,0.0,0.0,0.0,0.0,0.0,0.0,0.0,0.0,0.0,0.0,0.0,0.0,0.0,0.0,0.0,0.0,0.0,0.0,0.0,0.0,0.0,0.0,0.0,0.0,0.0,0.0,0.0,0.0,0.0,0.0,0.0,0.0,0.0,0.0,0.0,0.0,0.0,0.0,0.0,0.0,0.0,0.0,0.0,0.0,0.0,0.0,0.0,0.0,0.0,0.0,0.0,0.0,0.0,0.0,0.0,0.0,0.0,0.0,0.0,0.0,0.0,0.0,0.0,0.0,0.0,0.0,0.0,0.0,0.0,0.0,0.0,0.0,0.0,0.0,0.0,0.0,0.0,0.0,0.0,0.0,0.0,0.0,0.0,0.0,0.0,0.0,0.0,0.0,0.0,0.0,0.0,0.0,0.0,0.0,0.0,0.0,0.0,0.0,0.0,0.0,0.0,0.0,0.0,0.0,0.0,0.0,0.0,0.0,0.0,0.0,0.0,0.0,0.0,0.0,0.0,0.0,0.0,0.0,0.0,0.0,0.0,0.0,0.0,0.0,0.0,0.0,0.0,0.0,0.0,0.0,0.0,0.0,0.0,0.0,0.0,0.0,0.0,0.0,0.0,0.0,0.0,0.0,0.0,0.0,0.0,0.0,0.0,0.0,0.0,0.0,0.0,0.0,0.0,0.0,0.0,0.0,0.0,0.0,0.0,0.0,0.0,0.0,0.0,0.0,0.0,0.0,0.0,0.0,0.0,0.0,0.0,0.0,0.0,0.0,0.0,0.0,0.0,0.0,0.0,0.0,0.0,0.0,0.0,0.0,0.0,0.0,0.0,0.0,0.0,0.0,0.0,0.0,0.0,0.0,0.0,0.0,0.0,0.0,0.0,0.0,0.0,0.0,0.0,0.0,0.0,0.0,0.0,0.0,0.0,0.0,0.0,0.0,0.0,0.0,0.0,0.0,0.0,0.0,0.0,0.0,0.0,0.0,0.0,0.0,0.0,0.0,0.0,0.0,0.0,0.0,0.0,0.0,0.0,0.0,0.0,0.0,0.0,0.0,0.0,0.0,0.0,0.0,0.0,0.0,0.0,0.0,0.0,0.0,0.0,0.0,0.0,0.0,0.0,0.0,0.0,0.0,0.0,0.0,0.0,0.0,0.0,0.0,0.0,0.0,0.0,0.0,0.0,0.0,0.0,0.0,0.0,0.0,0.0,0.0,0.0,0.0,0.0,0.0,0.0,0.0,0.0,0.0,0.0,0.0,0.0,0.0,0.0,0.0,0.0,0.0,0.0,0.0,0.0,0.0,0.0,0.0,0.0,0.0,0.0,0.0,0.0,0.0,0.0,0.0,0.0,0.0,0.0,0.0,0.0,0.0,0.0,0.0,0.0,0.0,0.0,0.0,0.0,0.0,0.0,0.0,0.0,0.0,0.0,0.0,0.0,0.0,0.0,0.0,0.0,0.0,0.0,0.0,0.0,0.0,0.0,0.0,0.0,0.0,0.0,0.0,0.0,0.0,0.0,0.0,0.0,0.0,0.0,0.0,0.0,0.0,0.0,0.0,0.0,0.0,0.0,0.0,0.0,0.0,0.0,0.0,0.0,0.0,0.0,0.0,0.0,0.0,0.0,0.0,0.0,0.0,0.0,0.0,0.0,0.0,0.0,0.0,0.0,0.0,0.0,0.0,0.0,0.0,0.0,0.0,0.0,0.0,0.0,0.0,0.0,0.0,0.0,0.0,0.0,0.0,0.0,0.0,0.0,0.0,0.0,0.0,0.0,0.0,0.0,0.0,0.0,0.0,0.0,0.0,0.0,0.0,0.0,0.0,0.0,0.0,0.0,0.0,0.0,0.0,0.0,0.0,0.0,0.0,0.0,0.0,0.0,0.0,0.0,0.0,0.0,0.0,0.0,0.0,0.0,0.0,0.0,0.0,0.0,0.0,0.0,0.0,0.0,0.0,0.0,0.0,0.0,0.0,0.0,0.0,0.0,0.0,0.0,0.0,0.0,0.0,0.0,0.0,0.0,0.0,0.0,0.0,0.0,0.0,0.0,0.0,0.0,0.0,0.0,0.0,0.0,0.0,0.0,0.0,0.0,0.0,0.0,0.0,0.0,0.0,0.0,0.0,0.0,0.0,0.0,0.0,0.0,0.0,0.0,0.0,0.0,0.0,0.0,0.0,0.0,0.0,0.0,0.0,0.0,0.0,0.0,0.0,0.0,0.0,0.0,0.0,0.0,0.0,0.0,0.0,0.0,0.0,0.0,0.0,0.0,0.0,0.0,0.0,0.0,0.0,0.0,0.0,0.0,0.0,0.0,0.0,0.0,0.0,0.0,0.0,0.0,0.0,0.0,0.0,0.0,0.0,0.0,0.0,0.0,0.0,0.0,0.0,0.0,0.0,0.0,0.0,0.0,0.0,0.0,0.0,0.0,0.0,0.0,0.0,0.0,0.0,0.0,0.0,0.0,0.0,0.0,0.0,0.0,0.0,0.0,0.0,0.0,0.0,0.0,0.0,0.0,0.0,0.0,0.0,0.0,0.0,0.0,0.0,0.0,0.0,0.0,0.0,0.0,0.0,0.0,0.0,0.0,0.0,0.0,0.0,0.0,0.0,0.0,0.0,0.0,0.0,0.0,0.0,0.0,0.0,0.0,0.0,0.0,0.0,0.0,0.0,0.0,0.0,0.0,0.0,0.0,0.0,0.0,0.0,0.0,0.0,0.0,0.0,0.0,0.0,0.0,0.0,0.0,0.0,0.0,0.0,0.0,0.0,0.0,0.0,0.0,0.0,0.0,0.0,0.0,0.0,0.0,0.0,0.0,0.0,0.0,0.0,0.0,0.0,0.0,0.0,0.0,0.0,0.0,0.0,0.0,0.0,0.0,0.0,0.0,0.0,0.0,0.0,0.0,0.0,0.0,0.0,0.0,0.0,0.0,0.0,0.0,0.0,0.0,0.0,0.0,0.0,0.0,0.0,0.0,0.0,0.0,0.0,0.0,0.0,0.0,0.0,0.0,0.0,0.0,0.0,0.0,0.0,0.0,0.0,0.0,0.0,0.0,0.0,0.0,0.0,0.0,0.0,0.0,0.0,0.0,0.0,0.0,0.0,0.0,0.0,0.0,0.0,0.0,0.0,0.0,0.0,0.0,0.0,0.0,0.0,0.0,0.0,0.0,0.0,0.0,0.0,0.0,0.0,0.0,0.0,0.0,0.0,0.0,0.0,0.0,0.0,0.0,0.0,0.0,0.0,0.0,0.0,0.0,0.0,0.0,0.0,0.0,0.0,0.0,0.0,0.0,0.0,0.0,0.0,0.0,0.0,0.0,0.0,0.0,0.0,0.0,0.0,0.0,0.0,0.0,0.0,0.0,0.0,0.0,0.0,0.0,0.0,0.0,0.0,0.0,0.0,0.0,0.0,0.0,0.0,0.0,0.0,0.0,0.0,0.0,0.0,0.0,0.0,0.0,0.0,0.0,0.0,0.0,0.0,0.0,0.0,0.0,0.0,0.0,0.0,0.0,0.0,0.0,0.0,0.0,0.0,0.0,0.0,0.0,0.0,0.0,0.0,0.0,0.0,0.0,0.0,0.0,0.0,0.0,0.0,0.0,0.0,0.0,0.0,0.0,0.0,0.0,0.0,0.0,0.0,0.0,0.0,0.0,0.0,0.0,0.0,0.0,0.0,0.0,0.0,0.0,0.0,0.0,0.0,0.0,0.0,0.0,0.0,0.0,0.0,0.0,0.0,0.0,0.0,0.0,0.0,0.0,0.0,0.0,0.0,0.0,0.0,0.0,0.0,0.0,0.0,0.0,0.0,0.0,0.0,0.0,0.0,0.0,0.0,0.0,0.0,0.0,0.0,0.0,0.0,0.0,0.0,0.0,0.0,0.0,0.0,0.0,0.0,0.0,0.0,0.0,0.0,0.0,0.0,0.0,0.0,0.0,0.0,0.0,0.0,0.0,0.0,0.0,0.0,0.0,0.0,0.0,0.0,0.0,0.0,0.0,0.0,0.0,0.0,0.0,0.0,0.0,0.0,0.0,0.0,0.0,0.0,0.0,0.0,0.0,0.0,0.0,0.0,0.0,0.0,0.0,0.0,0.0,0.0,0.0,0.0,0.0,0.0,0.0,0.0,0.0,0.0,0.0,0.0,0.0,0.0,0.0,0.0,0.0,0.0,0.0,0.0,0.0,0.0,0.0,0.0,0.0,0.0,0.0,0.0,0.0,0.0,0.0,0.0,0.0,0.0,0.0,0.0,0.0,0.0,0.0,0.0,0.0,0.0,0.0,0.0,0.0,0.0,0.0,0.0,0.0,0.0,0.0,0.0,0.0,0.0,0.0,0.0,0.0,0.0,0.0,0.0,0.0,0.0,0.0,0.0,0.0,0.0,0.0,0.0,0.0,0.0,0.0,0.0,0.0,0.0,0.0,0.0,0.0,0.0,0.0,0.0,0.0,0.0,0.0,0.0,0.0,0.0,0.0,0.0,0.0,0.0,0.0,0.0,0.0,0.0,0.0,0.0,0.0,0.0,0.0,0.0,0.0,0.0,0.0,0.0,0.0,0.0,0.0,0.0,0.0,0.0,0.0,0.0,0.0,0.0,0.0,0.0,0.0,0.0,0.0,0.0,0.0,0.0,0.0,0.0,0.0,0.0,0.0,0.0,0.0,0.0,0.0,0.0,0.0,0.0,0.0,0.0,0.0,0.0,0.0,0.0,0.0,0.0,0.0,0.0,0.0,0.0,0.0,0.0,0.0,0.0,0.0,0.0,0.0,0.0,0.0,0.0,0.0,0.0,0.0,0.0,0.0,0.0,0.0,0.0,0.0,0.0,0.0,0.0,0.0,0.0,0.0,0.0,0.0,0.0,0.0,0.0,0.0,0.0,0.0,0.0,0.0,0.0,0.0,0.0,0.0,0.0,0.0,0.0,0.0,0.0,0.0,0.0,0.0,0.0,0.0,0.0,0.0,0.0,0.0,0.0,0.0,0.0,0.0,0.0,0.0,0.0,0.0,0.0,0.0,0.0,0.0,0.0,0.0,0.0,0.0,0.0,0.0,0.0,0.0,0.0,0.0,0.0,0.0,0.0,0.0,0.0,0.0,0.0,0.0,0.0,0.0,0.0,0.0,0.0,0.0,0.0,0.0,0.0,0.0,0.0,0.0,0.0,0.0,0.0,0.0,0.0,0.0,0.0,0.0,0.0,0.0,0.0,0.0,0.0,0.0,0.0,0.0,0.0,0.0,0.0,0.0,0.0,0.0,0.0,0.0,0.0,0.0,0.0,0.0,0.0,0.0,0.0,0.0,0.0,0.0,0.0,0.0,0.0,0.0,0.0,0.0,0.0,0.0,0.0,0.0,0.0,0.0,0.0,0.0,0.0,0.0,0.0,0.0,0.0,0.0,0.0,0.0,0.0,0.0,0.0,0.0,0.0,0.0,0.0,0.0,0.0,0.0,0.0,0.0,0.0,0.0,0.0,0.0,0.0,0.0,0.0,0.0,0.0,0.0,0.0,0.0,0.0,0.0,0.0,0.0,0.0,0.0,0.0,0.0,0.0,0.0,0.0,0.0,0.0,0.0,0.0,0.0,0.0,0.0,0.0,0.0,0.0,0.0,0.0,0.0,0.0,0.0,0.0,0.0,0.0,0.0,0.0,0.0,0.0,0.0,0.0,0.0,0.0,0.0,0.0,0.0,0.0,0.0,0.0,0.0,0.0,0.0,0.0,0.0,0.0,0.0,0.0,0.0,0.0,0.0,0.0,0.0,0.0,0.0,0.0,0.0,0.0,0.0,0.0,0.0,0.0,0.0,0.0,0.0,0.0,0.0,0.0,0.0,0.0,0.0,0.0,0.0,0.0,0.0,0.0,0.0,0.0,0.0,0.0,0.0,0.0,0.0,0.0,0.0,0.0,0.0,0.0,0.0,0.0,0.0,0.0,0.0,0.0,0.0,0.0,0.0,0.0,0.0,0.0,0.0,0.0,0.0,0.0,0.0,0.0,0.0,0.0,-3.6483,0.0,0.0,0.0,0.0,0.0,0.0,0.0,0.0,0.0,0.0,0.0,0.0,0.0,0.0,0.0,0.0,0.0,0.0,0.0,0.0,0.0,0.0,0.0,0.0,0.0,0.0,0.0,0.0,0.0,0.0,0.0,0.0,0.0,0.0,0.0,0.0,0.0,0.0,0.0,0.0,0.0,0.0,0.0,0.0,0.0,0.0,0.0,0.0,0.0,0.0,0.0,0.0,0.0,0.0,0.0,0.0,0.0,0.0,0.0,0.0,0.0,0.0,0.0,0.0,0.0,0.0,0.0,0.0,0.0,0.0,0.0,0.0,0.0,0.0,0.0,0.0,0.0,0.0,0.0,0.0,0.0,0.0,0.0,0.0,0.0,0.0,0.0,0.0,0.0,0.0,0.0,0.0,0.0,0.0,0.0,0.0,0.0,0.0,0.0,0.0,0.0,0.0,0.0,0.0,0.0,0.0,0.0,0.0,0.0,0.0,0.0,0.0,0.0,0.0,0.0,0.0,-3.7358,0.0,0.0,0.0,0.0,0.0,0.0,0.0,0.0,0.0,0.0,0.0,0.0,0.0,0.0,0.0,0.0,0.0,0.0,0.0,0.0,0.0,0.0,0.0,0.0,0.0,0.0,0.0,0.0,0.0,0.0,0.0,0.0,0.0,0.0,0.0,0.0,0.0,0.0,0.0,0.0,0.0,0.0,0.0,0.0,0.0,0.0,0.0,0.0,0.0,0.0,0.0,0.0,0.0,0.0,0.0,0.0,0.0,0.0,0.0,0.0,0.0,0.0,0.0,0.0,0.0,0.0,0.0,0.0,0.0,0.0,0.0,0.0,0.0,0.0,0.0,0.0,0.0,0.0,0.0,0.0,0.0,0.0,0.0,0.0,0.0,0.0,0.0,0.0,0.0,0.0,0.0,0.0,0.0,0.0,0.0,0.0,0.0,0.0,0.0,0.0,0.0,0.0,0.0,0.0,0.0,0.0,0.0,0.0,-4.7472,-4.8021,-4.8423,-4.8072,-4.7816,-4.7448,-4.4562,-4.2963,-4.2228,0.0,0.0,0.0,0.0,0.0,0.0,0.0,0.0,0.0,0.0,0.0,0.0,0.0,0.0,0.0,0.0,0.0,0.0,0.0,0.0,0.0,0.0,0.0,0.0,0.0,0.0,0.0,0.0,0.0,0.0,0.0,0.0,0.0,0.0,0.0,0.0,0.0,0.0,0.0,-3.9624,-4.0577,-4.1276,-4.1578,-3.8376,0.0,0.0,0.0,0.0,0.0,0.0,0.0,0.0,0.0,0.0,0.0,0.0,0.0,0.0,0.0,0.0,0.0,0.0,0.0,0.0,0.0,0.0,0.0,0.0,0.0,0.0,0.0,0.0,0.0,0.0,0.0,0.0,0.0,0.0,0.0,0.0,0.0,0.0,0.0,0.0,0.0,0.0,0.0,-3.6542,-3.6763,0.0,0.0,0.0,0.0,0.0,0.0,0.0,0.0,0.0,0.0,0.0,0.0,0.0,0.0,-4.7534,-5.0632,-5.1906,-5.1377,-5.4339,-5.5093,-5.3819,-5.5302,-5.5552,-5.4743,-5.3623,0.0,-4.4124,-4.2214,0.0,0.0,0.0,0.0,0.0,0.0,0.0,0.0,0.0,0.0,0.0,0.0,0.0,0.0,0.0,0.0,0.0,0.0,0.0,0.0,0.0,0.0,0.0,0.0,0.0,0.0,0.0,0.0,0.0,0.0,0.0,0.0,0.0,0.0,0.0,0.0,-3.8747,-4.1508,-4.2607,-4.3508,-4.4135,-4.4469,-4.2354,-4.0893,-3.9957,-3.8827,0.0,0.0,0.0,0.0,0.0,0.0,0.0,0.0,0.0,0.0,0.0,0.0,0.0,0.0,0.0,0.0,0.0,0.0,0.0,0.0,0.0,0.0,0.0,0.0,0.0,0.0,0.0,0.0,0.0,0.0,0.0,0.0,0.0,0.0,0.0,0.0,0.0,0.0,0.0,-3.6658,-3.8404,-3.6503,-3.8287,-3.8743,0.0,0.0,0.0,0.0,0.0,0.0,0.0,0.0,0.0,-4.6968,-4.9868,-5.1829,-5.2779,-5.5228,-5.6482,-5.6596,-5.7641,-5.8291,-5.8517,-5.8364,-5.8338,-5.8377,-5.7042,-5.4723,-5.1608,-4.7508,-4.5347,-4.4433,0.0,0.0,0.0,0.0,-4.1652,-4.2071,0.0,0.0,0.0,0.0,0.0,0.0,0.0,0.0,0.0,0.0,0.0,0.0,0.0,0.0,0.0,-3.6616,0.0,0.0,0.0,0.0,0.0,0.0,0.0,0.0,0.0,0.0,0.0,0.0,-4.2588,-4.4984,-4.5403,-4.6468,-4.6908,-4.6708,-4.6051,-4.4394,-4.2017,-4.0555,-3.9286,0.0,0.0,0.0,0.0,0.0,0.0,0.0,0.0,0.0,0.0,0.0,0.0,0.0,0.0,0.0,0.0,0.0,0.0,0.0,0.0,0.0,0.0,0.0,0.0,0.0,0.0,0.0,0.0,0.0,0.0,0.0,0.0,0.0,0.0,0.0,0.0,0.0,0.0,-3.8646,-4.0306,-3.7104,-4.014,-4.1159,0.0,0.0,0.0,0.0,0.0,0.0,-4.5137,-4.7758,-5.0037,-5.183,-5.4865,-5.6814,-5.7541,-5.922,-6.0201,-6.0373,-6.0247,-6.0644,-6.1408,-6.0426,-6.0184,-6.0495,-5.8975,-5.8304,-5.7905,-5.2316,-4.9563,-4.8582,-4.6253,-4.5224,-4.5028,-4.5028,-4.5135,-4.5499,0.0,0.0,0.0,0.0,0.0,0.0,0.0,0.0,0.0,0.0,0.0,0.0,0.0,0.0,-3.9147,-4.176,-4.07,-3.9237,0.0,0.0,0.0,0.0,0.0,0.0,0.0,0.0,0.0,-4.1738,-4.4351,-4.6429,-4.8034,-4.9693,-5.0107,-4.948,-4.9442,-4.7956,-4.5233,-4.2083,-4.1158,-4.1548,0.0,0.0,0.0,0.0,0.0,0.0,0.0,0.0,0.0,0.0,0.0,0.0,0.0,0.0,0.0,0.0,0.0,0.0,0.0,0.0,0.0,0.0,0.0,0.0,0.0,0.0,0.0,0.0,0.0,0.0,0.0,0.0,0.0,0.0,0.0,0.0,0.0,0.0,0.0,-3.9812,-4.4013,0.0,0.0,0.0,0.0,-4.4501,-4.6151,-4.7885,-4.9664,-5.2844,-5.5435,-5.7249,-5.9694,-6.1022,-6.1156,-6.2819,-6.2869,-6.1354,-6.3091,-6.309,-6.1599,-6.244,-6.2365,-6.1556,-6.0659,-6.0261,-5.9902,-5.5461,-5.312,-5.2172,-5.0512,-4.9375,-4.8633,-4.8633,-4.9062,-4.9685,0.0,0.0,0.0,0.0,0.0,0.0,0.0,0.0,0.0,0.0,0.0,0.0,0.0,-3.951,-4.2208,-4.3216,-4.3754,-4.2794,-3.9762,0.0,0.0,0.0,0.0,0.0,0.0,0.0,-4.1701,-4.2981,-4.5491,-4.703,-4.7598,-4.7676,-4.7856,-4.8114,-4.7617,-4.6872,-4.593,-4.4122,-4.2624,-4.1186,-3.8942,-3.719,0.0,0.0,0.0,0.0,0.0,0.0,0.0,0.0,0.0,0.0,0.0,0.0,0.0,0.0,0.0,0.0,0.0,0.0,0.0,0.0,0.0,0.0,0.0,0.0,0.0,0.0,0.0,0.0,0.0,0.0,0.0,0.0,0.0,0.0,0.0,0.0,0.0,-4.3994,-4.7462,0.0,0.0,-4.5936,-4.6683,-4.8125,-4.9864,-5.2104,-5.4957,-5.7182,-5.9195,-6.1034,-6.2415,-6.3429,-6.4115,-6.47,-6.47,-6.4083,-6.4208,-6.395,-6.3325,-6.2532,-6.2302,-6.2485,-6.1626,-6.1235,-6.1115,-5.9568,-5.7757,-5.5845,-5.4136,-5.3281,-5.2969,-5.2383,-5.2344,-5.2578,0.0,0.0,0.0,0.0,0.0,0.0,0.0,0.0,0.0,0.0,0.0,-3.5796,-3.7699,-4.1677,-4.4446,-4.5125,-4.5701,-4.4499,-4.0819,0.0,0.0,0.0,0.0,0.0,0.0,-4.1675,-4.3588,-4.3938,-4.6191,-4.7317,-4.7317,-4.7317,-4.7317,-4.7279,-4.7048,-4.6666,-4.6176,-4.5531,-4.3987,-4.1808,-4.0365,-3.9112,-3.7887,0.0,0.0,0.0,0.0,0.0,0.0,0.0,0.0,0.0,0.0,0.0,0.0,0.0,0.0,0.0,0.0,0.0,0.0,0.0,0.0,0.0,0.0,0.0,0.0,0.0,0.0,0.0,0.0,0.0,0.0,0.0,0.0,0.0,0.0,0.0,-4.7696,-4.7047,-5.0634,-5.225,-4.9887,-5.0215,-5.1162,-5.2606,-5.4298,-5.6415,-5.9031,-6.0721,-6.229,-6.3813,-6.4332,-6.4938,-6.5586,-6.5898,-6.5742,-6.5156,-6.4883,-6.4414,-6.3828,-6.2656,-6.2305,-6.2539,-6.1953,-6.1719,-6.168,-6.1367,-6.0273,-5.8594,-5.7187,-5.625,-5.5664,-5.5078,-5.4883,-5.4805,0.0,0.0,0.0,0.0,0.0,0.0,0.0,0.0,0.0,0.0,-3.4357,-3.7003,-4.0882,-4.367,-4.5972,-4.7722,-4.634,-4.4025,-4.0924,-3.8257,0.0,0.0,0.0,0.0,-4.0848,-4.2636,-4.3985,-4.4831,-4.6463,-4.7279,-4.7356,-4.9027,-4.891,-4.7395,-4.8211,-4.7729,-4.6293,-4.6254,-4.5318,-4.3723,-4.2825,-4.2474,-4.2162,0.0,0.0,0.0,0.0,0.0,0.0,0.0,0.0,0.0,0.0,0.0,0.0,0.0,0.0,0.0,0.0,0.0,0.0,0.0,0.0,0.0,0.0,0.0,0.0,0.0,0.0,0.0,0.0,0.0,0.0,0.0,0.0,0.0,-4.2474,-4.6203,-4.895,-4.8971,-5.3537,-5.6011,-5.4318,-5.5738,-5.7074,-5.7894,-5.9538,-6.0905,-6.1768,-6.3403,-6.475,-6.5625,-6.5625,-6.5625,-6.5625,-6.6445,-6.6015,-6.4336,-6.5156,-6.4648,-6.3008,-6.2969,-6.25,-6.1719,-6.1719,-6.1719,-6.164,-6.0742,-6.039,-6.0273,-5.9453,-5.8125,-5.664,-5.6601,-5.6601,-5.6367,0.0,0.0,0.0,0.0,0.0,0.0,0.0,0.0,0.0,0.0,-3.5912,-3.8958,-4.1262,-4.4384,-4.6531,-4.7062,-4.5171,-4.3092,-4.1044,0.0,0.0,0.0,0.0,0.0,-4.2723,-4.3841,-4.4841,-4.5686,-4.6113,-4.6696,-4.7317,-4.7784,-4.8094,-4.8211,-4.7864,-4.7855,-4.796,-4.7398,-4.6883,-4.6314,-4.4887,-4.3918,-4.3134,0.0,0.0,0.0,0.0,0.0,0.0,0.0,0.0,0.0,0.0,0.0,0.0,0.0,0.0,0.0,0.0,0.0,0.0,0.0,0.0,0.0,0.0,0.0,0.0,0.0,0.0,0.0,0.0,0.0,0.0,0.0,0.0,-4.5333,-4.5986,-4.9284,-5.2537,-5.4992,-5.7148,-5.8709,-5.9485,-5.9998,-6.0666,-6.1529,-6.2596,-6.3623,-6.449,-6.4997,-6.5623,-6.6523,-6.5937,-6.5898,-6.6523,-6.6133,-6.5703,-6.5234,-6.4844,-6.4062,-6.2969,-6.2344,-6.1914,-6.1719,-6.1719,-6.1719,-6.164,-6.0742,-6.0078,-5.9453,-5.8594,-5.7969,-5.7461,-5.6836,-5.6601,-5.6523,0.0,0.0,0.0,0.0,0.0,0.0,0.0,0.0,0.0,0.0,-3.6768,-3.9629,-4.192,-4.435,-4.5703,-4.5379,-4.3531,-4.1334,-3.8999,0.0,0.0,0.0,0.0,-4.179,-4.4015,-4.488,-4.553,-4.5997,-4.5997,-4.6463,-4.7317,-4.7719,-4.8166,-4.8633,-4.8546,-4.8581,-4.871,-4.8244,-4.8259,-4.846,-4.7135,-4.6309,-4.5636,-4.3922,-4.2917,-4.2106,-3.9992,-3.909,-3.8663,-3.7147,0.0,0.0,0.0,0.0,0.0,0.0,0.0,0.0,0.0,0.0,0.0,0.0,0.0,0.0,0.0,0.0,0.0,0.0,0.0,0.0,0.0,0.0,0.0,0.0,-4.5997,-4.8942,-5.0542,-5.2503,-5.4927,-5.7972,-5.9456,-6.0744,-6.211,-6.2579,-6.3008,-6.3521,-6.4356,-6.5074,-6.5586,-6.5586,-6.6015,-6.6875,-6.6055,-6.5859,-6.6367,-6.6211,-6.5781,-6.5039,-6.4922,-6.4219,-6.2969,-6.2461,-6.2031,0.0,-6.1719,-6.1719,-6.164,-6.0742,-5.9922,0.0,0.0,0.0,0.0,0.0,-5.6133,-5.5508,0.0,0.0,0.0,0.0,0.0,0.0,0.0,0.0,0.0,0.0,0.0,-3.9274,-4.2264,-4.3641,-4.4034,-4.3337,-4.1729,-3.9452,0.0,0.0,0.0,0.0,-4.2002,-4.3216,-4.4929,-4.5755,-4.6115,-4.6037,-4.6115,-4.6542,-4.732,-4.8148,-4.8652,-4.8886,-4.9562,-4.955,-4.9094,-4.8981,-4.9375,-5.0038,-4.9257,-4.9016,-4.8922,-4.721,-4.7057,-4.741,-4.4879,-4.3044,-4.1755,-4.1366,0.0,0.0,0.0,0.0,0.0,0.0,0.0,0.0,0.0,0.0,0.0,0.0,0.0,0.0,0.0,0.0,0.0,0.0,0.0,0.0,0.0,0.0,0.0,0.0,-5.0074,-5.2741,-5.5357,-5.5825,-5.6723,-5.8987,-6.0783,-6.2189,-6.3047,-6.3945,-6.4492,-6.457,-6.5294,-6.5738,-6.5742,0.0,0.0,0.0,0.0,-6.5859,-6.5742,-6.6406,-6.5976,-6.4453,-6.5039,-6.4492,-6.3008,-6.289,-6.2422,-6.168,-6.1601,-6.1562,-6.1484,-6.0508,-5.9648,-5.8828,-5.8047,-5.7265,-5.6601,-5.6601,-5.5547,-5.4141,0.0,0.0,0.0,0.0,0.0,0.0,0.0,0.0,0.0,-3.4236,-3.6144,-3.7992,-3.9973,-4.1571,-4.2447,-4.2369,-4.0826,-3.9577,0.0,0.0,0.0,0.0,0.0,-4.4097,-4.5804,-4.6683,-4.6821,-4.6158,-4.6821,-4.7211,-4.7362,-4.7572,-4.8396,-4.9723,-4.9185,-4.9661,-5.0757,-5.0107,-4.9957,-5.0075,-4.9921,-5.0272,-5.0699,-4.8967,-4.8411,-4.8333,-4.6463,-4.6033,-4.5916,-4.3115,-4.2296,-4.2103,-3.9998,0.0,0.0,0.0,0.0,0.0,0.0,0.0,0.0,0.0,0.0,0.0,0.0,0.0,0.0,0.0,0.0,0.0,0.0,0.0,0.0,-4.9201,-5.2381,-5.5435,-5.8011,-5.8987,-5.9612,-6.008,-6.1681,-6.3086,-6.3945,-6.4843,-6.5624,-6.6288,-6.6504,-6.6635,-6.664,-6.7305,0.0,-6.6914,-6.7422,-6.7344,-6.664,-6.6133,-6.5664,-6.5312,0.0,0.0,-6.2969,-6.2265,-6.1875,-6.164,-6.0976,-6.0664,-6.0547,-5.9023,-5.789,-5.7109,-5.6914,-5.6758,-5.6601,-5.6601,-5.5937,-5.5039,0.0,0.0,0.0,0.0,0.0,0.0,0.0,0.0,0.0,0.0,-3.4986,-3.6405,-3.8063,-3.8983,-3.9342,-3.8975,-3.7816,0.0,0.0,0.0,0.0,0.0,0.0,0.0,-4.6694,-4.719,-4.7435,-4.7435,-4.7435,-4.7861,-4.8681,-4.8309,-4.9016,-5.0695,-5.0234,-5.0547,-5.1328,-5.0934,-5.0738,-5.066,-4.98,-4.9958,-5.0663,-4.979,-4.9462,-4.938,-4.8967,-4.8806,-4.8508,-4.6331,-4.5324,-4.4552,-4.1936,-3.9945,-3.8311,0.0,0.0,0.0,0.0,0.0,0.0,0.0,0.0,0.0,0.0,0.0,0.0,0.0,0.0,-4.2694,0.0,0.0,-4.9791,-5.2845,-5.5157,-5.7309,-5.9456,-6.051,-6.1056,-6.1056,-6.2579,-6.3828,-6.4258,-6.5468,-6.6366,-6.6756,-6.6848,-6.6865,-6.6914,-6.7305,-6.7328,-6.6839,-6.7219,-6.6993,-6.6131,-6.6092,-6.5429,-6.4145,-6.3716,-6.3071,-6.2265,-6.1836,-6.168,-6.164,-6.0781,-6.0664,-6.0937,-5.9258,-5.8281,-5.7851,-5.7422,-5.6992,-5.6601,-5.6601,-5.6055,-5.5312,0.0,0.0,0.0,0.0,0.0,0.0,0.0,0.0,0.0,0.0,0.0,-3.4853,-3.6121,-3.6393,-3.6198,0.0,0.0,0.0,0.0,0.0,0.0,0.0,0.0,0.0,0.0,-4.784,-4.8194,-4.8703,-4.8194,-4.8545,-4.9756,-4.9101,-4.9646,-5.1131,-5.1154,-5.1258,-5.1414,-5.1406,-5.1401,-5.1245,-4.97,-4.9355,-4.9829,-4.9643,-4.97,-4.9926,-5.0582,-5.0186,-4.9223,-4.8326,-4.7016,-4.543,-4.33,-4.1944,-4.0672,-3.8564,-3.7604,0.0,0.0,0.0,0.0,0.0,0.0,0.0,0.0,0.0,-3.9452,-4.1986,-4.3914,-4.6036,-4.9011,-5.0533,-5.2606,-5.6445,-5.7777,-5.8831,-6.0432,-6.1252,-6.172,-6.172,-6.3243,-6.4297,-6.4297,-6.5819,-6.6795,-6.6795,-6.6951,-6.7004,-6.6865,-6.7177,-6.7142,-6.6687,-6.6826,-6.6454,-6.5582,-6.6088,-6.5244,-6.3025,-6.3542,-6.3046,-6.1619,-6.1638,-6.164,-6.164,-6.0781,-6.0625,-6.0859,-5.9687,-5.9101,-5.8906,-5.8359,-5.7734,-5.707,-5.6914,-5.6289,-5.5547,0.0,0.0,0.0,0.0,0.0,0.0,0.0,0.0,0.0,0.0,0.0,0.0,0.0,0.0,0.0,0.0,0.0,0.0,0.0,0.0,0.0,0.0,0.0,0.0,0.0,-4.9406,-4.9472,-4.8769,-4.9472,-4.9511,-4.8928,-4.8844,-4.9313,-5.0246,-5.0243,-5.0672,-5.1414,-5.1414,-5.1414,-5.1336,-5.036,-4.954,-4.8844,-4.8085,-4.8274,-4.8954,-4.9032,-4.803,-4.6508,-4.5644,-4.4715,-4.3857,-4.3578,-4.2382,-4.1037,-4.0755,0.0,-3.7246,-3.7048,-3.5874,-3.5597,-3.9306,-3.8687,-3.8768,0.0,0.0,-4.4848,-4.7385,-4.9302,-5.0863,-5.2038,-5.422,-5.6523,-5.8519,-5.9534,-6.0432,-6.1408,-6.1642,-6.172,-6.172,-6.3243,-6.4297,-6.4297,-6.5819,-6.6795,-6.6795,-6.7537,-6.7585,-6.6673,-6.8093,-6.8199,-6.6552,-6.7243,-6.7232,-6.6535,-6.5858,-6.5083,-6.4096,-6.3437,-6.262,-6.1701,-6.1676,-6.168,-6.164,-6.0781,-5.9609,-5.8359,-5.8945,-5.875,-5.8125,-5.8789,-5.8984,-5.8828,-5.8047,-5.7187,-5.6328,0.0,0.0,0.0,0.0,0.0,0.0,0.0,0.0,0.0,0.0,0.0,0.0,0.0,0.0,0.0,0.0,0.0,0.0,0.0,0.0,0.0,0.0,0.0,0.0,0.0,0.0,-5.0165,-5.0321,-5.0165,-5.0165,-5.0282,-4.9774,-5.0008,-5.0867,-5.0867,-5.1063,-5.1414,-5.1414,-5.1414,-5.1336,-5.0438,-4.9579,-4.8685,-4.7849,-4.6793,-4.5831,-4.6353,-4.6053,0.0,0.0,-4.3162,-4.2816,-4.2266,-4.1617,-4.0933,-4.0421,-3.9936,0.0,-3.8904,-3.8974,0.0,0.0,-4.1783,-4.3231,-4.6114,-4.7006,-4.7796,-4.9887,-5.2117,-5.3951,-5.481,-5.6255,-5.7855,0.0,-6.0588,-6.1291,-6.1642,-6.172,-6.133,-6.0315,-6.172,-6.3204,-6.4179,-6.539,-6.6288,-6.6756,-6.7071,-6.7053,-6.6618,-6.7214,-6.7221,-6.651,-6.6804,-6.6896,-6.665,-6.629,-6.545,-6.4114,-6.3779,-6.2913,-6.164,-6.1655,-6.14,-6.0937,-6.1094,-6.0469,-5.9375,-5.9765,-5.9687,-5.9375,-5.9765,-5.9883,-5.9805,-5.8945,-5.8086,-5.7305,0.0,0.0,0.0,0.0,0.0,0.0,0.0,0.0,0.0,0.0,0.0,0.0,0.0,0.0,0.0,0.0,0.0,0.0,0.0,0.0,0.0,0.0,0.0,0.0,0.0,0.0,-5.075,-5.1414,-5.0789,-5.0789,-5.1375,-5.075,-5.0789,-5.1414,-5.1648,-5.1648,-5.1414,-5.1921,-5.1687,-5.1023,-5.0633,-4.9661,-4.8306,-4.695,-4.5271,-4.3642,-4.4031,-4.3728,0.0,0.0,-4.113,-4.0911,-4.0468,-4.0318,-4.0226,-3.9836,-4.0209,-4.0652,-4.0257,0.0,0.0,-4.2643,-4.4826,-4.7086,-4.7788,-4.8918,-5.0342,-5.2099,-5.3747,-5.5309,-5.6684,-5.7582,0.0,-6.0471,-6.1486,-6.2071,-6.2071,-6.1642,-6.0861,-5.9612,-6.0159,-6.133,-6.3047,-6.4398,-6.5601,-6.6655,-6.6633,-6.6574,-6.6543,-6.6718,-6.6704,-6.6495,-6.6456,-6.6496,-6.6573,-6.6607,-6.5757,-6.4014,-6.4092,-6.3205,-6.1641,-6.1641,-6.1322,-6.0781,-6.1445,-6.1211,-6.043,-6.0664,-6.0625,-6.043,-6.0664,-6.0742,-6.0703,-6.0117,-5.9219,-5.8203,0.0,0.0,0.0,0.0,0.0,0.0,0.0,0.0,0.0,0.0,0.0,0.0,0.0,0.0,0.0,0.0,0.0,0.0,0.0,0.0,0.0,0.0,0.0,0.0,0.0,0.0,-5.1375,-5.1414,-5.1375,-5.1375,-5.1414,-5.1375,-5.1375,-5.1453,-5.2273,-5.2195,-5.1492,-5.321,-5.2468,-5.0204,-5.1023,-4.9832,-4.7265,-4.4765,-4.3743,-4.35,-4.2685,0.0,0.0,0.0,-3.8065,-3.7487,-3.8338,-3.8589,0.0,-3.955,-3.9802,0.0,0.0,0.0,-4.2114,-4.6176,-4.7915,-4.9278,-5.1818,-5.245,-5.2972,-5.4723,-5.4495,-5.4741,-5.7304,-5.848,-5.9612,-6.1369,-6.2384,-6.2969,-6.2969,-6.1525,-6.0432,-6.0354,-5.8909,-5.8597,0.0,-6.268,-6.4773,-6.6478,-6.6605,-6.6513,-6.6329,-6.7307,-6.7409,-6.6436,-6.6397,-6.645,-6.6503,-6.663,-6.5822,-6.4101,-6.4218,-6.3398,-6.1718,-6.1718,-6.1679,-6.164,-6.168,-6.1211,-6.0469,-6.1328,-6.1172,-6.0469,-6.1328,-6.164,-6.164,-6.164,-6.0586,-5.9023,0.0,0.0,0.0,0.0,0.0,0.0,0.0,0.0,0.0,0.0,0.0,0.0,0.0,0.0,0.0,0.0,0.0,0.0,0.0,0.0,0.0,0.0,0.0,0.0,0.0,0.0,0.0,-5.0532,-5.0532,-5.0845,-5.1391,-5.1382,-5.1414,-5.1414,-5.1726,-5.1687,-5.1449,-5.2038,-5.1765,-5.0906,-5.0008,-4.9168,-4.8008,-4.4883,-4.331,-4.2485,0.0,0.0,0.0,0.0,0.0,0.0,-3.7375,0.0,0.0,-4.0235,-4.1051,-4.1818,-4.3227,0.0,-4.6714,-4.9274,-5.0986,-5.228,-5.3205,-5.3838,-5.4285,-5.4329,-5.365,-5.3312,-5.4189,-5.5104,-5.6285,-5.7963,-6.0934,-6.2813,-6.2228,-6.2618,-6.1915,-5.9026,-5.9183,0.0,0.0,0.0,0.0,-6.4893,-6.4957,-6.5366,-6.6462,-6.6724,-6.675,-6.6555,-6.6454,-6.6461,-6.6577,-6.6528,-6.5946,-6.4877,-6.3905,-6.3125,-6.2539,-6.1953,-6.1719,-6.1719,-6.1719,-6.1523,-6.125,-6.0937,-6.0664,-6.043,-6.0703,-6.0508,-6.0117,-6.0625,-5.9765,-5.8398,0.0,0.0,0.0,0.0,0.0,0.0,0.0,0.0,0.0,0.0,0.0,0.0,0.0,0.0,0.0,0.0,0.0,0.0,0.0,0.0,0.0,0.0,0.0,0.0,0.0,-4.6718,-4.7303,-4.7805,-4.8121,-4.8549,-4.9129,-4.9751,-5.0022,-5.0094,-5.0995,-5.1229,-5.0992,-5.1613,-5.1137,-4.9922,-4.8794,-4.7803,-4.664,-4.3826,-4.2602,0.0,0.0,0.0,0.0,0.0,0.0,0.0,0.0,-3.8268,-3.9295,-4.1055,-4.2407,-4.3785,-4.6076,-4.8068,-5.0013,-5.2069,-5.3378,-5.4167,-5.4202,-5.4408,-5.4274,-5.3156,-5.2247,-5.1569,-5.1317,-5.2233,-5.3493,-5.4898,-5.7941,-6.0327,-6.0684,-6.1197,-6.0812,-5.8948,-5.9456,0.0,0.0,0.0,0.0,-6.3566,-6.3904,-6.4608,-6.605,-6.6368,-6.6535,-6.6654,-6.6606,-6.6411,-6.6111,-6.6394,-6.5997,-6.4903,-6.3318,-6.2539,-6.2539,-6.1953,-6.1523,-6.125,-6.125,-6.1055,-6.0742,-6.0195,-5.9961,-5.9961,-5.9961,-5.9648,-5.9258,-5.9765,-5.9101,-5.7969,0.0,0.0,0.0,0.0,0.0,0.0,0.0,0.0,0.0,0.0,0.0,0.0,0.0,0.0,0.0,0.0,0.0,0.0,0.0,0.0,0.0,0.0,0.0,0.0,-4.3396,-4.3473,-4.355,-4.3628,-4.4452,-4.4879,-4.4976,-4.6638,-4.7382,-4.7493,-4.9914,-5.0578,-4.9953,-5.1581,-5.0434,-4.745,-4.7428,-4.5891,-4.3475,-4.1755,0.0,0.0,0.0,0.0,0.0,0.0,0.0,0.0,0.0,0.0,-4.0359,-4.2125,-4.383,-4.5878,-4.9157,-5.0685,-5.1958,-5.44,-5.5009,-5.4971,-5.4893,-5.4194,-5.3091,-5.1395,-5.0373,-4.9473,0.0,0.0,-5.1427,-5.2395,-5.4134,-5.6246,-5.885,-5.796,-5.7896,0.0,0.0,0.0,0.0,0.0,0.0,-6.263,0.0,-6.4384,-6.5319,-6.6297,-6.6795,-6.6795,-6.6751,-6.6221,-6.5245,-6.6231,-6.5904,-6.4331,-6.2573,-6.1758,-6.1758,-6.168,-6.1172,-6.039,-6.0351,-5.9922,-5.9219,-5.914,-5.914,-5.914,-5.914,-5.9101,-5.9062,-5.9101,-5.8594,-5.7812,0.0,0.0,0.0,0.0,0.0,0.0,0.0,0.0,0.0,0.0,0.0,0.0,0.0,0.0,0.0,0.0,0.0,0.0,0.0,0.0,0.0,0.0,0.0,0.0,0.0,-4.0504,-4.147,-4.272,0.0,-4.3388,-4.4054,-4.4488,-4.4686,0.0,-4.5351,-4.5898,-4.6328,-4.6756,-4.6825,-4.6491,0.0,-4.4646,-4.4297,0.0,0.0,0.0,0.0,0.0,0.0,0.0,0.0,0.0,0.0,0.0,-4.3072,-4.5443,0.0,-4.9089,-5.124,-5.2919,-5.4206,-5.4854,-5.5009,-5.466,-5.3378,-5.2445,-5.1369,-4.9614,-4.7582,-4.5896,0.0,0.0,0.0,-5.133,-5.5776,0.0,-6.1705,-6.3232,0.0,0.0,0.0,-6.254,-6.1486,-6.1954,0.0,0.0,-6.3143,-6.4197,-6.6304,-6.6673,-6.6795,-6.6795,-6.5981,-6.57,-6.6018,-6.5683,-6.5324,-6.488,-6.3388,-6.268,-6.2612,-6.1327,-6.0625,-6.0351,-5.9765,-5.9375,-5.914,-5.8515,-5.8242,-5.8242,-5.8242,-5.7812,-5.7344,-5.8008,-5.7695,-5.6914,0.0,0.0,0.0,0.0,0.0,0.0,0.0,0.0,0.0,0.0,0.0,0.0,0.0,0.0,0.0,0.0,0.0,0.0,0.0,0.0,0.0,0.0,0.0,0.0,0.0,-3.714,-3.8065,0.0,0.0,0.0,0.0,-4.167,-4.2023,-4.2067,-4.2812,-4.3594,-4.4414,0.0,0.0,0.0,0.0,0.0,0.0,0.0,0.0,0.0,0.0,0.0,0.0,0.0,0.0,-4.1752,-4.3442,-4.4565,-4.5772,-4.8319,0.0,-5.0918,-5.3036,-5.4296,-5.5087,-5.5476,-5.5281,-5.4465,-5.2341,-5.1214,-4.9826,-4.697,-4.5287,0.0,0.0,0.0,0.0,0.0,0.0,0.0,-6.02,-6.2173,-6.3364,0.0,-6.4331,0.0,-6.3516,-6.3867,-6.414,0.0,-6.414,-6.4765,-6.6209,-6.66,-6.6639,-6.6288,-6.5667,-6.5366,-6.5405,-6.4092,-6.3651,-6.4177,-6.2987,-6.2236,-6.1818,-6.085,-5.9998,-5.9297,0.0,-5.8398,-5.8008,-5.7539,-5.7344,-5.7344,-5.7344,-5.7031,-5.664,-5.7148,-5.7031,-5.6601,0.0,0.0,0.0,0.0,0.0,0.0,0.0,0.0,0.0,0.0,0.0,0.0,0.0,0.0,0.0,0.0,0.0,0.0,0.0,0.0,0.0,0.0,0.0,0.0,0.0,0.0,0.0,0.0,0.0,0.0,0.0,0.0,0.0,0.0,0.0,0.0,0.0,0.0,0.0,0.0,0.0,0.0,0.0,0.0,0.0,0.0,0.0,0.0,0.0,0.0,-4.3831,-4.4097,-4.599,-4.7198,-4.8396,-5.0957,-5.1686,-5.2219,-5.4556,-5.5165,-5.532,-5.5825,-5.5398,-5.4077,-5.1314,-4.9915,-4.8098,-4.4081,0.0,0.0,-4.1093,0.0,-4.5035,-4.6318,0.0,-5.3067,-5.7648,-5.9036,-6.0837,-6.4154,-6.5244,-6.573,-6.5775,-6.5658,-6.558,-6.5585,-6.5507,-6.5429,-6.5429,-6.6092,-6.6092,-6.5262,-6.534,-6.4944,-6.4079,-6.2296,-6.1918,-6.2959,-6.1988,-6.1134,-6.0393,-6.0159,-5.928,-5.789,0.0,0.0,-5.6601,-5.6601,-5.6601,-5.6601,-5.6601,-5.6601,-5.6601,-5.6601,-5.6601,-5.6601,0.0,0.0,0.0,0.0,0.0,0.0,0.0,0.0,0.0,0.0,0.0,0.0,0.0,0.0,0.0,0.0,0.0,0.0,0.0,0.0,0.0,0.0,0.0,0.0,0.0,0.0,0.0,0.0,0.0,0.0,0.0,0.0,0.0,0.0,0.0,0.0,0.0,0.0,0.0,0.0,0.0,0.0,0.0,0.0,0.0,0.0,0.0,0.0,0.0,0.0,-4.5173,-4.514,-4.8253,-4.9826,-5.1031,-5.3584,-5.4322,-5.4594,-5.5747,-5.6058,-5.5747,-5.4465,-5.4038,-5.2885,-4.8943,-4.6844,0.0,0.0,0.0,-4.0298,-3.9964,0.0,0.0,-4.8642,0.0,0.0,0.0,0.0,-6.3945,0.0,0.0,0.0,0.0,0.0,0.0,0.0,0.0,0.0,-6.4531,-6.4648,-6.4275,-6.3319,-6.3934,-6.3808,-6.2808,-6.2558,-6.2523,-6.2717,-6.1303,-6.0549,-6.0354,-5.8909,-5.8133,-5.7867,-5.7146,0.0,-5.6601,-5.6601,-5.6601,-5.6601,-5.6601,-5.6601,-5.6601,-5.6601,-5.6601,-5.6601,0.0,0.0,0.0,0.0,0.0,0.0,0.0,0.0,0.0,0.0,0.0,0.0,0.0,0.0,0.0,0.0,0.0,0.0,0.0,0.0,0.0,0.0,0.0,0.0,0.0,0.0,0.0,0.0,0.0,0.0,0.0,0.0,0.0,0.0,0.0,0.0,0.0,0.0,0.0,0.0,0.0,0.0,0.0,0.0,0.0,0.0,0.0,0.0,0.0,0.0,-4.4503,-4.4939,-4.9698,-5.1474,-5.2251,-5.4388,-5.5009,-5.5281,-5.6602,-5.6991,-5.6758,-5.5942,-5.4699,-5.269,-4.8953,0.0,0.0,0.0,0.0,-4.0273,-3.977,0.0,0.0,0.0,0.0,0.0,0.0,0.0,0.0,0.0,0.0,0.0,0.0,0.0,0.0,0.0,0.0,0.0,-6.4297,-6.3867,-6.3388,-6.2928,-6.2765,-6.2503,-6.2075,-6.2075,-6.2093,-6.218,-6.1431,-6.0588,-5.9729,-5.9339,-5.8441,-5.7231,-5.7257,0.0,-5.6601,-5.6601,-5.6601,-5.6601,-5.6601,-5.6601,-5.6601,-5.6601,-5.6601,-5.6601,0.0,0.0,0.0,0.0,0.0,0.0,0.0,0.0,0.0,0.0,0.0,0.0,0.0,0.0,0.0,0.0,0.0,0.0,0.0,0.0,0.0,0.0,0.0,0.0,0.0,0.0,0.0,0.0,0.0,0.0,0.0,0.0,0.0,0.0,0.0,0.0,0.0,0.0,0.0,0.0,0.0,0.0,0.0,0.0,0.0,0.0,0.0,0.0,0.0,0.0,-4.3553,-4.4375,-4.9454,-5.128,-5.1913,-5.3662,-5.4556,-5.5333,-5.6913,-5.7573,-5.7768,-5.7418,-5.5631,-5.3001,-4.9284,-4.6532,0.0,0.0,0.0,-4.0591,-3.9801,0.0,0.0,0.0,0.0,0.0,0.0,0.0,0.0,0.0,0.0,0.0,0.0,0.0,0.0,0.0,0.0,0.0,-6.3711,-6.3086,-6.2735,-6.2735,-6.1946,-6.1588,-6.172,-6.1588,-6.1595,-6.172,-6.1525,-6.0705,-5.9378,-5.969,-5.8753,-5.6918,-5.7408,0.0,0.0,-5.6601,-5.6601,-5.6601,-5.6601,-5.6601,-5.6601,-5.6797,-5.6875,-5.6914,0.0,0.0,0.0,0.0,0.0,0.0,0.0,0.0,0.0,0.0,0.0,0.0,0.0,0.0,0.0,0.0,0.0,0.0,0.0,0.0,0.0,0.0,0.0,0.0,0.0,0.0,0.0,0.0,0.0,0.0,0.0,0.0,0.0,0.0,0.0,0.0,0.0,0.0,0.0,0.0,0.0,0.0,0.0,0.0,0.0,0.0,0.0,0.0,0.0,0.0,0.0,-4.3878,-4.5939,-4.7688,-4.9303,-5.1025,0.0,0.0,-5.6149,-5.7535,-5.8311,-5.6796,-5.5631,-5.3584,-4.8652,0.0,0.0,0.0,-3.9864,-3.9844,-3.9643,-4.045,0.0,0.0,0.0,0.0,0.0,0.0,0.0,0.0,0.0,0.0,0.0,0.0,0.0,0.0,0.0,0.0,0.0,-6.1876,-6.1837,-6.1837,-6.1715,-6.1676,-6.172,-6.1676,-6.1676,-6.1681,-6.09,-6.0432,-6.0237,-5.8714,-5.7933,-5.7738,-5.7015,0.0,0.0,-5.6601,-5.6601,-5.6601,-5.6601,-5.6601,-5.6719,-5.75,-5.7773,-5.789,0.0,0.0,0.0,0.0,0.0,0.0,0.0,0.0,0.0,0.0,0.0,0.0,0.0,0.0,0.0,0.0,0.0,0.0,0.0,0.0,0.0,0.0,0.0,0.0,0.0,0.0,0.0,0.0,0.0,0.0,0.0,0.0,0.0,0.0,0.0,0.0,0.0,0.0,0.0,0.0,0.0,0.0,0.0,0.0,0.0,0.0,0.0,0.0,0.0,0.0,0.0,0.0,-4.2821,-4.3817,0.0,0.0,-5.1847,-5.3973,-5.6408,-5.8311,-5.9283,-5.8117,-5.6032,-5.3219,-4.9129,0.0,0.0,-4.0403,-4.0214,-4.0545,-4.0399,-4.0654,-4.183,0.0,0.0,0.0,0.0,0.0,0.0,0.0,0.0,0.0,0.0,0.0,0.0,0.0,0.0,0.0,0.0,-6.172,-6.172,-6.172,-6.172,-6.172,-6.172,-6.172,-6.172,-6.1681,-6.0822,-6.0119,-5.9573,-5.8909,-5.805,-5.7113,-5.7327,0.0,0.0,-5.6601,-5.6601,-5.6601,-5.6601,-5.6601,-5.6719,-5.7578,-5.789,-5.8008,0.0,0.0,0.0,0.0,0.0,0.0,0.0,0.0,0.0,0.0,0.0,0.0,0.0,0.0,0.0,0.0,0.0,0.0,0.0,0.0,0.0,0.0,0.0,0.0,0.0,0.0,0.0,-3.6013,-3.597,0.0,0.0,0.0,0.0,0.0,0.0,0.0,0.0,0.0,0.0,0.0,0.0,0.0,0.0,0.0,0.0,0.0,0.0,0.0,0.0,0.0,0.0,0.0,0.0,0.0,0.0,0.0,-4.9748,-5.2302,-5.5242,-5.769,-5.9166,-5.8273,-5.5928,-5.2841,0.0,0.0,0.0,-4.1013,-4.1013,-4.1498,-4.1616,-4.1412,-4.1888,-4.3879,0.0,-4.435,0.0,0.0,0.0,0.0,0.0,0.0,0.0,0.0,0.0,0.0,0.0,0.0,0.0,-6.1213,-6.1174,-6.1681,-6.1447,-6.133,-6.133,-6.133,-6.133,-6.133,-6.0705,-6.0198,-5.9846,-5.9339,-5.8597,-5.7738,0.0,0.0,0.0,-5.6719,-5.6601,-5.6601,-5.6601,-5.6758,-5.7109,-5.7969,-5.8437,-5.875,0.0,0.0,0.0,0.0,0.0,0.0,0.0,0.0,0.0,0.0,0.0,0.0,0.0,0.0,0.0,0.0,0.0,0.0,0.0,0.0,0.0,0.0,0.0,0.0,0.0,0.0,0.0,-3.6016,-3.5939,-3.5889,-3.5889,0.0,0.0,0.0,0.0,0.0,0.0,0.0,0.0,0.0,0.0,0.0,0.0,0.0,0.0,0.0,0.0,0.0,0.0,0.0,0.0,0.0,0.0,0.0,0.0,0.0,-4.6658,-5.0303,-5.1991,-5.4971,-5.7418,-5.6524,-5.5034,-5.2686,0.0,0.0,0.0,-4.2649,-4.2291,-4.2499,-4.3241,-4.2687,-4.2354,-4.3183,-4.3397,-4.4676,0.0,0.0,0.0,0.0,0.0,0.0,0.0,0.0,0.0,0.0,0.0,0.0,0.0,-6.008,-5.9924,-6.1642,-6.0861,-6.0393,-6.0393,-6.0393,-6.0393,-6.0393,-6.0393,-6.0861,-6.1603,-5.9885,-5.9573,0.0,0.0,0.0,0.0,-5.6953,-5.6601,-5.6601,-5.6601,-5.7148,-5.8008,-5.8867,-5.9687,-6.0508,0.0,0.0,0.0,0.0,0.0,0.0,0.0,0.0,0.0,0.0,0.0,0.0,0.0,0.0,0.0,0.0,0.0,0.0,0.0,0.0,0.0,0.0,0.0,0.0,0.0,0.0,0.0,-3.5935,-3.5904,-3.6201,-3.6785,-3.6162,-3.6234,0.0,0.0,0.0,0.0,0.0,0.0,0.0,0.0,0.0,0.0,0.0,0.0,0.0,0.0,0.0,0.0,0.0,0.0,0.0,0.0,0.0,0.0,-4.1661,-4.3981,0.0,-4.9176,-5.147,-5.3164,-5.2891,-5.2018,-5.0364,-4.722,0.0,0.0,-4.2525,-4.2265,-4.2646,-4.4044,-4.3102,-4.2947,-4.5531,-4.5025,-4.5315,0.0,0.0,0.0,0.0,0.0,0.0,0.0,0.0,0.0,0.0,0.0,0.0,0.0,-5.8636,-5.8441,-6.0744,-6.0549,-6.0119,-5.9534,-6.008,-6.008,-5.9495,-5.9495,-5.9339,-5.9026,-5.8441,0.0,0.0,0.0,0.0,0.0,-5.7617,-5.7148,-5.664,-5.7265,-5.7656,-5.8008,-5.8867,-5.9726,-6.0508,0.0,0.0,0.0,0.0,0.0,0.0,0.0,0.0,0.0,0.0,0.0,0.0,0.0,0.0,0.0,0.0,0.0,0.0,0.0,0.0,0.0,0.0,0.0,0.0,0.0,0.0,0.0,-3.6411,-3.6723,-3.7157,-3.7703,-3.7464,-3.7303,-3.718,-3.6612,0.0,0.0,0.0,0.0,0.0,0.0,0.0,-4.1033,0.0,0.0,0.0,0.0,0.0,0.0,0.0,0.0,0.0,0.0,0.0,0.0,0.0,-4.2128,-4.3942,0.0,-4.8429,-4.9761,-4.9761,-4.9157,0.0,0.0,0.0,0.0,0.0,-4.2451,-4.3059,-4.4395,-4.3763,-4.362,-4.5479,-4.5153,-4.5276,0.0,0.0,0.0,0.0,0.0,0.0,0.0,0.0,0.0,0.0,0.0,0.0,0.0,0.0,-5.7465,-5.9378,-5.9417,-5.9143,-5.8597,-5.9143,-5.9143,-5.8597,-5.8597,-5.8519,-5.8285,-5.7933,0.0,0.0,0.0,0.0,0.0,-5.8046,-5.7773,-5.7617,-5.8164,-5.8594,-5.8906,-5.9453,-6.0195,-6.0937,0.0,0.0,0.0,0.0,0.0,0.0,0.0,0.0,0.0,0.0,0.0,0.0,0.0,0.0,0.0,0.0,0.0,0.0,0.0,0.0,0.0,0.0,0.0,0.0,0.0,0.0,0.0,-3.7292,-3.8034,-3.8467,-3.8627,-3.9351,-3.8839,-3.7288,-3.7225,0.0,0.0,0.0,0.0,0.0,0.0,0.0,0.0,0.0,0.0,0.0,0.0,0.0,0.0,0.0,0.0,0.0,0.0,0.0,0.0,0.0,0.0,0.0,0.0,0.0,0.0,0.0,0.0,0.0,0.0,0.0,0.0,0.0,0.0,0.0,-4.4537,-4.4639,-4.4395,-4.3761,-4.4372,-4.4968,0.0,0.0,0.0,0.0,0.0,0.0,0.0,0.0,0.0,0.0,0.0,0.0,0.0,0.0,-5.6957,-5.7699,-5.7699,-5.7699,-5.7699,-5.7777,-5.7777,-5.7738,-5.7777,-5.8207,-5.8909,-5.8128,0.0,0.0,0.0,0.0,0.0,-5.8318,-5.8437,-5.9101,-5.9258,-5.9726,-6.039,-6.039,-6.0898,-6.1484,0.0,0.0,0.0,0.0,0.0,0.0,0.0,0.0,0.0,0.0,0.0,0.0,0.0,0.0,0.0,0.0,0.0,0.0,0.0,0.0,0.0,0.0,0.0,0.0,0.0,0.0,0.0,-3.7223,-3.7405,-3.8176,-3.9468,-3.9023,-3.8578,-3.8182,-3.7514,0.0,0.0,0.0,0.0,0.0,0.0,0.0,0.0,0.0,0.0,0.0,-4.1111,-4.11,0.0,0.0,0.0,0.0,0.0,0.0,0.0,0.0,-4.1104,-4.1221,-4.1799,0.0,-4.3506,-4.3506,0.0,0.0,0.0,0.0,0.0,0.0,0.0,0.0,0.0,0.0,-4.5064,-4.6191,-4.6591,-4.725,0.0,0.0,0.0,0.0,0.0,0.0,0.0,0.0,0.0,0.0,0.0,0.0,0.0,-5.7153,-5.6684,-5.6879,-5.6879,-5.6879,-5.6879,-5.7504,-5.7504,-5.6879,-5.7504,-5.7582,-5.7192,-5.7621,0.0,0.0,0.0,0.0,-5.824,-5.8711,-5.8633,-5.832,-5.9609,-6.0234,-6.039,-6.039,-6.0547,-6.0664,0.0,0.0,0.0,0.0,0.0,0.0,0.0,0.0,0.0,0.0,0.0,0.0,0.0,0.0,0.0,0.0,0.0,0.0,0.0,0.0,0.0,0.0,0.0,0.0,0.0,0.0,0.0,0.0,-3.8194,-3.9078,-4.0404,-4.031,-3.9641,-3.8433,-3.7169,0.0,0.0,0.0,0.0,0.0,-4.0739,0.0,0.0,0.0,0.0,0.0,-4.1106,-4.1095,0.0,-4.1084,-4.1117,-4.111,0.0,0.0,0.0,0.0,-4.111,-4.111,-4.111,-4.1695,-4.2318,-4.2318,-4.2669,-4.2889,0.0,0.0,0.0,0.0,0.0,0.0,0.0,0.0,0.0,0.0,-4.6824,0.0,0.0,0.0,0.0,0.0,0.0,0.0,0.0,0.0,0.0,0.0,0.0,0.0,0.0,-5.684,-5.6606,-5.6606,-5.6606,-5.6606,-5.6606,-5.7035,-5.7035,-5.6606,-5.7035,-5.7035,-5.6606,-5.7044,-5.7278,0.0,0.0,0.0,-5.793,-5.8398,-5.8555,-5.8594,-5.9492,-5.9844,-5.9844,-5.9844,-6.0078,-6.0273,0.0,0.0,0.0,0.0,0.0,0.0,0.0,0.0,0.0,0.0,0.0,0.0,0.0,0.0,0.0,0.0,0.0,0.0,0.0,0.0,0.0,0.0,0.0,0.0,0.0,0.0,0.0,0.0,0.0,-4.0057,-4.0916,-4.1797,-4.0866,-3.8419,-3.684,0.0,0.0,0.0,0.0,0.0,-4.0521,0.0,0.0,0.0,0.0,0.0,0.0,0.0,0.0,-4.111,-4.1104,-4.1065,-4.1065,0.0,0.0,0.0,0.0,0.0,-4.111,-4.1766,-4.2429,-4.2195,-4.2202,-4.2259,0.0,0.0,0.0,0.0,0.0,0.0,0.0,0.0,0.0,0.0,0.0,0.0,0.0,0.0,0.0,0.0,0.0,0.0,0.0,0.0,0.0,0.0,0.0,0.0,0.0,-5.6333,-5.6255,-5.6411,-5.6255,-5.6216,-5.6216,-5.6489,-5.6606,-5.6606,-5.6606,-5.6606,-5.6606,-5.6585,-5.6585,0.0,0.0,0.0,-5.7695,-5.7851,-5.8359,-5.9023,-5.914,-5.9219,-5.9219,-5.9336,-5.9648,-5.9805,0.0,0.0,0.0,0.0,0.0,0.0,0.0,0.0,0.0,0.0,0.0,0.0,0.0,0.0,0.0,0.0,0.0,0.0,0.0,0.0,0.0,0.0,0.0,0.0,0.0,0.0,0.0,0.0,0.0,0.0,-4.0009,-4.0889,-4.0304,-3.8444,-3.7464,-3.7401,-3.8124,0.0,0.0,0.0,0.0,0.0,0.0,0.0,0.0,0.0,0.0,0.0,0.0,-4.111,-4.1059,-4.1013,-4.1013,0.0,0.0,0.0,0.0,0.0,-4.1059,-4.2213,-4.3055,-4.165,-4.1812,-4.211,0.0,0.0,0.0,0.0,0.0,0.0,0.0,0.0,0.0,0.0,0.0,0.0,0.0,0.0,0.0,0.0,0.0,0.0,0.0,0.0,0.0,0.0,0.0,0.0,0.0,0.0,-5.4732,-5.5474,-5.4771,-5.442,-5.442,-5.5864,-5.6606,-5.6606,-5.6606,-5.6606,-5.6606,-5.661,-5.6588,0.0,0.0,-5.668,-5.6875,-5.7617,-5.7969,-5.8164,-5.8906,-5.9219,-5.9297,-5.9961,-5.9414,-5.8242,0.0,0.0,0.0,0.0,0.0,0.0,0.0,0.0,0.0,0.0,0.0,0.0,0.0,0.0,0.0,0.0,0.0,0.0,0.0,0.0,0.0,0.0,0.0,0.0,0.0,0.0,0.0,0.0,0.0,-3.9641,-4.0499,-3.9941,-3.9006,-3.777,-3.7381,-3.743,-3.7873,-3.8789,0.0,0.0,0.0,0.0,0.0,0.0,0.0,0.0,0.0,0.0,0.0,0.0,-4.1013,-4.1006,-4.0945,0.0,0.0,0.0,0.0,0.0,-4.1052,-4.1948,-4.2719,-4.1948,-4.2369,0.0,0.0,0.0,0.0,0.0,0.0,0.0,0.0,0.0,0.0,0.0,0.0,0.0,0.0,0.0,0.0,0.0,0.0,0.0,0.0,0.0,0.0,0.0,0.0,0.0,0.0,0.0,-5.4186,-5.4576,-5.4225,-5.399,-5.399,-5.4771,-5.5201,-5.5201,-5.6138,-5.6098,-5.5235,-5.6177,-5.6354,-5.5937,0.0,-5.6601,-5.664,-5.7031,-5.7187,-5.7226,-5.7656,-5.8086,-5.8594,-5.9453,-5.8984,-5.8047,0.0,0.0,0.0,0.0,0.0,0.0,0.0,0.0,0.0,0.0,0.0,0.0,0.0,0.0,0.0,0.0,0.0,0.0,0.0,0.0,0.0,0.0,0.0,0.0,0.0,0.0,-3.8244,-3.9797,-3.9792,-4.0253,-4.1071,-3.9701,-3.8617,-3.7804,-3.7792,-3.7804,-3.7898,-3.9246,-3.9908,-4.0154,0.0,0.0,0.0,0.0,0.0,0.0,0.0,0.0,0.0,0.0,0.0,0.0,0.0,0.0,0.0,-4.0913,-4.0929,-4.0999,-4.1013,-4.1636,-4.2259,-4.205,0.0,0.0,0.0,0.0,0.0,0.0,0.0,0.0,0.0,0.0,0.0,0.0,0.0,0.0,0.0,0.0,0.0,0.0,0.0,0.0,0.0,0.0,0.0,0.0,0.0,0.0,0.0,0.0,-5.3483,-5.3678,-5.3487,-5.3373,-5.3373,-5.3409,-5.36,-5.4037,-5.5357,-5.5274,-5.4064,-5.5365,-5.5734,-5.5351,-5.6015,-5.6406,-5.6601,-5.6601,-5.6601,-5.6601,-5.6601,-5.7265,-5.8242,-5.8711,-5.8867,-5.8945,0.0,0.0,0.0,0.0,0.0,0.0,0.0,0.0,0.0,0.0,0.0,0.0,0.0,0.0,0.0,0.0,0.0,0.0,0.0,0.0,0.0,0.0,0.0,0.0,0.0,-3.8422,-3.885,-3.9786,-3.9786,-4.0253,-4.111,-4.0903,-4.0403,-3.9608,-3.9539,-3.9552,-3.9628,-3.9758,-4.0259,-4.1017,-4.1078,0.0,0.0,0.0,0.0,0.0,0.0,0.0,0.0,0.0,0.0,0.0,0.0,0.0,-4.0917,-4.0896,-4.0952,-4.1007,-4.1098,-4.1668,-4.2105,-4.1288,0.0,0.0,0.0,0.0,0.0,0.0,0.0,0.0,0.0,0.0,0.0,0.0,0.0,0.0,0.0,0.0,0.0,0.0,0.0,0.0,0.0,0.0,0.0,0.0,0.0,0.0,0.0,0.0,0.0,-5.278,-5.2016,-5.1592,-5.1592,-5.1577,-5.2397,-5.4013,-5.4115,-5.4103,-5.3986,-5.4136,-5.4609,-5.5312,-5.5351,-5.5859,-5.6601,-5.6601,-5.6601,-5.6601,-5.6601,-5.7617,-5.9023,-5.8281,-5.9453,-6.1328,0.0,0.0,0.0,0.0,0.0,0.0,0.0,0.0,0.0,0.0,0.0,0.0,0.0,0.0,0.0,0.0,0.0,0.0,0.0,0.0,0.0,0.0,0.0,-3.737,-3.7681,-3.8733,-3.9747,-4.0604,-4.0604,-4.0481,-4.0241,-4.0195,0.0,0.0,-3.9473,-3.9721,-3.9792,-4.0318,-4.0753,-4.1117,-4.111,-4.111,0.0,0.0,0.0,0.0,0.0,0.0,0.0,0.0,-4.0952,-4.0907,-4.0888,-4.0888,-4.0888,-4.0898,-4.0943,-4.0991,-4.1013,-4.124,-4.1544,-4.177,0.0,0.0,0.0,0.0,0.0,0.0,0.0,0.0,0.0,0.0,0.0,0.0,0.0,0.0,0.0,0.0,0.0,0.0,0.0,0.0,0.0,0.0,0.0,0.0,0.0,0.0,0.0,0.0,0.0,-5.1141,-5.1304,-5.1157,-5.0656,-5.064,-5.0988,-5.1659,-5.2685,-5.2923,-5.2417,-5.3515,-5.3867,-5.3711,-5.4258,-5.5,-5.5781,-5.5781,-5.6094,-5.664,-5.7187,-5.7812,-5.8437,-5.8633,-5.9336,-6.0156,0.0,0.0,0.0,0.0,0.0,0.0,0.0,0.0,0.0,0.0,0.0,0.0,0.0,0.0,0.0,0.0,0.0,0.0,0.0,0.0,0.0,0.0,0.0,-3.7214,-3.7214,-3.8883,-4.0052,-4.0676,-4.0942,-4.0733,-4.0103,0.0,0.0,0.0,-3.984,-4.0128,-4.0149,-4.0733,-4.1059,-4.111,-4.111,-4.111,0.0,0.0,0.0,0.0,0.0,0.0,0.0,0.0,-4.0935,-4.0878,-4.0878,-4.0888,-4.0898,-4.0937,-4.0757,-4.057,-4.0578,-4.0578,-4.0733,0.0,0.0,0.0,0.0,0.0,0.0,0.0,0.0,0.0,0.0,0.0,0.0,0.0,0.0,0.0,0.0,0.0,0.0,0.0,0.0,0.0,0.0,0.0,0.0,0.0,0.0,0.0,0.0,0.0,0.0,0.0,-5.0337,-5.0342,-4.98,-4.9522,-4.9517,-4.979,-5.0662,-5.1211,-5.1445,-5.2656,-5.3008,-5.2734,-5.3633,-5.4492,-5.5312,-5.5586,-5.6055,-5.664,-5.7265,-5.7656,-5.7969,-5.8555,-5.9101,-5.9648,0.0,0.0,0.0,0.0,0.0,0.0,0.0,0.0,0.0,0.0,0.0,0.0,0.0,0.0,0.0,0.0,0.0,0.0,0.0,0.0,0.0,0.0,0.0,-3.7175,-3.7175,-3.8832,-3.9682,-3.9721,-4.0595,-4.1015,-4.1015,-4.0999,0.0,0.0,-4.0999,-4.1007,-4.1006,-4.1006,-4.1059,-4.111,-4.111,-4.111,-4.111,0.0,0.0,0.0,0.0,0.0,0.0,0.0,-4.0898,-4.0798,-4.0888,-4.0888,-4.0917,-4.0991,-4.0392,-3.9692,-3.9721,-3.9721,0.0,0.0,0.0,0.0,0.0,0.0,0.0,0.0,0.0,0.0,0.0,0.0,0.0,0.0,0.0,0.0,0.0,0.0,0.0,0.0,0.0,0.0,0.0,0.0,0.0,0.0,0.0,0.0,0.0,0.0,0.0,0.0,-4.8906,-4.8906,-4.8906,-4.8047,-4.8047,-4.8867,-4.8008,-4.8945,-5.1406,-5.1406,-5.1875,-5.2734,-5.3594,-5.4453,-5.5351,-5.6211,-5.6562,-5.6562,-5.6562,-5.7109,-5.789,-5.789,-5.8945,-6.039,0.0,0.0,0.0,0.0,0.0,0.0,0.0,0.0,0.0,0.0,0.0,0.0,0.0,0.0,0.0,0.0,0.0,0.0,0.0,0.0,0.0,0.0,0.0,0.0,0.0,0.0,-3.8751,-4.0595,-4.0859,-4.1007,0.0,0.0,0.0,-4.0991,-4.0991,-4.1007,-4.1006,-4.1006,-4.1059,-4.111,-4.111,-4.111,-4.111,0.0,0.0,0.0,0.0,0.0,0.0,0.0,0.0,0.0,-4.0952,-4.0982,-4.0982,-4.0984,-4.0864,-4.0694,-4.0666,0.0,0.0,0.0,0.0,0.0,0.0,0.0,0.0,0.0,0.0,0.0,0.0,0.0,0.0,0.0,0.0,0.0,0.0,0.0,0.0,0.0,0.0,0.0,0.0,0.0,0.0,0.0,0.0,0.0,0.0,0.0,0.0,0.0,-4.8594,-4.8594,-4.8008,-4.7734,-4.7734,-4.7969,-4.7734,-4.8633,-5.0547,-5.0547,-5.1016,-5.1797,-5.207,-5.2656,-5.3555,-5.4414,-5.4765,-5.4844,-5.5469,-5.5859,-5.6211,-5.7461,-5.8203,-5.8828,0.0,0.0,0.0,0.0,0.0,0.0,0.0,0.0,0.0,0.0,-3.6011,-3.6012,0.0,0.0,0.0,0.0,0.0,0.0,0.0,0.0,0.0,0.0,0.0,0.0,0.0,-3.7179,-3.8377,0.0,0.0,0.0,0.0,0.0,-4.0982,-4.0974,0.0,-4.1015,-4.0999,-4.1006,-4.1059,-4.111,-4.1065,-4.1065,-4.111,0.0,0.0,0.0,0.0,0.0,0.0,0.0,0.0,0.0,-4.1038,0.0,-4.0945,-4.0616,-4.0554,-4.0521,-4.017,0.0,0.0,0.0,0.0,0.0,0.0,0.0,0.0,0.0,0.0,0.0,0.0,0.0,0.0,0.0,0.0,0.0,0.0,0.0,0.0,0.0,0.0,0.0,0.0,0.0,0.0,0.0,0.0,0.0,0.0,0.0,0.0,0.0,-4.7578,-4.7617,-4.7109,-4.707,-4.707,-4.707,-4.707,-4.7812,-4.918,-4.9883,-5.0469,-5.0976,-5.1641,-5.2422,-5.3242,-5.3789,-5.3984,-5.4062,-5.457,-5.5,-5.543,-5.6484,-5.7305,-5.8047,0.0,0.0,0.0,0.0,0.0,0.0,0.0,0.0,0.0,0.0,-3.6016,-3.6014,0.0,0.0,0.0,0.0,0.0,0.0,0.0,0.0,0.0,0.0,0.0,0.0,0.0,0.0,0.0,0.0,0.0,0.0,0.0,0.0,-4.0896,-4.0917,0.0,-4.1015,-4.1015,-4.0999,-4.1059,-4.111,-4.1013,-4.1059,-4.1117,-4.1089,0.0,0.0,0.0,0.0,0.0,0.0,0.0,0.0,-4.1071,-4.1059,-4.0864,-4.0118,-3.9884,-3.9628,0.0,0.0,0.0,0.0,0.0,0.0,0.0,0.0,0.0,0.0,0.0,0.0,0.0,0.0,0.0,0.0,0.0,0.0,0.0,0.0,0.0,0.0,0.0,0.0,0.0,0.0,0.0,0.0,0.0,0.0,0.0,0.0,0.0,0.0,-4.6289,-4.6289,-4.6289,-4.6289,-4.6289,0.0,-4.6289,-4.6719,-4.7539,-4.9219,-5.0039,-5.0273,-5.1875,-5.3008,-5.3672,-5.3711,-5.3711,-5.3672,-5.3906,-5.4492,-5.5195,-5.5273,-5.6367,-5.7773,0.0,0.0,0.0,0.0,0.0,0.0,0.0,0.0,0.0,0.0,0.0,0.0,0.0,0.0,0.0,0.0,0.0,0.0,0.0,0.0,0.0,0.0,0.0,0.0,0.0,0.0,0.0,0.0,0.0,0.0,0.0,0.0,0.0,-4.0982,0.0,-4.0991,-4.1015,-4.0999,-4.102,-4.1026,-4.1013,-4.1033,-4.11,-4.1084,-4.1084,0.0,0.0,0.0,0.0,0.0,0.0,0.0,-4.1106,-4.1089,-4.1039,-4.0863,-4.0366,-3.9972,0.0,0.0,0.0,0.0,0.0,0.0,0.0,0.0,0.0,0.0,0.0,0.0,0.0,0.0,0.0,0.0,0.0,0.0,0.0,0.0,0.0,0.0,0.0,0.0,0.0,0.0,0.0,0.0,0.0,0.0,0.0,0.0,0.0,-4.6289,-4.6289,-4.6289,-4.6289,-4.6289,-4.6289,0.0,-4.6289,-4.6406,-4.6601,-4.7695,-4.8906,-5.0273,-5.125,-5.1445,-5.1055,-5.1719,-5.1601,-5.1211,-5.3203,-5.4101,-5.4375,-5.5039,-5.5976,-5.6875,0.0,0.0,0.0,0.0,0.0,0.0,0.0,0.0,0.0,0.0,0.0,0.0,0.0,0.0,0.0,0.0,0.0,0.0,0.0,0.0,0.0,0.0,0.0,0.0,0.0,0.0,0.0,0.0,0.0,0.0,0.0,0.0,0.0,-4.0991,0.0,-4.1065,-4.1059,-4.1065,-4.1039,-4.105,-4.1039,-4.1084,-4.1106,-4.11,-4.1111,-4.109,-4.1101,0.0,0.0,0.0,0.0,0.0,0.0,0.0,-4.1007,-4.0652,-4.0535,-4.045,0.0,0.0,0.0,0.0,0.0,0.0,0.0,0.0,0.0,0.0,0.0,0.0,0.0,0.0,0.0,0.0,0.0,0.0,0.0,0.0,0.0,0.0,0.0,0.0,0.0,0.0,0.0,0.0,0.0,0.0,0.0,-4.6289,-4.6289,-4.6289,-4.6289,-4.6289,-4.6289,-4.6289,-4.6289,-4.6289,-4.6289,-4.6289,-4.6328,-4.7187,-4.8555,-5.0234,-5.0625,-5.0586,-5.0234,-5.0664,-5.0312,-4.9805,-5.1914,-5.3008,-5.3476,-5.4375,-5.5508,-5.6523,0.0,0.0,0.0,0.0,0.0,0.0,0.0,0.0,0.0,0.0,0.0,0.0,0.0,0.0,0.0,0.0,0.0,0.0,0.0,0.0,0.0,0.0,0.0,0.0,0.0,0.0,-3.8098,0.0,0.0,0.0,0.0,0.0,0.0,-4.0987,0.0,-4.1095,-4.1089,-4.1095,-4.11,-4.1111,-4.11,-4.11,-4.1115,-4.1097,-4.1104,-4.1111,-4.1125,-4.1125,-4.1119,-4.1126,0.0,0.0,0.0,0.0,-4.1004,-4.0312,-4.0543,-4.0689,0.0,0.0,0.0,0.0,0.0,0.0,0.0,0.0,0.0,0.0,0.0,0.0,0.0,0.0,0.0,0.0,0.0,0.0,0.0,0.0,0.0,0.0,0.0,0.0,0.0,0.0,0.0,0.0,0.0,0.0,-4.6289,-4.6289,-4.6289,-4.6289,-4.6289,-4.6289,-4.6289,-4.6289,-4.6289,-4.6289,-4.6289,-4.6289,-4.6328,-4.7031,-4.832,-4.9961,-5.0117,-5.0117,-5.0,-5.0156,-4.9609,-4.8828,-5.0547,-5.1641,-5.2383,-5.3242,-5.4648,-5.6055,0.0,0.0,0.0,0.0,0.0,0.0,0.0,0.0,0.0,0.0,-3.5991,-3.5994,0.0,0.0,0.0,0.0,0.0,0.0,0.0,0.0,0.0,0.0,0.0,0.0,0.0,0.0,0.0,0.0,0.0,0.0,0.0,0.0,0.0,-4.1013,0.0,0.0,-4.102,-4.1084,-4.11,-4.1111,-4.1106,-4.1081,-4.1108,-4.109,-4.1087,-4.1114,-4.1169,-4.1172,-4.1171,-4.1172,-4.1172,0.0,0.0,0.0,-4.1171,-4.1055,-4.0586,0.0,0.0,0.0,0.0,0.0,0.0,0.0,0.0,0.0,0.0,0.0,0.0,0.0,0.0,0.0,0.0,0.0,0.0,0.0,0.0,0.0,0.0,0.0,0.0,0.0,0.0,0.0,0.0,0.0,0.0,0.0,-4.6289,-4.6289,-4.6289,-4.6289,-4.6289,-4.6289,-4.6289,-4.6289,-4.6289,-4.6289,-4.6289,-4.6289,-4.6289,-4.6406,-4.7422,-4.9101,-4.9883,-4.9766,-4.9141,-4.9883,-4.9258,-4.7969,-4.9687,-5.043,-5.0625,-5.1445,-5.2851,-5.4336,0.0,0.0,0.0,0.0,0.0,0.0,0.0,0.0,0.0,0.0,0.0,-3.5991,0.0,0.0,0.0,0.0,0.0,0.0,0.0,0.0,0.0,0.0,0.0,0.0,0.0,0.0,0.0,0.0,0.0,0.0,0.0,-4.0725,-4.0994,0.0,0.0,0.0,0.0,0.0,-4.1094,-4.1094,-4.1094,-4.1097,-4.1111,-4.1084,-4.1087,-4.1129,-4.1171,-4.1211,-4.1211,-4.1211,-4.1211,-4.1172,-4.1167,0.0,0.0,0.0,-4.0859,0.0,0.0,0.0,0.0,0.0,0.0,0.0,0.0,0.0,0.0,0.0,0.0,0.0,0.0,0.0,0.0,0.0,0.0,0.0,0.0,0.0,0.0,0.0,0.0,0.0,0.0,0.0,0.0,0.0,0.0,-4.6289,-4.6289,-4.6289,-4.6289,-4.6289,-4.6289,-4.6289,-4.6289,-4.6289,-4.6289,-4.6289,-4.6289,-4.6289,-4.6289,-4.6289,-4.6992,-4.8203,-4.9101,-4.9258,-4.8945,-4.9297,-4.8711,-4.7734,-4.8984,-4.9453,-4.9648,-5.0937,-5.2187,-5.3281,0.0,0.0,0.0,0.0,0.0,0.0,0.0,0.0,0.0,0.0,0.0,0.0,0.0,0.0,0.0,0.0,0.0,0.0,0.0,0.0,0.0,0.0,0.0,0.0,0.0,0.0,0.0,0.0,0.0,0.0,-4.1437,-4.1211,-4.1569,0.0,-4.1498,0.0,0.0,0.0,0.0,-4.1108,-4.1108,-4.1108,-4.1108,-4.1108,-4.1084,-4.1093,-4.1172,-4.1172,-4.1172,-4.1171,-4.1168,-4.1164,-4.1114,-4.1104,0.0,0.0,0.0,0.0,0.0,0.0,0.0,0.0,0.0,0.0,0.0,0.0,0.0,0.0,0.0,0.0,0.0,0.0,0.0,0.0,0.0,0.0,0.0,0.0,0.0,0.0,0.0,0.0,0.0,0.0,0.0,0.0,0.0,-4.6289,-4.6289,-4.6289,-4.6289,-4.6289,-4.6289,-4.6289,-4.6289,-4.6289,-4.6289,-4.6289,-4.6289,-4.6289,-4.6289,-4.6289,-4.6797,-4.7656,-4.8516,-4.8906,-4.8906,-4.8906,-4.8398,-4.7656,-4.8086,-4.8359,-4.875,-5.0234,-5.1601,-5.2734,0.0,0.0,0.0,0.0,0.0,0.0,0.0,0.0,0.0,0.0,0.0,0.0,0.0,0.0,-3.8495,-3.8534,-3.8531,-3.8567,-3.8606,-3.8555,-3.89,0.0,0.0,0.0,-4.0937,0.0,0.0,0.0,0.0,0.0,-4.2315,-4.1498,-4.1576,-4.2357,-4.1498,-4.1104,-4.1094,0.0,0.0,0.0,0.0,0.0,0.0,0.0,0.0,-4.1089,-4.1093,-4.1094,-4.1093,-4.1121,-4.1124,-4.1089,-4.1097,-4.1097,-4.1115,0.0,0.0,0.0,0.0,0.0,0.0,0.0,0.0,0.0,0.0,0.0,0.0,0.0,0.0,0.0,0.0,0.0,0.0,0.0,0.0,0.0,0.0,0.0,0.0,0.0,0.0,0.0,0.0,0.0,0.0,0.0,0.0,-4.6289,-4.6289,-4.6289,-4.6289,-4.6289,-4.6289,-4.6289,-4.6289,-4.6289,-4.6289,-4.6289,-4.6289,-4.6289,-4.6289,-4.6289,-4.6797,-4.7656,-4.8516,-4.8906,-4.8906,-4.8906,-4.8398,-4.7539,-4.6758,-4.6953,-4.7773,-4.8672,-5.0586,-5.2812,0.0,0.0,0.0,0.0,0.0,0.0,0.0,0.0,0.0,0.0,0.0,0.0,0.0,-3.8612,-3.8804,-3.9312,-3.9897,-4.021,-4.021,-4.0186,-4.0311,-4.0664,0.0,-4.0765,-4.1104,0.0,0.0,0.0,0.0,-4.1257,-4.1566,-4.1261,-4.1261,-4.1566,-4.1222,-4.1108,-4.1104,-4.1108,0.0,0.0,0.0,0.0,0.0,0.0,0.0,0.0,0.0,0.0,0.0,0.0,-4.109,-4.11,-4.1115,-4.1115,-4.1111,-4.1081,0.0,0.0,0.0,0.0,0.0,0.0,0.0,0.0,0.0,0.0,0.0,0.0,0.0,0.0,0.0,0.0,0.0,0.0,0.0,0.0,0.0,0.0,0.0,0.0,0.0,0.0,0.0,0.0,0.0,0.0,0.0,0.0,-4.6289,-4.6289,-4.6289,-4.6289,-4.6289,-4.6289,-4.6289,-4.6289,-4.6289,-4.6289,-4.6289,-4.6289,-4.6289,-4.6289,-4.6797,-4.7656,-4.8516,-4.9219,-4.9687,-4.9141,-4.9062,-4.9141,-4.7695,-4.8008,-4.9375,-5.0195,-5.1445,-5.2812,0.0,0.0,0.0,0.0,0.0,0.0,0.0,0.0,0.0,0.0,0.0,0.0,0.0,0.0,-3.9666,-4.0179,-4.0765,-4.1119,-4.1084,-4.1086,-4.1091,-4.1093,-4.1089,-4.1082,-4.1108,-4.1108,0.0,0.0,0.0,0.0,0.0,0.0,-4.1104,-4.1101,-4.1108,-4.1108,0.0,0.0,0.0,-4.1108,0.0,0.0,-4.115,0.0,0.0,0.0,0.0,0.0,0.0,0.0,0.0,0.0,-4.11,-4.1095,-4.1095,-4.1106,0.0,0.0,0.0,0.0,0.0,0.0,0.0,0.0,0.0,0.0,0.0,0.0,0.0,0.0,0.0,0.0,0.0,0.0,0.0,0.0,0.0,0.0,0.0,0.0,0.0,0.0,0.0,0.0,0.0,0.0,0.0,0.0,-4.6289,-4.6289,-4.6289,-4.6289,-4.6289,-4.6289,-4.6289,-4.6289,-4.6289,-4.6289,-4.6289,-4.6289,-4.6289,-4.6289,-4.6797,-4.7656,-4.8516,-4.9375,-5.0156,-4.957,-4.9687,-5.0078,-4.8945,-4.9336,-5.0703,-5.1523,-5.2578,-5.3672,0.0,0.0,0.0,0.0,0.0,0.0,0.0,0.0,0.0,0.0,0.0,0.0,0.0,0.0,0.0,-4.1125,-4.1126,-4.1129,-4.1094,-4.1092,-4.1089,-4.1089,-4.1119,-4.1111,-4.1108,-4.1111,0.0,0.0,0.0,0.0,0.0,0.0,-4.1111,0.0,-4.1111,-4.1111,-4.1111,0.0,-4.1111,-4.1111,0.0,-4.1077,-4.1153,0.0,0.0,0.0,-4.2335,-4.2363,0.0,-4.1402,0.0,0.0,0.0,0.0,0.0,-4.1149,0.0,0.0,0.0,0.0,0.0,0.0,0.0,0.0,0.0,0.0,0.0,0.0,0.0,0.0,0.0,0.0,0.0,0.0,0.0,0.0,0.0,0.0,0.0,0.0,0.0,0.0,0.0,0.0,0.0,0.0,0.0,-4.6289,-4.6289,-4.6289,-4.6289,-4.6289,-4.6289,-4.6289,-4.6289,-4.6289,-4.6289,-4.6289,-4.6289,-4.6289,-4.6289,-4.6289,-4.6797,-4.7656,-4.8516,-4.9375,-5.0195,-5.0195,-5.0234,-5.0273,-5.0234,-5.0742,-5.1601,-5.2461,-5.3867,-5.5351,0.0,0.0,0.0,0.0,0.0,0.0,0.0,0.0,0.0,0.0,0.0,0.0,0.0,0.0,-4.2048,-4.2051,-4.2051,-4.178,-4.116,-4.1084,-4.1089,-4.1093,-4.1093,-4.1087,-4.1111,-4.1087,0.0,0.0,0.0,0.0,0.0,0.0,0.0,0.0,-4.1087,-4.1089,-4.1092,-4.1092,0.0,0.0,-4.0468,-4.0233,0.0,0.0,0.0,0.0,0.0,-4.1353,-4.2265,0.0,-4.1924,-4.2903,0.0,0.0,-4.2786,0.0,0.0,0.0,-4.1256,0.0,0.0,0.0,0.0,0.0,0.0,0.0,0.0,0.0,0.0,0.0,0.0,0.0,0.0,0.0,0.0,0.0,0.0,0.0,0.0,0.0,0.0,0.0,0.0,0.0,0.0,0.0,-4.6289,-4.6289,-4.6289,-4.6289,-4.6289,-4.6289,-4.6289,-4.6289,-4.6289,-4.6289,-4.6289,-4.6289,-4.6289,-4.6289,-4.6289,-4.6289,-4.6797,-4.7656,-4.8516,-4.9375,-5.0195,-5.0195,-5.0898,-5.1953,-5.1328,-5.2344,-5.4258,-5.4492,-5.5273,-5.625,0.0,0.0,0.0,0.0,0.0,0.0,0.0,0.0,0.0,0.0,0.0,0.0,0.0,0.0,-4.2555,-4.2912,-4.2288,-4.1782,-4.1633,-4.1316,-4.1084,-4.1092,-4.1093,-4.1094,-4.1086,-4.1093,0.0,0.0,0.0,0.0,0.0,0.0,0.0,0.0,0.0,0.0,0.0,0.0,0.0,0.0,-4.0234,0.0,0.0,-3.9836,-4.0195,0.0,0.0,0.0,-4.2861,-4.2368,-4.308,0.0,0.0,0.0,0.0,0.0,0.0,0.0,0.0,0.0,0.0,0.0,0.0,0.0,-4.1611,-4.0764,0.0,0.0,0.0,0.0,0.0,0.0,0.0,0.0,0.0,0.0,0.0,0.0,0.0,0.0,0.0,0.0,0.0,0.0,0.0,0.0,-4.6289,-4.6289,-4.6289,-4.6289,-4.6289,-4.6289,-4.6289,-4.6289,-4.6289,-4.6289,-4.6289,-4.6289,-4.6289,-4.6289,-4.6289,-4.6289,-4.6562,-4.7148,-4.8359,-4.918,-4.9726,-5.0391,-5.1289,-5.2187,-5.2383,-5.3437,-5.4844,-5.5586,-5.6172,-5.6601,0.0,0.0,0.0,0.0,0.0,0.0,0.0,0.0,0.0,0.0,0.0,0.0,0.0,0.0,0.0,-4.3776,-4.241,-4.1789,-4.2342,-4.1751,-4.1322,-4.1248,-4.1244,-4.1244,-4.125,-4.1132,0.0,0.0,0.0,0.0,0.0,0.0,0.0,0.0,0.0,0.0,0.0,0.0,0.0,-4.1033,-4.0309,-4.0468,0.0,0.0,-4.1633,0.0,-4.3266,-4.3695,-4.3851,-4.3962,-4.4429,0.0,0.0,0.0,0.0,0.0,-4.428,0.0,0.0,0.0,-4.3841,0.0,-4.476,0.0,-4.3838,-4.302,-4.2231,0.0,0.0,0.0,0.0,0.0,0.0,0.0,0.0,0.0,0.0,0.0,0.0,0.0,0.0,0.0,0.0,0.0,-4.6289,-4.6289,-4.6289,-4.6289,-4.6289,-4.6289,-4.6289,-4.6289,-4.6289,-4.6289,-4.6289,-4.6289,-4.6289,-4.6289,-4.6289,-4.6289,-4.6289,-4.6289,-4.6289,-4.6406,-4.8125,-4.8906,-4.9023,-5.0703,-5.1445,-5.1719,-5.3242,-5.3984,-5.4336,-5.5898,-5.6523,-5.6601,-4.1094,0.0,0.0,0.0,0.0,0.0,0.0,0.0,0.0,0.0,0.0,0.0,0.0,0.0,0.0,0.0,-4.4343,-4.3629,-4.2393,-4.2827,0.0,-4.2097,-4.207,-4.21,-4.2134,-4.1452,0.0,0.0,0.0,0.0,0.0,0.0,0.0,0.0,0.0,0.0,0.0,0.0,0.0,-4.1108,-4.0948,0.0,-4.109,-4.1094,-4.164,-4.2417,-4.2573,-4.355,-4.4837,-4.548,-4.5408,-4.5067,0.0,0.0,0.0,-4.4929,0.0,0.0,0.0,0.0,0.0,0.0,0.0,0.0,-4.3643,-4.3005,-4.2524,0.0,0.0,0.0,0.0,0.0,0.0,0.0,0.0,0.0,0.0,0.0,0.0,0.0,0.0,0.0,0.0,0.0,-4.6289,-4.6289,-4.6289,-4.6289,-4.6289,-4.6289,-4.6289,-4.6289,-4.6289,-4.6289,-4.6289,-4.6289,-4.6289,-4.6289,-4.6289,-4.6289,-4.6289,-4.6289,-4.6289,-4.6406,-4.8125,-4.8906,-4.9023,-5.0703,-5.1797,-5.2461,-5.2812,-5.3828,-5.5078,-5.543,-5.6015,-5.6719,-4.1081,0.0,0.0,0.0,0.0,0.0,0.0,0.0,0.0,0.0,0.0,0.0,0.0,0.0,0.0,0.0,-4.4741,-4.4065,-4.3637,-4.3552,0.0,0.0,-4.2914,-4.2942,-4.2988,0.0,0.0,0.0,0.0,0.0,0.0,0.0,0.0,0.0,0.0,0.0,0.0,0.0,-4.2786,-4.2357,-4.1921,0.0,-4.1746,-4.1757,-4.2305,-4.3125,-4.3555,-4.4531,-4.5703,-4.6129,-4.6555,0.0,0.0,-4.7123,-4.7813,0.0,-4.5845,-4.602,0.0,0.0,0.0,-4.4904,0.0,0.0,0.0,-4.3974,-4.3635,0.0,0.0,0.0,0.0,0.0,0.0,0.0,0.0,0.0,0.0,0.0,0.0,0.0,0.0,0.0,0.0,0.0,-4.6289,-4.6289,-4.6289,-4.6289,-4.6289,-4.6289,-4.6289,-4.6289,-4.6289,-4.6289,-4.6289,-4.6289,-4.6289,-4.6289,-4.6289,-4.6289,-4.6328,-4.6758,-4.6953,-4.7031,-4.8789,-4.9531,-4.9648,-5.0898,-5.1914,-5.2734,-5.3164,-5.4141,-5.5351,-5.5781,-5.6211,-5.664,-4.11,0.0,0.0,0.0,0.0,0.0,0.0,0.0,0.0,0.0,0.0,0.0,0.0,0.0,0.0,0.0,0.0,-4.4557,0.0,0.0,0.0,0.0,0.0,-4.3708,-4.363,-4.2942,0.0,0.0,0.0,0.0,0.0,0.0,0.0,0.0,0.0,0.0,0.0,0.0,0.0,-4.3684,0.0,-4.3063,-4.2949,-4.3277,-4.371,-4.4297,-4.5195,-4.5937,-4.6562,-4.6716,-4.7676,-4.8552,-4.7215,-4.8174,0.0,0.0,0.0,0.0,0.0,0.0,0.0,0.0,0.0,-4.6469,0.0,0.0,0.0,0.0,0.0,0.0,0.0,0.0,0.0,0.0,0.0,0.0,0.0,0.0,0.0,0.0,0.0,0.0,0.0,0.0,-4.6289,-4.6289,-4.6289,-4.6289,-4.6289,-4.6289,-4.6289,-4.6289,-4.6289,-4.6367,-4.6562,-4.6367,-4.6484,-4.6797,-4.6445,-4.6406,-4.6562,-4.7109,-4.7422,-4.7695,-4.9258,-5.0039,-5.0273,-5.1055,-5.1992,-5.3008,-5.3555,-5.4375,-5.539,-5.6094,-5.6445,-5.664,-4.1169,-4.1643,0.0,0.0,0.0,0.0,0.0,0.0,0.0,0.0,0.0,0.0,0.0,0.0,0.0,0.0,0.0,0.0,-4.8171,0.0,0.0,0.0,0.0,0.0,-4.3708,-4.3584,-4.3543,0.0,0.0,0.0,0.0,0.0,0.0,0.0,-4.2357,0.0,0.0,0.0,-4.3684,0.0,-4.5285,-4.5402,0.0,-4.6345,-4.6555,-4.6133,-4.6992,-4.7383,-4.7577,0.0,-4.8638,-4.8748,0.0,-4.8712,-4.89,-4.8599,0.0,0.0,0.0,0.0,0.0,0.0,-4.8522,0.0,0.0,0.0,-4.6956,-4.6098,0.0,0.0,0.0,0.0,0.0,0.0,0.0,0.0,0.0,0.0,0.0,0.0,0.0,0.0,0.0,0.0,0.0,-4.6289,-4.6289,-4.6289,-4.6289,-4.6289,-4.6289,-4.6289,-4.6289,-4.668,-4.7422,-4.668,-4.707,-4.8594,-4.7031,-4.6719,-4.7422,-4.6758,-4.6875,-4.7656,-4.8633,-4.9492,-5.0273,-5.1055,-5.2383,-5.3789,-5.3125,-5.3867,-5.5312,-5.539,-5.5937,-5.6836,-4.2035,-4.2447,0.0,0.0,0.0,0.0,0.0,0.0,0.0,0.0,0.0,0.0,0.0,0.0,0.0,0.0,0.0,-4.7726,0.0,0.0,0.0,0.0,0.0,0.0,0.0,-4.4596,-4.4345,0.0,-4.3539,0.0,0.0,0.0,0.0,0.0,-4.3684,0.0,-4.4504,0.0,0.0,0.0,0.0,0.0,0.0,-4.6928,-4.6892,-4.7187,-4.8047,-4.8359,-4.8398,0.0,-4.9157,0.0,0.0,0.0,0.0,0.0,0.0,0.0,0.0,0.0,0.0,0.0,0.0,0.0,-4.8358,0.0,-4.8164,0.0,0.0,0.0,0.0,0.0,0.0,0.0,0.0,0.0,0.0,0.0,0.0,0.0,0.0,0.0,0.0,0.0,0.0,0.0,0.0,-4.6289,-4.6289,-4.6289,-4.6523,-4.7031,-4.7031,-4.7461,-4.8359,-4.8008,-4.8164,-4.8906,-4.8164,-4.8008,-4.8359,-4.8516,-4.875,-4.9141,-5.0,-5.0547,-5.0937,-5.125,-5.2422,-5.3945,-5.3594,-5.4531,-5.6055,-5.6055,-5.6289,-5.6797,-4.3208,-4.3475,0.0,0.0,0.0,0.0,0.0,0.0,0.0,0.0,0.0,0.0,-4.9456,-4.9659,0.0,0.0,0.0,-4.9736,0.0,0.0,-4.7267,0.0,0.0,0.0,0.0,0.0,-4.5165,0.0,0.0,0.0,0.0,0.0,0.0,0.0,0.0,-4.5121,-4.5395,0.0,0.0,-4.7611,-4.8499,-4.8833,-4.8691,-4.7476,-4.7385,-4.8086,-4.8945,-4.9258,-4.9297,-4.9492,-4.9985,0.0,-4.9769,0.0,0.0,0.0,0.0,0.0,-4.9527,0.0,0.0,0.0,0.0,0.0,0.0,0.0,0.0,0.0,0.0,0.0,0.0,0.0,0.0,0.0,0.0,0.0,0.0,0.0,0.0,0.0,0.0,0.0,0.0,0.0,0.0,0.0,-4.644,-4.6288,-4.6289,-4.6523,-4.6953,-4.7578,-4.7812,-4.8359,-4.9258,-4.9023,-4.9141,-4.957,-4.9101,-4.9023,-4.9258,-4.9648,-4.9961,-5.0234,-5.082,-5.1211,-5.1406,-5.1641,-5.2656,-5.4023,-5.4258,-5.5273,-5.664,-5.6875,-5.6953,-5.7109,-4.4715,-4.4753,0.0,0.0,0.0,0.0,0.0,0.0,0.0,0.0,0.0,0.0,0.0,0.0,0.0,0.0,0.0,-5.3281,-5.4922,0.0,-4.7929,0.0,0.0,-4.5735,0.0,0.0,0.0,0.0,0.0,0.0,0.0,0.0,0.0,-4.4957,0.0,-4.5455,-4.6275,-4.6309,-4.6791,-4.7666,-4.8568,-4.8889,-4.8896,0.0,-4.879,-4.8984,-4.9844,0.0,0.0,-5.1055,-5.1328,0.0,0.0,0.0,0.0,0.0,0.0,0.0,0.0,0.0,0.0,-5.1242,0.0,0.0,0.0,0.0,-4.9722,0.0,0.0,0.0,0.0,-4.8787,-4.906,-4.9839,-4.9956,0.0,0.0,0.0,0.0,0.0,0.0,0.0,0.0,0.0,0.0,-4.7578,-4.6786,-4.6315,-4.6289,-4.7109,-4.7578,-4.7617,-4.8437,-4.9297,-5.0156,-4.9336,-4.9726,-5.1289,-4.9687,-4.9336,-5.0117,-4.9297,-4.9414,-5.0195,-5.0234,-5.0664,-5.1484,-5.2305,-5.3203,-5.4062,-5.4922,-5.582,-5.6719,-5.7539,-5.7851,-5.8086,-4.6346,0.0,0.0,0.0,0.0,0.0,0.0,-4.8787,0.0,0.0,0.0,0.0,0.0,0.0,-5.5751,0.0,0.0,-5.5033,-5.4492,-5.2482,0.0,0.0,0.0,-4.7704,0.0,0.0,0.0,0.0,0.0,0.0,0.0,0.0,0.0,-4.7479,0.0,-4.7106,0.0,0.0,0.0,0.0,0.0,-5.0555,-5.05,0.0,0.0,-4.9883,-5.0695,-5.1001,0.0,-5.1322,-5.1396,-5.1382,-5.1414,-5.1386,-5.1388,-5.1401,-5.1419,0.0,0.0,0.0,-5.1398,-5.1359,0.0,0.0,0.0,0.0,0.0,0.0,0.0,0.0,-5.0463,-5.0463,-5.0541,-5.0813,-5.0852,-5.0657,0.0,0.0,0.0,0.0,0.0,0.0,0.0,0.0,0.0,-4.6797,-4.6483,-4.6287,0.0,-4.7148,-4.7851,-4.8437,-4.9297,-5.0156,-5.0976,-5.0703,-5.0859,-5.1406,-5.082,-5.0703,-5.0976,-5.0703,-5.0703,-5.0976,-5.0976,-5.1133,-5.1406,-5.1719,-5.2695,-5.4023,-5.4336,-5.5312,-5.664,-5.6914,-5.7383,-5.8125,-4.7667,0.0,0.0,0.0,0.0,0.0,0.0,0.0,0.0,0.0,-5.4519,0.0,-5.6865,0.0,-5.7629,0.0,-5.7952,-5.7101,-5.5073,-5.4372,0.0,-5.1117,-5.0127,0.0,0.0,0.0,0.0,0.0,0.0,-4.8265,0.0,0.0,0.0,0.0,0.0,0.0,0.0,0.0,-4.9602,0.0,0.0,-5.1401,0.0,0.0,-5.0617,-5.0701,0.0,-5.1382,-5.1414,-5.1389,-5.1418,-5.1406,-5.1385,-5.1414,-5.1386,-5.1406,-5.1414,-5.141,-5.1414,-5.1395,0.0,-5.1395,-5.142,0.0,-5.171,0.0,-5.1865,0.0,0.0,0.0,-5.1787,-5.1515,-5.132,-5.132,-5.132,-5.1086,0.0,-5.0034,-4.9893,0.0,0.0,0.0,0.0,0.0,-4.7673,-4.683,-4.6484,-4.6289,0.0,0.0,-4.832,-4.8867,-5.0039,-5.0898,-5.1406,-5.1406,-5.1406,-5.1406,-5.1406,-5.1406,-5.1406,-5.1406,-5.1406,-5.1406,-5.1406,-5.1406,-5.1406,-5.1719,-5.2695,-5.4023,-5.4336,-5.5351,-5.664,-5.6953,-5.7812,-5.8984,0.0,0.0,0.0,0.0,-4.7434,0.0,0.0,0.0,-5.2962,0.0,-5.5512,-5.6948,-5.7908,-5.8724,-5.9572,-6.0393,-6.0463,0.0,-5.6969,-5.6675,0.0,0.0,-5.2064,-5.1557,-5.1574,0.0,0.0,0.0,0.0,0.0,0.0,0.0,0.0,0.0,-4.8803,0.0,-4.8974,-4.9791,-5.0175,-5.0225,-5.1086,-5.1389,-5.1406,-5.1388,-5.1386,-5.1396,-5.1396,-5.1389,-5.1414,-5.1453,-5.1453,-5.1453,-5.1531,-5.1531,-5.1535,-5.1511,-5.1506,-5.1449,-5.1464,-5.1458,-5.1464,-5.1449,-5.1458,0.0,0.0,0.0,-5.284,0.0,0.0,0.0,0.0,-5.199,-5.1359,-5.1398,-5.1359,-5.1281,-5.1281,-5.1281,-5.1289,-5.1317,-5.0589,0.0,0.0,-4.9298,-4.8447,-4.7584,-4.6752,-4.6289,0.0,0.0,-4.8906,-4.8906,-5.0547,-5.1406,-5.1406,-5.1406,-5.1406,-5.1406,-5.1406,-5.1406,-5.1406,-5.1406,-5.1406,-5.1406,-5.1406,-5.1406,-5.1523,-5.2344,-5.3242,-5.4141,-5.4961,-5.5859,-5.6758,-5.7656,-5.8984,-6.0469,-4.9454,-4.9571,-4.9493,0.0,-4.9221,-4.9399,0.0,0.0,0.0,0.0,-5.7882,-5.9694,-6.062,-6.0889,-6.1121,-6.1365,-6.1367,0.0,0.0,0.0,0.0,-5.6638,-5.5695,-5.4911,-5.4256,-5.3767,0.0,-5.1615,0.0,0.0,-5.0711,0.0,0.0,0.0,0.0,0.0,-5.0675,-5.0906,-5.1006,-5.1109,-5.1304,-5.1396,0.0,0.0,-5.1391,-5.1391,-5.1414,-5.1418,-5.1492,-5.2156,-5.2351,-5.2468,-5.3132,-5.3327,-5.3327,-5.3331,-5.2862,-5.2351,-5.2386,-5.2365,-5.2378,-5.2381,-5.2378,-5.2605,0.0,0.0,0.0,0.0,0.0,0.0,0.0,0.0,-5.2064,-5.1445,-5.1296,-5.131,-5.1362,-5.1362,0.0,-5.1357,0.0,0.0,0.0,-4.8997,-4.8265,-4.6768,-4.6427,-4.6282,0.0,0.0,0.0,-4.8906,-5.0547,-5.1406,-5.1406,-5.1406,-5.1406,-5.1406,-5.1406,-5.1406,-5.1406,-5.1406,-5.1406,-5.1406,-5.1406,-5.1758,-5.2383,-5.2617,-5.3594,-5.5,-5.5195,-5.6211,-5.7656,-5.8555,-5.914,-5.9726,-5.0386,0.0,0.0,-5.0537,0.0,0.0,-5.2241,0.0,0.0,-5.6831,-5.866,0.0,-6.0547,-6.125,-6.1719,-6.1719,-6.2031,0.0,0.0,0.0,0.0,-5.9057,-5.82,-5.7303,-5.6406,-5.5271,0.0,-5.2635,0.0,0.0,-5.1375,0.0,0.0,0.0,0.0,-5.0986,0.0,-5.1865,-5.1876,-5.1898,-5.1527,0.0,0.0,-5.1808,-5.1964,-5.203,-5.239,-5.2273,-5.2117,-5.2975,-5.3288,-5.3366,-5.3834,-5.399,-5.399,-5.399,-5.3639,-5.3288,-5.3249,-5.3266,-5.3277,-5.3281,-5.3281,-5.3515,-5.4369,-5.4193,-5.4162,0.0,-5.5048,-5.4484,0.0,0.0,0.0,-5.2029,-5.1561,-5.1303,0.0,0.0,0.0,0.0,-5.0967,0.0,0.0,-4.873,-4.7913,-4.6937,-4.685,0.0,0.0,0.0,0.0,-4.8906,-5.0898,-5.1797,-5.1406,-5.1797,-5.1797,-5.1406,-5.1406,-5.1406,-5.1406,-5.1406,-5.1601,-5.1953,-5.1953,-5.2461,-5.3281,-5.3281,-5.4062,-5.5351,-5.5703,-5.6719,-5.8008,-5.8867,-5.9414,-5.9922,0.0,0.0,0.0,0.0,0.0,0.0,0.0,-5.5325,0.0,-5.8031,0.0,-5.9915,-5.9883,-6.1172,-6.2031,-6.2031,0.0,-6.2539,-6.1015,-6.2344,-6.2459,-6.0803,-6.0076,-5.918,-5.8086,-5.5742,-5.402,0.0,0.0,0.0,0.0,0.0,0.0,0.0,0.0,0.0,0.0,-5.2582,-5.261,0.0,-5.183,-5.1659,-5.1826,-5.257,-5.2882,-5.3,-5.3845,-5.3604,-5.3014,-5.3873,-5.4186,-5.419,-5.4303,-5.4342,-5.4346,-5.4463,-5.4424,-5.4385,-5.4463,-5.4502,-5.4509,-5.4491,-5.4492,-5.4726,-5.5625,-5.5703,-5.609,-5.7662,-5.6782,-5.5938,0.0,0.0,0.0,0.0,0.0,0.0,0.0,0.0,0.0,0.0,0.0,0.0,0.0,0.0,0.0,0.0,0.0,0.0,0.0,0.0,0.0,-4.8906,-5.125,0.0,-5.1562,0.0,-5.2305,-5.1562,-5.1562,-5.1523,-5.1406,-5.1523,-5.1992,-5.2695,-5.2812,-5.3359,-5.418,-5.418,-5.4687,-5.5547,-5.6445,-5.7305,-5.8164,-5.9023,-5.9883,-6.0663,0.0,0.0,0.0,0.0,0.0,-5.6106,-5.8077,-6.0049,-6.1257,-6.1047,-6.3017,-6.4206,-6.3476,-6.3672,-6.3828,-6.3828,-6.3984,0.0,0.0,0.0,0.0,-6.2577,-6.2422,-6.1289,-5.9023,-5.7812,-5.6444,0.0,0.0,-5.3171,-5.2468,-5.2406,0.0,0.0,0.0,0.0,-5.2597,-5.264,0.0,-5.2677,-5.2511,-5.2901,-5.3569,-5.37,-5.3781,-5.3898,-5.4743,-5.4502,-5.3912,-5.4771,-5.5056,-5.5182,-5.5907,-5.6149,-5.6278,-5.702,-5.6708,-5.6315,-5.7001,-5.7235,-5.7207,-5.7226,-5.7226,-5.7461,-5.832,-5.7969,-5.7734,-5.8746,-5.8709,-5.8315,-5.7699,0.0,0.0,0.0,0.0,0.0,0.0,0.0,0.0,0.0,0.0,-5.049,0.0,0.0,0.0,0.0,0.0,0.0,0.0,0.0,0.0,0.0,-5.0664,0.0,0.0,0.0,-5.2617,-5.2461,-5.2461,-5.2109,-5.1406,-5.2148,-5.2578,-5.2734,-5.3476,-5.4258,-5.5078,-5.5078,-5.5586,-5.6445,-5.7344,-5.8203,-5.9062,-5.9883,-6.0737,-6.1502,0.0,0.0,0.0,0.0,0.0,0.0,0.0,-6.3299,0.0,-6.2608,-6.3071,-6.3419,-6.3,-6.3748,-6.4297,-6.4297,-6.4726,-6.4961,-6.4961,-6.4531,-6.4101,-6.3672,-6.2812,0.0,-5.9258,-5.8359,-5.7069,-5.5304,0.0,-5.3795,-5.3366,-5.3357,-5.3108,0.0,0.0,-5.3251,0.0,0.0,0.0,-5.333,-5.3373,-5.3626,-5.4056,-5.4489,-5.4685,-5.4802,-5.5659,-5.5692,-5.5411,-5.5829,-5.5957,-5.6124,-5.6983,-5.6978,-5.678,-5.7653,-5.7615,-5.738,-5.7806,-5.8235,-5.8589,-5.8554,-5.8555,-5.8672,-5.9101,-5.8867,-5.8828,-5.9648,-5.9492,-5.9062,-5.8548,-5.7065,0.0,0.0,0.0,0.0,0.0,0.0,-5.2958,0.0,0.0,0.0,0.0,0.0,0.0,0.0,0.0,0.0,0.0,0.0,0.0,0.0,0.0,0.0,0.0,0.0,0.0,-5.3359,-5.293,-5.2734,-5.2734,-5.2695,-5.3203,-5.4062,-5.4492,-5.5156,-5.5976,-5.5976,-5.6484,-5.7305,-5.7734,-5.8672,-5.9883,-6.0266,-6.0956,-6.1681,0.0,-5.4609,0.0,0.0,-5.9215,0.0,-6.2783,-6.5224,-6.6169,-6.4101,-6.3237,-6.2797,-6.2797,-6.4021,-6.4844,-6.4844,-6.5469,-6.5898,-6.5898,-6.5078,-6.4492,-6.4297,-6.2812,-6.1094,-5.9258,-5.8359,-5.7031,0.0,0.0,-5.4181,-5.399,-5.4186,-5.4138,0.0,0.0,0.0,0.0,0.0,-5.4196,-5.4198,-5.4242,-5.4375,-5.4648,-5.5312,-5.5586,-5.5664,-5.6367,-5.6601,-5.6597,-5.6585,-5.6588,-5.6714,-5.7422,-5.7143,-5.678,-5.7656,-5.789,-5.7969,-5.832,-5.8828,-5.9258,-5.9414,-5.9336,-5.9219,-5.9219,-5.9336,-5.9609,-6.0039,-5.9765,-5.9453,-5.9375,-5.8267,0.0,0.0,0.0,0.0,0.0,0.0,0.0,0.0,0.0,0.0,-5.1006,0.0,0.0,0.0,0.0,0.0,0.0,0.0,0.0,0.0,0.0,-5.2617,-5.2969,0.0,-5.4101,-5.4258,-5.3594,-5.3516,-5.3984,-5.3476,-5.3984,-5.5312,-5.5508,-5.6055,-5.6875,-5.707,-5.7578,-5.8203,-5.8359,-5.9258,-6.0426,-6.06,-6.1086,-6.1654,0.0,0.0,0.0,0.0,0.0,0.0,0.0,-6.5229,-6.6797,-6.6562,-6.6445,-6.6406,-6.6406,-6.6562,-6.664,-6.664,-6.6719,-6.6797,-6.6797,-6.5976,-6.5117,-6.4336,-6.3398,-6.1719,-5.9258,-5.8359,-5.7031,0.0,0.0,-5.4767,-5.4025,-5.481,-5.4732,0.0,0.0,0.0,0.0,-5.4836,-5.5169,-5.5154,-5.5195,-5.5664,-5.6367,-5.6445,-5.6484,-5.6484,-5.6562,-5.6601,-5.6601,-5.6601,-5.6601,-5.6601,-5.6719,-5.6679,-5.6758,-5.7656,-5.789,-5.8242,-5.9765,-5.9687,-5.9375,-6.0117,-5.9726,-5.9219,-5.9219,-5.9765,-6.0117,-5.9453,-5.9844,-6.0273,-6.0273,-6.0156,-5.9795,0.0,0.0,0.0,0.0,0.0,-5.4736,-5.3895,0.0,0.0,-5.0094,-5.003,0.0,0.0,0.0,0.0,0.0,0.0,0.0,-4.8906,0.0,-5.2266,-5.3867,-5.3945,-5.4414,-5.5195,-5.5117,-5.4687,-5.4023,-5.4726,-5.5156,-5.5351,-5.6133,-5.6953,-5.7851,-5.8633,-5.8984,-5.914,-5.9883,-6.0268,-6.0514,-6.1291,-6.1556,-6.1539,0.0,0.0,0.0,0.0,0.0,0.0,0.0,-6.6246,-6.6914,-6.6914,-6.6914,-6.6914,-6.6914,-6.6914,-6.668,-6.6172,-6.6133,-6.5898,-6.5351,-6.4531,-6.3633,-6.2773,-6.1914,-6.0508,-5.8476,-5.8086,-5.7304,0.0,0.0,0.0,-5.5591,-5.5903,0.0,0.0,0.0,-5.5123,-5.481,-5.5145,-5.531,-5.5351,-5.5859,-5.6289,-5.6601,-5.6601,-5.6601,-5.6601,-5.6601,-5.6601,-5.6601,-5.6601,-5.6601,-5.668,-5.7226,-5.7031,-5.6758,-5.7656,-5.789,-5.8047,-5.8711,-5.9062,-5.9297,-5.9609,-5.9453,-5.9219,-5.9219,-5.9453,-5.9609,-5.9258,-5.9453,-5.9687,-5.9687,-5.9687,-5.9725,-5.9865,0.0,0.0,0.0,0.0,0.0,-5.4622,0.0,-5.0981,0.0,-5.067,-5.0575,0.0,0.0,0.0,0.0,0.0,0.0,-4.9547,0.0,-5.2734,-5.3945,-5.4492,-5.5234,-5.6055,-5.5547,-5.539,-5.5547,-5.539,-5.5859,-5.6875,-5.7226,-5.7851,-5.8711,-5.9062,-5.949,-5.9947,-6.0259,-6.0651,-6.111,-6.1439,-6.1507,-6.1352,-6.2253,0.0,-6.2295,0.0,-6.432,-6.448,-6.6589,-6.6443,-6.6328,-6.6836,-6.6445,-6.6211,-6.6484,-6.6523,-6.6172,-6.5273,-6.5234,-6.4961,-6.4336,-6.3476,-6.2617,-6.1758,-6.0859,0.0,-5.793,-5.789,-5.7343,-5.6206,-5.6473,0.0,0.0,0.0,0.0,0.0,-5.5825,-5.5556,-5.5335,-5.5585,-5.5664,-5.5742,-5.6367,-5.6601,-5.6601,-5.6601,-5.6601,-5.6601,-5.6601,-5.6601,-5.6601,-5.6601,-5.6601,-5.6719,-5.7305,-5.7109,-5.6719,-5.7344,-5.7539,-5.7578,-5.7812,-5.8164,-5.8515,-5.875,-5.8633,-5.8437,-5.8437,-5.8633,-5.8906,-5.914,-5.9219,-5.9219,-5.9219,-5.9219,-5.9375,-5.9961,0.0,0.0,0.0,-5.8037,0.0,-5.5823,-5.3475,-5.1679,-5.1138,-5.1115,0.0,0.0,0.0,0.0,0.0,0.0,0.0,0.0,0.0,0.0,0.0,-5.4961,-5.5742,-5.6601,-5.5976,-5.6133,-5.6953,-5.6601,-5.7109,-5.8281,-5.8515,-5.8984,-5.9567,-5.984,-6.0253,-6.0737,-6.073,-6.1004,-6.146,-6.1434,-6.1337,-6.1173,-6.3945,-6.4255,-6.4799,-6.6562,-6.6133,-6.5859,-6.6758,-6.543,-6.4961,-6.668,-6.539,-6.4648,-6.5508,-6.5625,-6.5273,-6.4375,-6.4336,-6.4297,-6.4297,-6.3476,-6.2617,0.0,0.0,-5.9609,-5.793,-5.789,-5.7031,-5.5312,0.0,0.0,-5.5318,0.0,-5.6156,-5.5352,-5.6216,-5.6119,-5.5351,-5.6211,-5.6562,-5.6601,-5.6601,-5.6601,-5.6601,-5.6601,-5.6601,-5.6601,-5.6601,-5.6601,-5.6601,-5.6601,-5.6601,-5.6601,-5.6601,-5.6601,-5.6601,-5.6601,-5.6601,-5.6797,-5.7656,-5.7265,-5.6836,-5.7695,-5.7265,-5.664,-5.664,-5.7305,-5.8164,-5.9023,-5.9219,-5.9219,-5.9219,-5.9219,-5.9219,-5.9219,0.0,0.0,0.0,-5.814,0.0,-5.7676,-5.5404,-5.3072,-5.1254,0.0,0.0,0.0,0.0,0.0,0.0,0.0,0.0,-5.1178,-5.2939,0.0,-5.5195,-5.5273,-5.5742,-5.6601,-5.6601,-5.7031,-5.789,-5.875,-5.914,-5.9219,-6.0039,-6.0385,-6.0471,-6.133,-6.158,-6.1484,-6.1499,-6.1399,-6.1286,-6.1303,-6.1173,-6.1002,-6.4825,-6.5188,-6.5545,-6.6719,-6.6172,-6.5898,-6.6758,-6.543,-6.4726,-6.5859,-6.5,-6.418,-6.3867,-6.4375,-6.4375,0.0,-6.3398,-6.3164,0.0,-6.2265,-6.1719,-6.0859,-6.0039,-5.9062,-5.793,-5.7305,-5.6758,-5.6172,0.0,0.0,0.0,-5.6458,-5.6468,-5.6207,-5.6481,-5.6444,-5.6211,-5.6484,-5.6601,-5.6601,-5.6601,-5.6601,-5.6601,-5.6601,-5.6601,-5.6601,-5.6601,-5.6601,-5.6601,-5.6601,-5.6601,-5.6601,-5.6601,-5.6601,-5.6601,-5.6601,-5.6601,-5.664,-5.6953,-5.6797,-5.668,-5.6953,-5.6797,-5.6601,-5.6601,-5.7265,-5.7969,-5.8242,-5.8789,-5.9023,-5.8437,-5.8789,-5.9023,-5.8398,-5.8828,0.0,-6.0234,0.0,-5.7446,-5.7644,-5.5821,-5.4103,0.0,-5.2235,0.0,0.0,0.0,0.0,0.0,0.0,0.0,0.0,-5.37,0.0,-5.5059,-5.5775,-5.6289,-5.6601,-5.7187,-5.793,-5.8789,-5.9062,-5.949,-6.0022,-6.0295,-6.0684,-6.1169,-6.145,-6.1473,-6.1345,-6.1352,-6.1264,-6.1116,-6.1116,-6.1002,-6.0933,-6.539,-6.5833,-6.6117,-6.6361,-6.57,-6.5312,-6.5859,-6.4453,-6.375,-6.4961,-6.4062,-6.3242,-6.3008,-6.3203,0.0,-6.2578,-6.25,-6.2265,-6.1758,-6.1719,-6.1172,-6.0,-5.9453,-5.8633,-5.7422,-5.6875,0.0,-5.6601,-5.6601,-5.66,-5.6588,-5.6588,-5.6597,-5.6601,-5.6601,-5.6601,-5.6601,-5.6601,-5.6601,-5.6601,-5.6601,-5.6601,-5.6601,-5.6601,-5.6601,-5.6601,-5.6601,-5.6601,-5.6601,-5.6601,-5.6601,-5.6601,-5.6601,-5.6601,-5.6601,-5.6601,-5.6601,-5.6601,-5.6601,-5.6601,-5.6601,-5.6601,-5.6601,-5.6601,-5.6601,-5.7539,-5.8281,-5.7969,-5.8828,-5.9297,-5.8125,-5.8359,-5.8437,-5.7539,-5.7851,-5.8594,-5.9726,0.0,-5.7855,0.0,0.0,0.0,0.0,-5.3553,-5.3313,0.0,0.0,0.0,0.0,0.0,0.0,-5.3227,-5.468,0.0,-5.5458,-5.6107,-5.6632,-5.7031,-5.8241,-5.9104,-5.9648,-5.9904,-6.0301,-6.0822,-6.075,-6.0983,-6.1433,-6.1429,-6.1352,-6.1173,-6.1173,-6.106,-6.0923,-6.0923,-6.0877,-6.0935,-6.5429,-6.6014,0.0,0.0,-6.4782,0.0,-6.4296,-6.2812,-6.2305,-6.3984,-6.2734,-6.1992,-6.2812,-6.2187,-6.1719,-6.1719,0.0,0.0,0.0,-6.1719,-6.1015,-5.9453,-5.9258,-5.8437,-5.6836,-5.664,-5.6601,-5.6601,-5.6601,-5.6601,-5.6601,-5.6601,-5.6601,-5.6601,-5.6601,-5.6601,-5.6601,-5.6601,-5.6601,-5.6601,-5.6601,-5.6601,-5.6601,-5.6601,-5.6601,-5.6601,-5.6601,-5.6601,-5.6601,-5.6601,-5.6601,-5.6601,-5.6601,-5.6601,-5.6601,-5.6601,-5.6601,-5.6601,-5.6601,-5.6601,-5.6601,-5.6601,-5.664,-5.668,-5.668,-5.8047,-5.9023,-5.8164,-5.9297,-5.9922,-5.8281,-5.793,-5.7617,-5.6758,-5.664,-5.7265,-5.8867,-5.8359,-5.8075,0.0,0.0,0.0,0.0,-5.4946,-5.4559,0.0,0.0,0.0,0.0,0.0,-5.4953,-5.4813,-5.5741,-5.6283,-5.6283,-5.6419,-5.6959,-5.7889,-5.9517,-6.0358,-6.0463,-6.1041,-6.1368,-6.1466,-6.1358,-6.1268,-6.1286,-6.1286,-6.1155,-6.0983,-6.0983,-6.0902,-6.0819,-6.0858,-6.0896,-6.1012,0.0,0.0,-6.4062,-6.4531,-6.3872,-6.3525,-6.4197,-6.2809,-6.2109,-6.3164,-6.2383,-6.1797,-6.1992,-6.1836,-6.1719,-6.1719,-6.1719,-6.1719,-6.1719,-6.1719,-6.1523,-6.1133,-5.9883,-5.9023,-5.8594,-5.7265,-5.6601,-5.6601,-5.6601,-5.6601,-5.6601,-5.6601,-5.6601,-5.6601,-5.6601,-5.6601,-5.6601,-5.6601,-5.6601,-5.6601,-5.6601,-5.6601,-5.6601,-5.6601,-5.6601,-5.6601,-5.6601,-5.6601,-5.6601,-5.6601,-5.6601,-5.6601,-5.6601,-5.6601,-5.6601,-5.6601,-5.6601,-5.6601,-5.6601,-5.6601,-5.6601,-5.6601,-5.7109,-5.7578,-5.7578,-5.8906,-5.9883,-5.9062,-5.9687,-6.0078,-5.9062,-5.8359,-5.7617,-5.6758,-5.7148,-5.7734,-5.8164,-5.8492,-5.8503,0.0,-5.771,-5.7074,-5.6012,-5.5238,-5.5017,0.0,0.0,0.0,0.0,-5.5758,-5.5559,-5.4813,-5.6244,-5.7056,-5.7134,-5.7799,-5.8583,-5.9542,-5.9943,-6.0459,-6.1081,-6.1227,-6.1327,-6.1369,-6.1303,-6.1208,-6.1059,-6.1059,-6.0963,-6.0834,-6.0834,-6.0827,-6.0858,-6.155,-6.1781,-6.1973,-6.2891,-6.3321,-6.3633,-6.3672,-6.3321,-6.3047,-6.3086,-6.2326,-6.1868,-6.2341,-6.1991,-6.1719,-6.1719,-6.1719,-6.1719,-6.1719,-6.1719,-6.1719,-6.1719,-6.1719,-6.1367,-6.0586,-5.9687,-5.8828,-5.8047,-5.707,-5.6601,-5.6601,-5.6601,-5.6601,-5.6601,-5.6601,-5.6601,-5.6601,-5.6601,-5.6601,-5.6601,-5.6601,-5.6601,-5.6601,-5.6601,-5.6601,-5.6601,-5.6601,-5.6601,-5.6601,-5.6601,-5.6601,-5.6601,-5.6601,-5.6601,-5.6601,-5.6601,-5.6601,-5.6601,-5.6601,-5.6601,-5.6601,-5.6601,-5.6601,-5.6719,-5.7109,-5.7539,-5.8008,-5.8398,-5.9492,-6.0156,-5.9375,-5.9844,-6.0039,-5.8828,-5.8203,-5.7734,-5.7265,-5.7575,-5.8008,-5.835,-5.8771,-5.8658,-5.7727,-5.7538,-5.7112,-5.6205,-5.5664,-5.5581,-5.6071,-5.566,0.0,-5.6094,-5.6466,-5.6256,-5.5393,-5.6631,-5.7327,-5.7366,-5.8624,-5.9491,-5.9972,-6.0367,-6.0827,-6.128,-6.1194,-6.1134,-6.1157,-6.1118,-6.1232,-6.1481,-6.1095,-6.1087,-6.1358,-6.0973,-6.105,-6.1435,-6.1935,-6.232,-6.282,-6.2813,-6.3399,-6.3672,-6.293,-6.2813,-6.254,-6.1798,-6.172,-6.1686,-6.1704,-6.1715,-6.1718,-6.1718,-6.1718,-6.1718,-6.1718,-6.1718,-6.1718,-6.1719,-6.1719,-6.1015,-5.9453,-5.9258,-5.8437,-5.6836,-5.668,-5.6601,-5.6601,-5.6601,-5.6601,-5.6601,-5.6601,-5.6601,-5.6601,-5.6601,-5.6601,-5.6601,-5.6601,-5.6601,-5.6601,-5.6601,-5.6601,-5.6601,-5.6601,-5.6601,-5.6601,-5.6601,-5.6601,-5.6601,-5.6601,-5.6601,-5.6601,-5.6601,-5.6601,-5.6601,-5.6601,-5.6601,-5.6601,-5.6601,-5.6601,-5.6875,-5.8008,-5.8203,-5.832,-5.918,-6.0,-6.0351,-5.9531,-5.9922,-5.9922,-5.8398,-5.8008,-5.789,-5.789,-5.789,-5.8075,-5.8711,0.0,-5.8426,-5.7417,-5.7383,-5.7151,-5.6283,-5.6304,-5.6381,-5.6381,-5.6381,-5.6346,-5.6348,-5.7004,-5.7061,-5.6364,-5.7214,-5.7717,-5.7871,-5.9341,-6.0035,-5.9958,-6.0706,-6.1142,-6.1228,-6.1004,-6.0904,-6.0935,-6.0858,-6.1281,-6.2012,-6.1166,-6.132,-6.2012,-6.1127,-6.132,-6.2089,-6.2243,-6.2781,-6.3628,-6.1915,-6.1993,-6.2071,-6.1915,-6.1915,-6.1876,-6.172,-6.172,-6.1681,-6.1686,-6.169,-6.1697,-6.1711,-6.1711,-6.1711,-6.1711,-6.1711,-6.1715,-6.1719,-6.1719,-6.125,-6.0273,-5.957,-5.8711,-5.7734,-5.6992,-5.6601,-5.6601,-5.6601,-5.6601,-5.6601,-5.6601,-5.6601,-5.6601,-5.6601,-5.6601,-5.6601,-5.6601,-5.6601,-5.6601,-5.6601,-5.6601,-5.6601,-5.6601,-5.6601,-5.6601,-5.6601,-5.6601,-5.6601,-5.6601,-5.6601,-5.6601,-5.6601,-5.6601,-5.6601,-5.6601,-5.6601,-5.6601,-5.6601,-5.6601,-5.7148,-5.9453,-5.9492,-5.9219,-6.0039,-6.0898,-6.125,-6.039,-6.0312,-6.0117,-5.918,-5.8398,-5.7889,-5.7906,-5.78,-5.7767,-5.7875,0.0,-5.7412,-5.6532,-5.694,-5.7288,-5.7134,-5.7717,-5.8105,-5.8105,-5.8066,-5.8046,-5.8027,-5.8142,-5.8142,-5.8046,-5.8857,-5.9667,-6.0439,-6.0689,-6.0783,-6.074,-6.0872,-6.0927,-6.0858,-6.0843,-6.0843,-6.0819,-6.0819,-6.1281,-6.2012,-6.1166,-6.132,-6.2012,-6.1127,-6.132,-6.2166,-6.2858,-6.3666,-6.4512,-6.172,-6.172,-6.172,-6.172,-6.172,-6.172,-6.172,-6.172,-6.172,-6.172,-6.172,-6.1686,-6.1694,-6.1694,-6.1694,-6.1694,-6.1694,-6.1701,-6.1707,-6.1249,-6.0625,-5.9805,-5.8945,-5.8086,-5.7226,-5.6797,-5.6601,-5.6601,-5.6601,-5.6601,-5.6601,-5.6601,-5.6601,-5.6601,-5.6601,-5.6601,-5.6601,-5.6601,-5.6601,-5.6601,-5.6601,-5.6601,-5.6601,-5.6601,-5.6601,-5.6601,-5.6601,-5.6601,-5.6601,-5.6601,-5.6601,-5.6601,-5.6601,-5.6601,-5.6601,-5.6601,-5.6601,-5.6719,-5.7187,-5.7305,-5.7812,-5.9883,-6.0117,-6.0078,-6.0898,-6.1406,-6.1445,-6.0586,-6.039,-6.0,-5.8711,-5.8119,-5.7946,-5.8414,-5.8027,0.0,-5.8195,-5.8168,-5.7754,-5.6845,-5.7409,-5.7892,-5.7892,-5.8221,-5.8432,-5.8432,-5.8412,-5.8392,-5.8371,-5.8796,-5.9044,-5.8963,-5.9451,-6.0089,-6.0955,-6.0955,-6.0911,-6.0866,-6.0866,-6.0804,-6.0781,-6.0781,-6.0781,-6.0781,-6.0781,-6.155,-6.2666,-6.182,-6.2281,-6.3358,-6.2474,-6.2666,-6.3474,-6.3858,-6.4551,-6.5359,-6.172,-6.172,-6.172,-6.172,-6.172,-6.1676,-6.166,-6.1671,-6.1676,-6.166,-6.1671,-6.172,-6.172,-6.172,-6.172,-6.172,-6.172,-6.172,-6.172,-6.0887,-6.0038,-5.9218,-5.8163,-5.7265,-5.6601,-5.6601,-5.6601,-5.6601,-5.6601,-5.6601,-5.6601,-5.6601,-5.6601,-5.6601,-5.6601,-5.6601,-5.6601,-5.6601,-5.6601,-5.6601,-5.6601,-5.6601,-5.6601,-5.6601,-5.6601,-5.6601,-5.6601,-5.6601,-5.6601,-5.6601,-5.6601,-5.6601,-5.6601,-5.6758,-5.6914,-5.6914,-5.7031,-5.7383,-5.8242,-5.8203,-5.8359,-6.0234,-6.0547,-6.0625,-6.1484,-6.1719,-6.1523,-6.0859,-6.0694,-6.0202,-5.8714,-5.8364,-5.8412,-5.8854,0.0,-5.804,0.0,-5.8606,-5.8296,-5.7564,-5.8201,-5.8721,-5.8721,-5.8855,-5.8971,-5.8971,-5.895,-5.8929,-5.8886,-5.954,-5.9865,-5.9781,-5.9909,-6.0239,-6.085,-6.0888,-6.0866,-6.0781,-6.0781,-6.0896,-6.1089,-6.0896,-6.0896,-6.1089,-6.0896,-6.1743,-6.3243,-6.2435,-6.3089,-6.4512,-6.3628,-6.382,-6.4589,-6.4589,-6.5166,-6.5897,-6.172,-6.172,-6.172,-6.172,-6.172,-6.166,-6.1517,-6.1602,-6.166,-6.1509,-6.1609,-6.172,-6.172,-6.172,-6.172,-6.172,-6.172,-6.172,-6.172,-6.0861,-6.0015,-5.9134,-5.7571,-5.6673,-5.6593,-5.6593,-5.6598,-5.6601,-5.6601,-5.6601,-5.6601,-5.6601,-5.6601,-5.6601,-5.6601,-5.6601,-5.6601,-5.6601,-5.6601,-5.6601,-5.6601,-5.6601,-5.6601,-5.6601,-5.6601,-5.6601,-5.6601,-5.6601,-5.6601,-5.6601,-5.6601,-5.6601,-5.6601,-5.7148,-5.7812,-5.7812,-5.8398,-5.918,-6.0,-5.9062,-5.8515,-6.0976,-6.1015,-6.0625,-6.1484,-6.1719,-6.168,-6.1601,-6.1529,-6.1247,-6.03,-6.0009,-5.9666,-5.8954,0.0,0.0,-5.8596,-5.849,-5.8394,-5.8335,-5.9068,-5.9608,-5.9608,-6.0299,-6.0718,-6.0718,-6.0673,-6.0612,-6.0627,-6.0666,-6.0704,-6.0704,-6.0704,-6.0766,-6.0781,-6.0781,-6.0781,-6.0781,-6.0781,-6.1204,-6.1973,-6.1166,-6.1243,-6.1935,-6.1127,-6.1743,-6.3243,-6.2435,-6.3089,-6.4512,-6.3628,-6.382,-6.4589,-6.4589,-6.5166,-6.5897,-6.1373,-6.1373,-6.1373,-6.1373,-6.1373,-6.1362,-6.1316,-6.1351,-6.1362,-6.1316,-6.1481,-6.1385,-6.0839,-6.1348,-6.1486,-6.0939,-6.1408,-6.172,-6.172,-6.09,-5.9773,-5.8414,-5.7242,-5.6618,-5.6618,-5.6618,-5.6582,-5.6588,-5.6595,-5.6598,-5.6598,-5.6598,-5.6598,-5.6598,-5.6598,-5.6598,-5.6598,-5.6598,-5.6598,-5.6598,-5.6598,-5.6598,-5.6598,-5.6598,-5.66,-5.6601,-5.6599,-5.66,-5.6601,-5.6601,-5.6601,-5.668,-5.7226,-5.7617,-5.8081,-5.9104,-5.9254,-5.9355,-6.0629,-6.021,-5.9798,-6.1286,-6.1426,-6.1248,-6.1481,-6.1586,-6.1606,-6.1524,-6.145,-6.1151,-6.0307,-6.0035,-5.9818,-5.9476,0.0,-5.8664,-5.9225,-5.9184,-5.9121,-5.9121,-5.987,-6.0388,-6.0388,-6.0673,-6.0866,-6.0866,-6.0804,-6.0781,-6.0781,-6.0781,-6.0781,-6.0781,-6.0781,-6.0781,-6.0781,-6.0781,-6.0781,-6.0819,-6.1358,-6.1781,-6.2089,-6.1743,-6.1781,-6.205,-6.1166,-6.1743,-6.3281,-6.2974,-6.3858,-6.5359,-6.5051,-6.5128,-6.5397,-6.5397,-6.5628,-6.5897,-6.1186,-6.1186,-6.1186,-6.1186,-6.1186,-6.1172,-6.1128,-6.1158,-6.1172,-6.1128,-6.1058,-6.0895,-6.0544,-6.0915,-6.1034,-6.0683,-6.119,-6.1541,-6.1541,-6.0783,-5.9592,-5.7933,-5.7035,-5.6606,-5.6606,-5.6606,-5.6606,-5.6606,-5.6582,-5.6585,-5.6585,-5.6585,-5.6585,-5.6585,-5.6585,-5.6585,-5.6585,-5.6585,-5.6585,-5.6585,-5.6585,-5.6585,-5.6585,-5.6585,-5.6593,-5.6598,-5.6595,-5.679,-5.6987,-5.6933,-5.7083,-5.7441,-5.8043,-5.8389,-5.8895,-6.0201,-6.0187,-5.9978,-6.1035,-6.1001,-6.0807,-6.1376,-6.1534,-6.1549,-6.1403,-6.1453,-6.1465,-6.1381,-6.1303,-6.1065,-6.0517,-6.0261,-6.0068,-5.9793,-5.943,-5.9297,-5.9584,-5.9832,-6.0003,-6.0003,-6.0458,-6.0781,-6.0781,-6.0781,-6.0781,-6.0781,-6.0781,-6.0781,-6.0781,-6.0781,-6.0781,-6.0781,-6.0781,-6.0781,-6.0781,-6.0781,-6.0781,-6.0819,-6.1666,-6.2204,-6.2474,-6.2474,-6.2474,-6.2435,-6.1589,-6.2012,-6.332,-6.332,-6.432,-6.5897,-6.5897,-6.5897,-6.5897,-6.5897,-6.5897,-6.5897,-6.1186,-6.1186,-6.1186,-6.1186,-6.1186,-6.1128,-6.102,-6.112,-6.1167,-6.102,-6.0437,-6.0306,-6.107,-6.0501,-6.0345,-6.1109,-6.1186,-6.1186,-6.1186,-6.0572,-5.9459,-5.7851,-5.7035,-5.6606,-5.6606,-5.6606,-5.6606,-5.6606,-5.6606,-5.6606,-5.6606,-5.6606,-5.6606,-5.6606,-5.6606,-5.6606,-5.6606,-5.6606,-5.6606,-5.6606,-5.6606,-5.6606,-5.6606,-5.6606,-5.6606,-5.6606,-5.6627,-5.7168,-5.7874,-5.7663,-5.818,-5.8898,-5.8909,-5.9528,-6.0344,-6.1083,-6.1297,-6.1306,-6.1306,-6.1296,-6.1285,-6.1317,-6.1297,-6.1292,-6.1305,-6.1281,-6.1306,-6.1306,-6.1208,-6.1109,-6.1109,-6.1053,-6.0706,-5.9755,-6.0333,-6.058,-5.9627,-6.0242,-6.0781,-6.0781,-6.0781,-6.0781,-6.0781,-6.0781,-6.0781,-6.0781,-6.0781,-6.0781,-6.0781,-6.0781,-6.0781,-6.0781,-6.0781,-6.0781,-6.0781,-6.0819,-6.0819,-6.0819,-6.1704,-6.2551,-6.332,-6.332,-6.332,-6.3281,-6.2435,-6.2551,-6.332,-6.332,-6.432,-6.5897,-6.5897,-6.5897,-6.5897,-6.5897,-6.5897,-6.5897,-6.0807,-6.0923,-6.0923,-6.0923,-6.0923,-6.0902,-6.0856,-6.0882,-6.071,-6.0008,-6.0384,-6.0356,-5.9426,-6.0235,-6.072,-6.0409,-6.037,-6.0099,-5.9477,-5.9244,-5.8659,-5.7564,-5.746,-5.7076,-5.629,-5.6355,-5.6355,-5.6241,-5.6241,-5.6241,-5.6241,-5.6241,-5.6241,-5.6241,-5.6241,-5.6241,-5.6241,-5.6241,-5.6241,-5.6241,-5.6241,-5.6241,-5.6241,-5.6241,-5.6622,-5.7156,-5.7167,-5.7731,-5.8448,-5.8371,-5.8537,-5.8858,-5.949,-6.0289,-6.1002,-6.1138,-6.1136,-6.1147,-6.1048,-6.1026,-6.1048,-6.1157,-6.1211,-6.1241,-6.1138,-6.1157,-6.1169,-6.1113,-6.1032,-6.0949,-6.0949,-6.0888,-6.075,-6.0496,-6.065,-6.0727,-6.0435,-6.0627,-6.0781,-6.0781,-6.0781,-6.0781,-6.0781,-6.0781,-6.0781,-6.0781,-6.0781,-6.0781,-6.0781,-6.0781,-6.0781,-6.0781,-6.0781,-6.0781,-6.0781,-6.1396,-6.1704,-6.1704,-6.3166,-6.3974,-6.4205,-6.3589,-6.332,-6.3281,-6.2435,-6.2551,-6.3358,-6.3974,-6.4897,-6.5897,-6.5897,-6.5897,-6.5897,-6.5897,-6.5897,-6.5897,-6.0704,-6.0781,-6.0781,-6.0781,-6.0781,-6.0781,-6.0781,-6.0781,-6.0589,-6.0089,-5.9991,-5.9803,-5.9436,-5.9803,-6.0128,-6.0321,-6.0321,-6.0089,-5.9585,-5.9575,-5.9188,-5.8269,-5.8165,-5.7488,-5.6136,-5.6169,-5.6181,-5.6097,-5.6097,-5.6097,-5.6097,-5.6097,-5.6097,-5.6097,-5.6097,-5.6097,-5.6097,-5.6097,-5.6097,-5.6097,-5.6097,-5.633,-5.6602,-5.6602,-5.7172,-5.7896,-5.7897,-5.8453,-5.9191,-5.9114,-5.9314,-5.9682,-6.019,-6.0713,-6.1147,-6.1026,-6.0965,-6.0965,-6.0888,-6.0866,-6.0888,-6.0965,-6.1058,-6.1074,-6.0949,-6.0949,-6.1065,-6.1395,-6.1412,-6.1443,-6.179,-6.1805,-6.1781,-6.1781,-6.1512,-6.132,-6.132,-6.1012,-6.0781,-6.0781,-6.0781,-6.0781,-6.0781,-6.0781,-6.0935,-6.1281,-6.132,-6.132,-6.132,-6.132,-6.1166,-6.0819,-6.1127,-6.132,-6.132,-6.2166,-6.2397,-6.2127,-6.3782,-6.4589,-6.4589,-6.4397,-6.4128,-6.3782,-6.3281,-6.3358,-6.3858,-6.4397,-6.5128,-6.5897,-6.5897,-6.5897,-6.5897,-6.5897,-6.5897,-6.5897,-6.0781,-6.0781,-6.0781,-6.0781,-6.0781,-6.0781,-6.0704,-6.0666,-6.0666,-6.0589,-5.9319,-5.8973,-6.0512,-5.9396,-5.9127,-6.0666,-6.0742,-6.0666,-6.0666,-6.0787,-6.046,-5.955,-5.9026,-5.7998,-5.6329,-5.6149,-5.6071,-5.6057,-5.6057,-5.6057,-5.6057,-5.6057,-5.6057,-5.6057,-5.6135,-5.6174,-5.6174,-5.6251,-5.629,-5.629,-5.629,-5.6756,-5.7494,-5.7494,-5.8023,-5.876,-5.876,-5.9342,-6.0026,-5.986,-6.0345,-6.0983,-6.085,-6.0899,-6.0983,-6.085,-6.0781,-6.0781,-6.0781,-6.0781,-6.0781,-6.0781,-6.0858,-6.0935,-6.0935,-6.0935,-6.1166,-6.2012,-6.2204,-6.2435,-6.3166,-6.332,-6.332,-6.332,-6.2704,-6.2166,-6.2089,-6.1396,-6.0896,-6.0819,-6.0781,-6.0819,-6.0896,-6.0973,-6.1358,-6.2127,-6.2204,-6.2166,-6.2089,-6.2166,-6.182,-6.0935,-6.1666,-6.2127,-6.2204,-6.2858,-6.2897,-6.232,-6.3935,-6.4705,-6.4743,-6.5474,-6.5359,-6.4589,-6.4589,-6.4589,-6.4628,-6.4666,-6.5166,-6.5897,-6.5897,-6.5897,-6.5897,-6.5897,-6.5897,-6.5897,-6.0666,-6.0781,-6.0781,-6.0781,-6.0781,-6.055,-5.9896,-5.9781,-5.955,-5.8934,-5.9088,-5.9396,-5.9742,-6.0089,-6.0396,-6.0781,-6.0165,-5.9781,-5.9781,-5.9826,-5.9711,-5.9511,-5.937,-5.8855,-5.7852,-5.6613,-5.5879,-5.5808,-5.5808,-5.5808,-5.5808,-5.5808,-5.5808,-5.5808,-5.6502,-5.6811,-5.6849,-5.7544,-5.7814,-5.7814,-5.7814,-5.7968,-5.8122,-5.8122,-5.8623,-5.9356,-5.9356,-5.9896,-6.0608,-6.0564,-6.0696,-6.085,-6.0804,-6.0827,-6.085,-6.0804,-6.0781,-6.0781,-6.0781,-6.0781,-6.0781,-6.0781,-6.132,-6.182,-6.182,-6.182,-6.205,-6.2858,-6.3051,-6.3089,-6.3281,-6.332,-6.332,-6.332,-6.3166,-6.282,-6.2166,-6.1935,-6.155,-6.0858,-6.0781,-6.105,-6.1743,-6.2397,-6.2858,-6.3051,-6.3051,-6.2743,-6.2127,-6.2704,-6.2666,-6.182,-6.1973,-6.2397,-6.3051,-6.2589,-6.2935,-6.4051,-6.5128,-6.5628,-6.559,-6.5128,-6.4782,-6.4589,-6.4589,-6.4589,-6.4666,-6.532,-6.5743,-6.5897,-6.5897,-6.5897,-6.5897,-6.5897,-6.5897,-6.5897,-6.0704,-6.0781,-6.0781,-6.0781,-6.0781,-6.0666,-6.0204,-5.9781,-5.9511,-5.9473,-5.9165,-5.9088,-5.9473,-5.9896,-6.0358,-6.0742,-6.0396,-6.0127,-6.0127,-6.0127,-6.0127,-6.0127,-5.9358,-5.8896,-5.8858,-5.7271,-5.6598,-5.6934,-5.6934,-5.6934,-5.6934,-5.6511,-5.6549,-5.6934,-5.6549,-5.6819,-5.7627,-5.7665,-5.7934,-5.8319,-5.8319,-5.855,-5.8858,-5.8858,-5.9396,-6.0127,-6.0127,-6.0396,-6.0781,-6.0781,-6.0781,-6.0781,-6.0781,-6.0781,-6.0781,-6.0781,-6.0781,-6.0781,-6.0781,-6.0781,-6.0781,-6.0781,-6.1435,-6.2089,-6.2089,-6.2397,-6.2897,-6.3743,-6.3935,-6.4051,-6.4474,-6.4551,-6.4551,-6.4551,-6.4205,-6.3782,-6.3358,-6.2589,-6.1935,-6.1473,-6.1396,-6.1743,-6.2589,-6.3435,-6.3935,-6.3935,-6.3935,-6.3743,-6.332,-6.3705,-6.3551,-6.2704,-6.2666,-6.3051,-6.3897,-6.3089,-6.3512,-6.5205,-6.5243,-6.5513,-6.5859,-6.5436,-6.5205,-6.5205,-6.5205,-6.5205,-6.5243,-6.5705,-6.5897,-6.5897,-6.5897,-6.5897,-6.5897,-6.5897,-6.6128,-6.6397,-6.0589,-6.0589,-6.0512,-6.0396,-6.0473,-6.0512,-6.0396,-5.9896,-5.9742,-6.0473,-5.9358,-5.8819,-5.9627,-5.9704,-5.9935,-6.0512,-6.0704,-6.0781,-6.0781,-6.0781,-6.0781,-6.0781,-5.9473,-5.905,-5.9704,-5.8357,-5.7857,-5.8319,-5.8319,-5.8319,-5.828,-5.755,-5.7588,-5.8242,-5.6934,-5.7165,-5.8473,-5.7896,-5.805,-5.8742,-5.8742,-5.9127,-5.9704,-5.9704,-6.0165,-6.0781,-6.0781,-6.0781,-6.0781,-6.0781,-6.0781,-6.0781,-6.0781,-6.0781,-6.0781,-6.0781,-6.0781,-6.0819,-6.0973,-6.1012,-6.105,-6.1204,-6.1858,-6.2512,-6.2512,-6.3051,-6.3782,-6.4628,-6.482,-6.5051,-6.5782,-6.5897,-6.5897,-6.5897,-6.5282,-6.4782,-6.4628,-6.3397,-6.2474,-6.232,-6.2435,-6.2781,-6.3474,-6.432,-6.482,-6.482,-6.482,-6.4743,-6.4628,-6.4743,-6.4436,-6.3551,-6.3512,-6.3935,-6.482,-6.382,-6.4166,-6.5897,-6.5013,-6.5051,-6.5897,-6.5897,-6.5897,-6.5897,-6.5897,-6.5897,-6.5897,-6.5897,-6.5897,-6.5897,-6.5897,-6.5897,-6.5897,-6.6051,-6.6628,-6.7244,-5.9665,-5.9665,-5.9473,-5.8781,-5.9204,-5.9435,-5.8742,-5.9127,-5.955,-5.9665,-5.9473,-5.9665,-6.0512,-6.0627,-6.0358,-5.9742,-6.0358,-6.0781,-6.0781,-6.0781,-6.0781,-6.0781,-6.0589,-6.0512,-6.0627,-6.0396,-5.9627,-5.8319,-5.8319,-5.8319,-5.8319,-5.8165,-5.8204,-5.8319,-5.8781,-5.9127,-5.9396,-6.0012,-6.0358,-6.0473,-6.0473,-6.0512,-6.0627,-6.0627,-6.0704,-6.0781,-6.0781,-6.0781,-6.0781,-6.0781,-6.0781,-6.0781,-6.0781,-6.0781,-6.0781,-6.0781,-6.0781,-6.0973,-6.1704,-6.1897,-6.2089,-6.2781,-6.3628,-6.4243,-6.4243,-6.4359,-6.4666,-6.5551,-6.5705,-6.5743,-6.5859,-6.5897,-6.5897,-6.5897,-6.5782,-6.5474,-6.4705,-6.4397,-6.3974,-6.3243,-6.382,-6.4282,-6.4397,-6.5205,-6.5705,-6.5705,-6.5705,-6.5397,-6.4628,-6.532,-6.532,-6.4436,-6.4436,-6.4859,-6.5705,-6.4128,-6.4166,-6.5897,-6.5013,-6.5051,-6.5897,-6.5897,-6.5897,-6.5897,-6.5897,-6.5897,-6.5897,-6.5897,-6.5897,-6.5897,-6.5897,-6.5897,-6.5974,-6.6667,-6.7475,-6.8205,-5.8819,-5.8819,-5.8704,-5.8357,-5.8588,-5.8858,-5.8973,-5.8896,-5.9165,-6.0089,-5.9396,-5.8973,-5.9358,-5.9396,-5.9435,-5.9473,-6.0281,-6.0781,-6.0781,-6.0781,-6.0781,-6.0781,-6.0319,-6.0281,-6.0781,-6.0319,-5.9935,-5.9704,-5.9704,-5.9704,-5.9704,-5.9204,-5.9242,-5.9665,-5.9088,-5.9358,-6.0204,-6.0127,-6.0358,-6.0781,-6.0781,-6.0781,-6.0781,-6.0781,-6.0781,-6.0781,-6.0781,-6.0781,-6.0781,-6.0781,-6.0781,-6.0781,-6.0781,-6.0781,-6.0781,-6.0781,-6.1127,-6.1589,-6.1973,-6.2435,-6.2858,-6.3205,-6.3974,-6.4589,-6.4589,-6.4974,-6.5436,-6.582,-6.5897,-6.5897,-6.5897,-6.5897,-6.5897,-6.5897,-6.5897,-6.5782,-6.5397,-6.4897,-6.4474,-6.4089,-6.4359,-6.4782,-6.5282,-6.5667,-6.5897,-6.5897,-6.5897,-6.5743,-6.5359,-6.5705,-6.5705,-6.532,-6.4859,-6.5013,-6.5897,-6.4666,-6.4666,-6.5897,-6.5513,-6.5513,-6.5897,-6.5897,-6.5897,-6.5897,-6.5897,-6.5897,-6.5897,-6.5897,-6.5897,-6.5897,-6.5897,-6.5897,-6.6013,-6.6782,-6.7667,-6.8398]}]]